[[{"header":{"parameterUnit":"m.s-1","parameterCategory":1,"la1":30.6,"la2":28.766,"lo1":-90.7593,"lo2":-88.6598,"dy":0.0162,"dx":0.0183,"nx":116,"ny":114,"refTime":"2023-11-18T18:00:00:Z","depth":0,"parameterNumber":2,"parameterNumberName":"U-component_of_WINDS"},"data":[0.0,0.0,0.0,0.0,0.0,0.0,0.0,0.0,0.0,0.0,0.0,0.0,0.0,0.0,0.0,0.0,0.0,0.0,0.0,0.0,0.0,0.0,0.0,0.0,0.0,0.0,0.0,0.0,0.0,0.0,0.0,0.0,0.0,0.0,0.0,0.0,0.0,0.0,0.0,0.0,0.0,0.0,0.0,0.0,0.0,0.0,0.0,0.0,0.0,0.0,0.0,0.0,0.0,0.0,0.0,0.0,0.0,0.0,0.0,0.0,0.0,0.0,0.0,0.0,0.0,0.0,0.0,0.0,0.0,0.0,0.0,0.0,0.0,0.0,0.0,0.0,0.0,0.0,0.0,0.0,0.0,0.0,0.0,0.0,0.0,0.0,0.0,0.0,0.0,0.0,0.0,0.0,0.0,0.0,0.0,0.0,0.0,0.0,0.0,0.0,0.0,0.0,0.0,0.0,0.0,0.0,0.0,0.0,0.0,0.0,0.0,0.0,0.0,0.0,0.0,0.0,0.0,0.0,0.0,0.0,0.0,0.0,0.0,0.0,0.0,0.0,0.0,0.0,0.0,0.0,0.0,0.0,0.0,0.0,0.0,0.0,0.0,0.0,0.0,0.0,0.0,0.0,0.0,0.0,0.0,0.0,0.0,0.0,0.0,0.0,0.0,0.0,0.0,0.0,0.0,0.0,0.0,0.0,0.0,0.0,0.0,0.0,0.0,0.0,0.0,0.0,0.0,0.0,0.0,0.0,0.0,0.0,0.0,0.0,0.0,0.0,0.0,0.0,0.0,0.0,0.0,0.0,0.0,0.0,0.0,0.0,0.0,0.0,0.0,0.0,0.0,0.0,0.0,0.0,0.0,0.0,0.0,0.0,0.0,0.0,0.0,0.0,0.0,0.0,0.0,0.0,0.0,0.0,0.0,0.0,0.0,0.0,0.0,0.0,0.0,0.0,0.0,0.0,0.0,0.0,0.0,0.0,0.0,0.0,0.0,0.0,0.0,0.0,0.0,0.0,0.0,0.0,0.0,0.0,0.0,0.0,0.0,0.0,0.0,0.0,0.0,0.0,0.0,0.0,0.0,0.0,0.0,0.0,0.0,0.0,0.0,0.0,0.0,0.0,0.0,0.0,0.0,0.0,0.0,0.0,0.0,0.0,0.0,0.0,0.0,0.0,0.0,0.0,0.0,0.0,0.0,0.0,0.0,0.0,0.0,0.0,0.0,0.0,0.0,0.0,0.0,0.0,0.0,0.0,0.0,0.0,0.0,0.0,0.0,0.0,0.0,0.0,0.0,0.0,0.0,0.0,0.0,0.0,0.0,0.0,0.0,0.0,0.0,0.0,0.0,0.0,0.0,0.0,0.0,0.0,0.0,0.0,0.0,0.0,0.0,0.0,0.0,0.0,0.0,0.0,0.0,0.0,0.0,0.0,0.0,0.0,0.0,0.0,0.0,0.0,0.0,0.0,0.0,0.0,0.0,0.0,0.0,0.0,0.0,0.0,0.0,0.0,0.0,0.0,0.0,0.0,0.0,0.0,0.0,0.0,0.0,0.0,0.0,0.0,0.0,0.0,0.0,0.0,0.0,0.0,0.0,0.0,0.0,0.0,0.0,0.0,0.0,0.0,0.0,0.0,0.0,0.0,0.0,0.0,0.0,0.0,0.0,0.0,0.0,0.0,0.0,0.0,0.0,0.0,0.0,0.0,0.0,0.0,0.0,0.0,0.0,0.0,0.0,0.0,0.0,0.0,0.0,0.0,0.0,0.0,0.0,0.0,0.0,0.0,0.0,0.0,0.0,0.0,0.0,0.0,0.0,0.0,0.0,0.0,0.0,0.0,0.0,0.0,0.0,0.0,0.0,0.0,0.0,0.0,0.0,0.0,0.0,0.0,0.0,0.0,0.0,0.0,0.0,0.0,0.0,0.0,0.0,0.0,0.0,0.0,0.0,0.0,0.0,0.0,0.0,0.0,0.0,0.0,0.0,0.0,0.0,0.0,0.0,0.0,0.0,0.0,0.0,0.0,0.0,0.0,0.0,0.0,0.0,0.0,0.0,0.0,0.0,0.0,0.0,0.0,0.0,0.0,0.0,0.0,0.0,0.0,0.0,0.0,0.0,0.0,0.0,0.0,0.0,0.0,0.0,0.0,0.0,0.0,0.0,0.0,0.0,0.0,0.0,0.0,0.0,0.0,0.0,0.0,0.0,0.0,0.0,0.0,0.0,0.0,0.0,0.0,0.0,0.0,0.0,0.0,0.0,0.0,0.0,0.0,0.0,0.0,0.0,0.0,0.0,0.0,0.0,0.0,0.0,0.0,0.0,0.0,0.0,0.0,0.0,0.0,0.0,0.0,0.0,0.0,0.0,0.0,0.0,0.0,0.0,0.0,0.0,0.0,0.0,0.0,0.0,0.0,0.0,0.0,0.0,0.0,0.0,0.0,0.0,0.0,0.0,0.0,0.0,0.0,0.0,0.0,0.0,0.0,0.0,0.0,0.0,0.0,0.0,0.0,0.0,0.0,0.0,0.0,0.0,0.0,0.0,0.0,0.0,0.0,0.0,0.0,0.0,0.0,0.0,0.0,0.0,0.0,0.0,0.0,0.0,0.0,0.0,0.0,0.0,0.0,0.0,0.0,0.0,0.0,0.0,0.0,0.0,0.0,0.0,0.0,0.0,0.0,0.0,0.0,0.0,0.0,0.0,0.0,0.0,0.0,0.0,0.0,0.0,0.0,0.0,0.0,0.0,0.0,0.0,0.0,0.0,0.0,0.0,0.0,0.0,0.0,0.0,0.0,0.0,0.0,0.0,0.0,0.0,0.0,0.0,0.0,0.0,0.0,0.0,0.0,0.0,0.0,0.0,0.0,0.0,0.0,0.0,0.0,0.0,0.0,0.0,0.0,0.0,0.0,0.0,0.0,0.0,0.0,0.0,0.0,0.0,0.0,0.0,0.0,0.0,0.0,0.0,0.0,0.0,0.0,0.0,0.0,0.0,0.0,0.0,0.0,0.0,0.0,0.0,0.0,0.0,0.0,0.0,0.0,0.0,0.0,0.0,0.0,0.0,0.0,0.0,0.0,0.0,0.0,0.0,0.0,0.0,0.0,0.0,0.0,0.0,0.0,0.0,0.0,0.0,0.0,0.0,0.0,0.0,0.0,0.0,0.0,0.0,0.0,0.0,0.0,0.0,0.0,0.0,0.0,0.0,0.0,0.0,0.0,0.0,0.0,0.0,0.0,0.0,0.0,0.0,0.0,0.0,0.0,0.0,0.0,0.0,0.0,0.0,0.0,0.0,0.0,0.0,0.0,0.0,0.0,0.0,0.0,0.0,0.0,0.0,0.0,0.0,0.0,0.0,0.0,0.0,0.0,0.0,0.0,0.0,0.0,0.0,0.0,0.0,0.0,0.0,0.0,0.0,0.0,0.0,0.0,0.0,0.0,0.0,0.0,0.0,0.0,0.0,0.0,0.0,0.0,0.0,0.0,0.0,0.0,0.0,0.0,0.0,0.0,0.0,0.0,0.0,0.0,0.0,0.0,0.0,0.0,0.0,0.0,0.0,0.0,0.0,0.0,0.0,0.0,0.0,0.0,0.0,0.0,0.0,0.0,0.0,0.0,0.0,0.0,0.0,0.0,0.0,0.0,0.0,0.0,0.0,0.0,0.0,0.0,0.0,0.0,0.0,0.0,0.0,0.0,0.0,0.0,0.0,0.0,0.0,0.0,0.0,0.0,0.0,0.0,0.0,0.0,0.0,0.0,0.0,0.0,0.0,0.0,0.0,0.0,0.0,0.0,0.0,0.0,0.0,0.0,0.0,0.0,0.0,0.0,0.0,0.0,0.0,0.0,0.0,0.0,0.0,0.0,0.0,0.0,0.0,0.0,0.0,0.0,0.0,0.0,0.0,0.0,0.0,0.0,0.0,0.0,0.0,0.0,0.0,0.0,0.0,0.0,0.0,0.0,0.0,0.0,0.0,0.0,0.0,0.0,0.0,0.0,0.0,0.0,0.0,0.0,0.0,0.0,0.0,0.0,0.0,0.0,0.0,0.0,0.0,0.0,0.0,0.0,0.0,0.0,0.0,0.0,0.0,0.0,0.0,0.0,0.0,0.0,0.0,0.0,0.0,0.0,0.0,0.0,0.0,0.0,0.0,0.0,0.0,0.0,0.0,0.0,0.0,0.0,0.0,0.0,0.0,0.0,0.0,0.0,0.0,0.0,0.0,0.0,0.0,0.0,0.0,0.0,0.0,0.0,0.0,0.0,0.0,0.0,0.0,0.0,0.0,0.0,0.0,0.0,0.0,0.0,0.0,0.0,0.0,0.0,0.0,0.0,0.0,0.0,0.0,0.0,0.0,0.0,0.0,0.0,0.0,0.0,0.0,0.0,0.0,0.0,0.0,0.0,0.0,0.0,0.0,0.0,0.0,0.0,0.0,0.0,0.0,0.0,0.0,0.0,0.0,0.0,0.0,0.0,0.0,0.0,0.0,0.0,0.0,0.0,0.0,0.0,0.0,0.0,0.0,0.0,0.0,0.0,0.0,0.0,0.0,0.0,0.0,0.0,0.0,0.0,0.0,0.0,0.0,0.0,0.0,0.0,0.0,0.0,0.0,0.0,0.0,0.0,0.0,0.0,0.0,0.0,0.0,0.0,0.0,0.0,0.0,0.0,0.0,0.0,0.0,0.0,0.0,0.0,0.0,0.0,0.0,0.0,0.0,0.0,0.0,0.0,0.0,0.0,0.0,0.0,0.0,0.0,0.0,0.0,0.0,0.0,0.0,0.0,0.0,0.0,0.0,0.0,0.0,0.0,0.0,0.0,0.0,0.0,0.0,0.0,0.0,0.0,0.0,0.0,0.0,0.0,0.0,0.0,0.0,0.0,0.0,0.0,0.0,0.0,0.0,0.0,0.0,0.0,0.0,0.0,0.0,0.0,0.0,0.0,0.0,0.0,0.0,0.0,0.0,0.0,0.0,0.0,0.0,0.0,0.0,0.0,0.0,0.0,0.0,0.0,0.0,0.0,0.0,0.0,0.0,0.0,0.0,0.0,0.0,0.0,0.0,0.0,0.0,0.0,0.0,0.0,0.0,0.0,0.0,0.0,0.0,0.0,0.0,0.0,0.0,0.0,0.0,0.0,0.0,0.0,0.0,0.0,0.0,0.0,0.0,0.0,0.0,0.0,0.0,0.0,0.0,0.0,0.0,0.0,0.0,0.0,0.0,0.0,0.0,0.0,0.0,0.0,0.0,0.0,0.0,0.0,0.0,0.0,0.0,0.0,0.0,0.0,0.0,0.0,0.0,0.0,0.0,0.0,0.0,0.0,0.0,0.0,0.0,0.0,0.0,0.0,0.0,0.0,0.0,0.0,0.0,0.0,0.0,0.0,0.0,0.0,0.0,0.0,0.0,0.0,0.0,0.0,0.0,0.0,0.0,0.0,0.0,0.0,0.0,0.0,0.0,0.0,0.0,0.0,0.0,0.0,0.0,0.0,0.0,0.0,0.0,0.0,0.0,0.0,0.0,0.0,0.0,0.0,0.0,0.0,0.0,0.0,0.0,0.0,0.0,0.0,0.0,0.0,0.0,0.0,0.0,0.0,0.0,0.0,0.0,0.0,0.0,0.0,0.0,0.0,0.0,0.0,0.0,0.0,0.0,0.0,0.0,0.0,0.0,0.0,0.0,0.0,0.0,0.0,0.0,0.0,0.0,0.0,0.0,0.0,0.0,0.0,0.0,0.0,0.0,0.0,0.0,0.0,0.0,0.0,0.0,0.0,0.0,0.0,0.0,0.0,0.0,0.0,0.0,0.0,0.0,0.0,0.0,0.0,0.0,0.0,0.0,0.0,0.0,0.0,0.0,0.0,0.0,0.0,0.0,0.0,0.0,0.0,0.0,0.0,0.0,0.0,0.0,0.0,0.0,0.0,0.0,0.0,0.0,0.0,0.0,0.0,0.0,0.0,0.0,0.0,0.0,0.0,0.0,0.0,0.0,0.0,0.0,0.0,0.0,0.0,0.0,0.0,0.0,0.0,0.0,0.0,0.0,0.0,0.0,0.0,0.0,0.0,0.0,0.0,0.0,0.0,0.0,0.0,0.0,0.0,4.4036,0.0,0.0,0.0,0.0,0.0,0.0,0.0,0.0,0.0,0.0,0.0,0.0,0.0,0.0,0.0,0.0,0.0,0.0,0.0,0.0,0.0,0.0,0.0,0.0,0.0,0.0,0.0,0.0,0.0,0.0,0.0,0.0,0.0,0.0,0.0,0.0,0.0,0.0,0.0,0.0,0.0,0.0,0.0,0.0,0.0,0.0,0.0,0.0,0.0,0.0,0.0,0.0,0.0,0.0,0.0,0.0,0.0,0.0,0.0,0.0,0.0,0.0,0.0,0.0,0.0,0.0,0.0,0.0,0.0,0.0,0.0,0.0,0.0,0.0,0.0,0.0,0.0,0.0,0.0,0.0,0.0,0.0,0.0,0.0,0.0,0.0,0.0,0.0,0.0,0.0,0.0,0.0,0.0,0.0,0.0,0.0,0.0,0.0,0.0,0.0,0.0,0.0,0.0,0.0,0.0,0.0,0.0,0.0,0.0,0.0,0.0,0.0,0.0,0.0,0.0,0.0,4.4671,0.0,0.0,0.0,0.0,0.0,0.0,0.0,0.0,0.0,0.0,0.0,0.0,0.0,0.0,0.0,0.0,0.0,0.0,0.0,0.0,0.0,0.0,0.0,0.0,0.0,0.0,0.0,0.0,0.0,0.0,0.0,0.0,0.0,0.0,0.0,0.0,0.0,0.0,0.0,0.0,0.0,0.0,0.0,0.0,0.0,0.0,0.0,0.0,0.0,0.0,0.0,0.0,0.0,0.0,0.0,0.0,0.0,0.0,0.0,0.0,0.0,0.0,0.0,0.0,0.0,0.0,0.0,0.0,0.0,0.0,0.0,0.0,0.0,0.0,0.0,0.0,0.0,0.0,0.0,0.0,0.0,0.0,0.0,0.0,0.0,0.0,0.0,0.0,0.0,0.0,0.0,0.0,0.0,0.0,0.0,0.0,0.0,0.0,0.0,0.0,0.0,0.0,0.0,0.0,0.0,0.0,0.0,0.0,4.6259,4.6706,4.6858,4.7566,4.8002,4.8114,4.641,4.6053,4.6607,0.0,0.0,0.0,0.0,0.0,0.0,0.0,0.0,0.0,0.0,0.0,0.0,0.0,0.0,0.0,0.0,0.0,0.0,0.0,0.0,0.0,0.0,2.6015,2.6468,2.6505,2.7181,2.7634,0.0,0.0,0.0,0.0,0.0,0.0,0.0,0.0,0.0,0.0,0.0,0.0,0.0,0.0,0.0,0.0,0.0,0.0,0.0,0.0,0.0,0.0,0.0,0.0,0.0,0.0,0.0,0.0,0.0,0.0,0.0,0.0,0.0,0.0,0.0,0.0,0.0,0.0,0.0,0.0,0.0,0.0,0.0,0.0,0.0,0.0,0.0,0.0,0.0,0.0,0.0,0.0,0.0,0.0,0.0,0.0,0.0,0.0,0.0,0.0,3.8211,3.9085,0.0,0.0,0.0,0.0,0.0,0.0,0.0,0.0,0.0,0.0,0.0,0.0,0.0,4.5015,4.5795,4.61,4.6986,4.8445,4.8887,4.9492,5.0194,5.0191,5.0186,5.0178,4.9926,0.0,4.854,4.8436,0.0,0.0,0.0,0.0,0.0,0.0,0.0,0.0,0.0,0.0,0.0,0.0,0.0,0.0,0.0,0.0,0.0,0.0,0.0,0.0,0.0,2.7539,2.8517,2.853,2.958,3.0098,2.9819,2.9794,3.0047,3.0634,3.0665,3.1264,0.0,0.0,0.0,0.0,0.0,0.0,0.0,0.0,0.0,0.0,0.0,0.0,0.0,0.0,0.0,0.0,0.0,0.0,0.0,0.0,0.0,0.0,0.0,0.0,0.0,0.0,0.0,0.0,0.0,0.0,0.0,0.0,0.0,0.0,0.0,0.0,0.0,0.0,0.0,0.0,0.0,0.0,0.0,0.0,0.0,0.0,0.0,0.0,0.0,0.0,0.0,0.0,0.0,3.8508,3.9674,4.0475,4.0485,4.0668,0.0,0.0,0.0,0.0,0.0,0.0,0.0,0.0,0.0,4.6365,4.6883,4.7627,4.8696,4.885,4.9304,5.0007,5.0188,5.0472,5.0802,5.0762,5.0684,5.0684,5.0684,5.0664,5.0602,4.9936,4.9506,4.9174,0.0,0.0,0.0,0.0,4.8869,4.8947,0.0,0.0,0.0,0.0,0.0,0.0,0.0,0.0,0.0,0.0,0.0,0.0,2.7526,2.9522,3.0842,3.0842,3.194,3.2468,3.1974,3.1966,3.2004,3.2149,3.2115,3.2522,0.0,0.0,0.0,0.0,0.0,0.0,0.0,0.0,0.0,0.0,0.0,0.0,0.0,0.0,0.0,0.0,0.0,0.0,0.0,0.0,0.0,0.0,0.0,0.0,0.0,0.0,0.0,0.0,0.0,0.0,0.0,0.0,0.0,0.0,0.0,0.0,0.0,0.0,0.0,0.0,0.0,0.0,0.0,0.0,0.0,0.0,0.0,0.0,0.0,0.0,0.0,0.0,0.0,4.0389,4.1377,4.1899,4.2235,4.2547,0.0,0.0,0.0,0.0,0.0,0.0,4.5765,4.6625,4.7526,4.846,4.9127,4.9893,5.0802,5.0802,5.0912,5.1096,5.1096,5.1206,5.1426,5.1426,5.1426,5.1426,5.1426,5.1756,5.216,5.1082,5.0599,5.0416,5.0203,4.9954,4.9711,4.9986,5.0137,5.0156,0.0,0.0,0.0,0.0,0.0,0.0,0.0,0.0,0.0,0.0,0.0,2.9,2.974,3.182,3.3145,3.3128,3.3956,3.4225,3.3707,3.3731,3.3555,3.307,3.3014,3.346,3.4311,0.0,0.0,0.0,0.0,0.0,0.0,0.0,0.0,0.0,0.0,0.0,0.0,0.0,0.0,0.0,0.0,0.0,0.0,0.0,0.0,0.0,0.0,0.0,0.0,0.0,0.0,0.0,0.0,0.0,0.0,0.0,0.0,0.0,0.0,0.0,0.0,0.0,0.0,0.0,0.0,0.0,0.0,0.0,0.0,0.0,0.0,0.0,0.0,0.0,0.0,0.0,0.0,0.0,0.0,4.3247,4.4334,0.0,0.0,0.0,0.0,4.5812,4.6615,4.7591,4.8716,4.9558,5.021,5.0625,5.0659,5.0732,5.0802,5.0802,5.1169,5.194,5.194,5.2344,5.3078,5.3078,5.3078,5.3078,5.3078,5.303,5.2914,5.2197,5.1676,5.1307,5.1292,5.0629,4.9806,5.0816,5.1237,5.1367,0.0,0.0,0.0,0.0,0.0,0.0,0.0,0.0,0.0,2.6674,2.8859,3.05,3.082,3.3579,3.5413,3.5413,3.6519,3.6756,3.5656,3.5342,3.4954,3.4414,3.4118,3.5136,3.7679,0.0,0.0,0.0,0.0,0.0,0.0,0.0,0.0,0.0,0.0,0.0,0.0,0.0,0.0,0.0,0.0,0.0,0.0,0.0,0.0,0.0,0.0,0.0,0.0,0.0,0.0,0.0,0.0,0.0,0.0,0.0,0.0,0.0,0.0,0.0,0.0,0.0,0.0,0.0,0.0,0.0,0.0,0.0,0.0,0.0,0.0,0.0,0.0,0.0,0.0,0.0,0.0,0.0,0.0,4.4311,4.5735,0.0,4.6306,4.6959,4.7749,4.8626,4.9209,4.9703,5.0121,5.0417,5.0857,5.1536,5.1573,5.183,5.2344,5.2344,5.2491,5.2784,5.3298,5.3702,5.3995,5.4509,5.473,5.473,5.473,5.473,5.4613,5.3885,5.3093,5.2447,5.2525,5.2308,5.2007,5.238,5.2523,5.2555,0.0,0.0,0.0,0.0,0.0,0.0,0.0,0.0,0.0,2.8124,3.0428,3.2248,3.3014,3.5624,3.7303,3.7285,3.8184,3.8161,3.6906,3.6519,3.6045,3.535,3.5432,3.713,4.0628,4.2062,0.0,0.0,0.0,0.0,0.0,0.0,0.0,0.0,0.0,0.0,0.0,0.0,0.0,0.0,0.0,0.0,3.9279,0.0,0.0,0.0,0.0,0.0,0.0,0.0,0.0,0.0,0.0,0.0,0.0,0.0,0.0,0.0,0.0,0.0,0.0,0.0,0.0,0.0,0.0,0.0,0.0,0.0,0.0,0.0,0.0,0.0,0.0,0.0,0.0,0.0,0.0,0.0,4.6523,4.5627,4.7395,4.8567,4.8261,4.9021,4.9777,5.0368,5.0932,5.1206,5.1206,5.1463,5.1977,5.2784,5.2821,5.3188,5.3995,5.3995,5.3995,5.4032,5.4546,5.4803,5.4803,5.5354,5.5574,5.5574,5.5574,5.5574,5.5537,5.5023,5.4429,5.3836,5.3366,5.3225,5.3225,5.3225,5.3225,5.3182,0.0,0.0,0.0,0.0,0.0,0.0,0.0,2.6704,2.7855,3.0915,3.25,3.4175,3.6385,3.7866,3.8689,3.8689,3.8689,3.8266,3.7305,3.7196,3.6802,3.5836,3.7064,3.9364,4.2805,0.0,0.0,0.0,0.0,0.0,0.0,0.0,0.0,0.0,0.0,0.0,0.0,0.0,0.0,0.0,0.0,0.0,4.2464,0.0,0.0,0.0,0.0,0.0,0.0,0.0,0.0,0.0,0.0,0.0,0.0,0.0,0.0,0.0,0.0,0.0,0.0,0.0,0.0,0.0,0.0,0.0,0.0,0.0,0.0,0.0,0.0,0.0,0.0,0.0,0.0,0.0,4.4957,4.6516,4.765,4.7327,4.9396,5.0672,5.0277,5.0601,5.0875,5.0875,5.161,5.205,5.205,5.2858,5.3628,5.4399,5.4436,5.4803,5.5574,5.5574,5.5574,5.5574,5.5611,5.5647,5.5647,5.5647,5.5647,5.5647,5.5647,5.5647,5.5647,5.5647,5.5647,5.5464,5.3885,5.3298,5.3298,5.3298,5.3298,5.3298,0.0,0.0,0.0,0.0,0.0,0.0,0.0,2.7218,2.845,3.0963,3.2995,3.483,3.646,3.7866,3.8689,3.8689,3.8689,3.8449,3.7766,3.7408,3.7414,3.7923,4.0148,4.237,4.4488,0.0,0.0,0.0,0.0,0.0,0.0,0.0,0.0,0.0,0.0,0.0,0.0,0.0,0.0,0.0,0.0,0.0,4.3565,0.0,0.0,0.0,0.0,0.0,0.0,0.0,0.0,0.0,0.0,0.0,0.0,0.0,0.0,0.0,0.0,0.0,0.0,0.0,0.0,0.0,0.0,0.0,0.0,0.0,0.0,0.0,0.0,0.0,0.0,0.0,0.0,4.7941,4.7003,4.8141,4.927,4.9748,5.0929,5.1618,5.1521,5.2136,5.2564,5.2564,5.3298,5.3739,5.3739,5.4509,5.5023,5.5244,5.5244,5.5354,5.5574,5.5574,5.5574,5.5611,5.6198,5.6455,5.6492,5.7079,5.7336,5.7336,5.7336,5.7336,5.7299,5.6712,5.6455,5.6381,5.5354,5.495,5.495,5.495,5.495,5.495,0.0,0.0,0.0,0.0,0.0,0.0,0.0,2.7923,2.9471,3.2319,3.379,3.5327,3.7293,3.8221,3.8689,3.8689,3.8472,3.8164,3.7614,3.7764,3.8646,4.039,4.2595,4.4655,0.0,0.0,0.0,0.0,0.0,0.0,0.0,0.0,0.0,0.0,0.0,0.0,0.0,0.0,0.0,0.0,0.0,0.0,4.5708,4.4823,4.383,4.2836,4.2295,4.2101,4.192,4.0672,0.0,0.0,0.0,0.0,0.0,0.0,0.0,0.0,0.0,0.0,0.0,0.0,0.0,0.0,0.0,0.0,0.0,0.0,0.0,0.0,0.0,0.0,0.0,0.0,4.8617,4.9637,4.9525,5.0118,5.0765,5.1242,5.2013,5.2491,5.2491,5.3225,5.3702,5.3702,5.4436,5.4913,5.4913,5.5354,5.5757,5.6088,5.6088,5.6271,5.6602,5.6602,5.6602,5.6602,5.7079,5.7483,5.7813,5.829,5.8694,0.0,5.9024,5.9024,5.8951,5.851,5.8327,0.0,0.0,0.0,0.0,0.0,5.5574,5.5574,0.0,0.0,0.0,0.0,0.0,0.0,0.0,2.8636,3.0509,3.4109,3.4576,3.5647,3.8382,3.8689,3.8689,3.8689,3.822,3.7753,0.0,3.8555,4.0359,4.2843,4.4612,4.6493,0.0,0.0,0.0,0.0,0.0,0.0,0.0,0.0,0.0,0.0,0.0,0.0,0.0,0.0,0.0,0.0,0.0,0.0,4.8381,4.6557,4.5345,4.4475,4.3375,4.2901,4.275,4.2535,0.0,0.0,0.0,0.0,0.0,0.0,0.0,0.0,0.0,0.0,0.0,0.0,0.0,0.0,0.0,0.0,0.0,0.0,0.0,0.0,0.0,0.0,0.0,0.0,5.0171,5.1316,5.2013,5.2123,5.2123,5.2123,5.2858,5.3335,5.3335,5.4069,5.4546,5.4546,5.528,5.5721,5.5721,0.0,0.0,0.0,0.0,5.7336,5.8143,5.8189,5.8272,5.8345,5.8345,5.8713,5.9448,5.9355,5.9722,6.0419,6.0419,6.0419,6.0419,6.0419,6.0419,6.0126,5.7262,5.6124,5.6124,5.6014,5.6014,5.5978,0.0,0.0,0.0,0.0,0.0,0.0,0.0,2.8653,3.0458,3.4051,3.4513,3.56,3.8382,3.859,3.859,3.8689,3.8201,3.7941,0.0,0.0,4.2548,4.3707,0.0,0.0,0.0,0.0,0.0,0.0,0.0,0.0,0.0,0.0,0.0,0.0,0.0,0.0,0.0,0.0,0.0,0.0,0.0,0.0,5.0251,4.9892,4.9231,4.8458,4.8237,4.7719,4.6831,4.5146,4.4587,4.4308,4.2624,0.0,0.0,0.0,0.0,0.0,0.0,0.0,0.0,0.0,0.0,0.0,0.0,0.0,0.0,0.0,0.0,0.0,0.0,0.0,0.0,4.9846,5.1486,5.2784,5.2968,5.2968,5.2968,5.2968,5.3702,5.4179,5.4179,5.4913,5.5354,5.5354,5.6124,5.6565,5.6565,5.7189,5.7593,5.7776,5.7776,5.8143,5.8988,5.9324,5.9875,6.0499,0.0,0.0,6.0722,6.0351,6.0272,6.0419,6.0419,6.0419,6.0419,6.0419,6.0419,6.0346,5.9722,5.9465,5.9391,5.8767,5.851,5.8437,0.0,0.0,0.0,0.0,0.0,0.0,0.0,2.9248,3.0676,3.3164,3.3507,3.4312,3.641,3.6593,3.6742,3.7203,3.7792,0.0,0.0,4.1744,4.4061,0.0,0.0,0.0,0.0,0.0,0.0,0.0,0.0,0.0,0.0,0.0,0.0,0.0,0.0,0.0,0.0,0.0,0.0,0.0,0.0,0.0,5.1977,5.1536,5.0912,5.0141,4.9738,4.9297,4.8712,4.7239,4.6755,4.6567,4.5531,4.4803,4.4056,0.0,0.0,0.0,0.0,0.0,0.0,0.0,0.0,0.0,0.0,0.0,0.0,0.0,0.0,4.7924,0.0,0.0,5.0956,5.1528,5.2512,5.3261,5.3408,5.3634,5.3818,5.3812,5.4179,5.4546,5.495,5.5721,5.625,5.6472,5.7066,5.7463,5.7691,5.7876,5.818,5.8584,5.8858,5.9361,6.0129,6.0613,6.1005,6.1416,6.1416,6.1517,6.167,6.1485,6.1429,6.1594,6.1594,6.1739,6.1939,6.1939,6.1939,6.1939,6.1691,6.1117,6.0346,5.9942,5.9795,5.9758,0.0,0.0,0.0,0.0,0.0,0.0,0.0,0.0,3.0919,3.2308,3.2488,3.301,3.4446,3.4576,3.486,3.5584,0.0,0.0,0.0,0.0,0.0,0.0,0.0,0.0,0.0,0.0,0.0,0.0,0.0,0.0,0.0,0.0,0.0,0.0,0.0,0.0,0.0,0.0,0.0,0.0,0.0,0.0,5.3151,5.2491,5.1646,5.0729,5.0068,4.9591,4.9224,4.8526,4.8306,4.8306,4.8306,4.7608,4.6557,4.5051,4.4611,0.0,0.0,0.0,0.0,0.0,0.0,0.0,0.0,0.0,4.5994,4.8047,4.9081,4.9789,5.0623,5.1341,5.2156,5.3138,5.3314,5.3502,5.399,5.4322,5.4607,5.4957,5.4913,5.514,5.5852,5.6662,5.7322,5.7742,5.8042,5.84,5.8809,5.8591,5.8813,5.9532,5.9987,6.065,6.147,6.188,6.2146,6.2297,6.2297,6.2443,6.279,6.2662,6.2769,6.3062,6.321,6.3521,6.3885,6.3944,6.3973,6.3928,6.3297,6.2254,6.108,6.075,6.0639,6.0603,0.0,0.0,0.0,0.0,0.0,0.0,0.0,0.0,0.0,3.2308,3.2416,3.2881,3.4446,3.4496,3.46,0.0,0.0,0.0,0.0,0.0,0.0,0.0,0.0,0.0,0.0,0.0,0.0,0.0,0.0,0.0,0.0,0.0,0.0,0.0,0.0,0.0,0.0,0.0,0.0,0.0,0.0,0.0,5.3188,5.3115,5.2123,5.0802,5.0692,4.9701,4.8416,4.8343,4.8306,4.8306,4.8306,4.8197,4.7647,4.5305,0.0,4.4255,4.2524,4.362,4.5477,4.6467,4.6733,4.7626,0.0,0.0,5.063,5.301,5.3569,5.3571,5.3314,5.3373,5.3497,5.3606,5.3643,5.4017,5.5137,5.506,5.5377,5.6882,5.6765,5.6712,5.7167,5.7951,5.8561,5.8953,5.9028,5.9248,5.9627,5.9993,6.0444,6.0884,6.1307,6.188,6.2668,6.316,6.3754,6.4474,6.4474,6.4476,6.448,6.4103,6.39,6.3971,6.4799,6.5137,6.5216,6.5576,6.5729,6.5608,6.4451,6.3833,6.3503,6.1998,6.1484,6.1374,0.0,0.0,0.0,0.0,0.0,0.0,0.0,0.0,0.0,0.0,3.1183,3.1422,3.2088,3.3004,0.0,0.0,0.0,0.0,3.9462,0.0,0.0,0.0,0.0,0.0,0.0,0.0,0.0,0.0,0.0,0.0,0.0,0.0,0.0,0.0,0.0,0.0,0.0,0.0,0.0,0.0,0.0,0.0,5.2491,5.2491,5.1499,5.0071,4.9787,4.8932,0.0,0.0,4.7259,4.7376,4.8089,4.8163,4.7661,4.5889,4.573,0.0,4.6153,4.6603,4.7286,0.0,4.8865,4.9646,5.1375,5.1352,5.1635,5.3865,5.4276,5.4231,5.4083,5.4052,5.4054,0.0,5.4466,5.5025,5.5723,5.6331,5.7042,5.7931,5.8161,5.8198,5.8107,5.8607,5.914,5.9502,5.9813,6.0116,6.0454,6.0943,6.1504,6.213,6.2598,6.316,6.3991,6.4453,6.4845,6.5155,6.565,6.5741,6.5495,6.5841,6.5801,6.5602,6.6217,6.6522,6.6522,6.6704,6.6736,6.6657,6.5617,6.5212,6.4942,6.2978,6.2291,6.2254,0.0,0.0,0.0,0.0,0.0,0.0,0.0,0.0,0.0,0.0,0.0,3.0379,3.0379,3.1954,0.0,0.0,0.0,0.0,0.0,4.1653,4.4078,4.6654,4.8343,0.0,5.1316,0.0,0.0,0.0,0.0,0.0,0.0,0.0,0.0,0.0,0.0,0.0,0.0,0.0,0.0,0.0,0.0,0.0,5.1977,5.1756,5.0591,4.9048,4.8692,4.8071,0.0,0.0,4.5989,4.6173,4.7279,4.7485,4.7061,4.6051,4.6129,4.6793,4.7998,0.0,0.0,4.9972,5.0956,5.1788,5.2112,5.2188,5.2635,5.4268,5.4587,5.4547,5.4457,5.444,5.4439,5.4455,5.5128,5.588,5.6519,5.7482,5.8329,5.8798,5.9163,5.9279,5.895,5.9178,5.9613,6.0241,6.0615,6.1042,6.1667,6.2135,6.271,6.3389,6.3865,6.4377,6.4985,6.548,6.5757,6.5757,6.6636,6.6853,6.6543,6.7189,6.7275,6.6975,6.7576,6.7835,6.7835,6.7956,6.7958,6.7921,6.6893,6.6508,6.6313,6.4493,6.3677,6.3503,0.0,0.0,0.0,0.0,0.0,0.0,0.0,0.0,0.0,0.0,0.0,0.0,0.0,0.0,0.0,0.0,0.0,0.0,0.0,4.0802,4.2865,4.581,4.7498,4.8746,4.9627,5.1206,5.205,5.205,5.2821,5.3225,0.0,0.0,0.0,0.0,0.0,0.0,0.0,0.0,0.0,0.0,0.0,0.0,5.1903,5.1132,4.9566,4.7772,4.7708,0.0,0.0,0.0,4.4635,4.4801,4.5696,4.5978,0.0,4.5427,4.5093,0.0,0.0,0.0,5.0427,5.1634,5.3089,5.4262,5.4634,5.4688,5.4797,5.5265,5.5365,5.5224,5.4855,5.479,5.4784,5.4767,5.5517,5.6505,5.769,5.8241,5.8825,5.9639,5.9782,5.9772,0.0,5.9739,6.0279,6.1488,6.1564,6.2102,6.3372,6.3892,6.4305,6.4737,6.5112,6.5375,6.5413,6.6254,6.6674,6.6674,6.7477,6.7859,6.7859,6.7897,6.7897,6.7904,6.8744,6.9158,6.9164,6.9547,6.9702,6.9588,6.832,6.7851,6.7739,6.68,6.5923,6.5228,0.0,0.0,0.0,0.0,0.0,0.0,0.0,0.0,0.0,0.0,0.0,0.0,0.0,0.0,0.0,0.0,0.0,0.0,0.0,3.9764,4.1616,4.3749,4.5659,4.7095,4.7939,4.9554,5.0398,5.0398,5.1206,5.161,5.161,5.161,5.161,0.0,0.0,0.0,0.0,0.0,0.0,0.0,0.0,0.0,5.0254,4.9157,4.7979,4.6765,0.0,0.0,0.0,0.0,4.377,4.4459,4.558,0.0,0.0,4.5953,4.6465,4.7434,4.8653,0.0,5.2094,5.3505,5.4237,5.4731,5.5093,5.5185,5.5231,5.5363,5.5033,5.4728,5.4549,5.4535,5.4531,5.4542,5.6082,5.7461,5.7843,5.8967,5.9855,6.0159,6.0197,0.0,0.0,0.0,0.0,6.1593,6.2662,6.3512,6.3962,6.4627,6.5047,6.5182,6.5887,6.6254,6.6254,6.7095,6.7515,6.7515,6.8356,6.9043,6.9578,6.9578,6.9578,6.9578,6.9884,6.9999,7.0037,7.0133,7.0179,7.0106,6.9437,6.9168,6.9091,6.8466,6.8091,6.7626,0.0,0.0,0.0,0.0,0.0,0.0,0.0,0.0,0.0,0.0,0.0,0.0,0.0,0.0,0.0,0.0,0.0,0.0,0.0,0.0,4.0014,4.1557,4.3199,4.4337,4.4856,4.6783,4.7752,4.7794,4.9344,5.0115,5.0138,5.0618,5.0802,5.0802,5.0798,5.0798,0.0,0.0,0.0,0.0,0.0,0.0,4.817,4.7049,4.6021,0.0,0.0,0.0,0.0,0.0,0.0,0.0,4.5166,4.5924,4.6485,4.6818,4.7628,4.8825,5.0559,5.1834,5.3044,5.4465,5.4912,5.508,5.5363,5.5403,5.5403,5.5403,5.488,5.4397,5.4397,5.4388,5.4326,5.4078,5.5999,5.755,5.7527,5.9,6.0137,6.036,6.0408,6.0485,0.0,0.0,0.0,6.2051,6.3388,6.4305,6.4611,6.5108,6.5528,6.5834,6.6407,6.6827,6.7133,6.7935,6.8508,6.8814,6.9349,6.9884,7.0419,7.0419,7.0419,7.0419,7.0419,7.0419,7.0419,7.0419,7.0419,7.0348,7.0109,7.0038,7.0001,6.9663,6.9546,6.9355,0.0,0.0,0.0,0.0,0.0,0.0,0.0,0.0,0.0,0.0,0.0,0.0,0.0,0.0,0.0,0.0,0.0,0.0,0.0,0.0,0.0,3.9354,4.0259,4.0712,4.0712,4.3089,4.4325,4.4289,4.7197,4.86,4.8634,4.9887,5.0478,5.0478,5.0512,5.0475,5.0478,5.0483,4.9786,4.8621,0.0,0.0,4.5726,4.4919,0.0,0.0,0.0,0.0,0.0,0.0,0.0,0.0,0.0,4.5629,4.6591,4.8075,4.8631,4.9291,5.1846,5.2872,5.3492,5.4546,5.511,5.5403,5.5403,5.5403,5.5403,5.5365,5.4842,5.4346,0.0,0.0,5.4133,5.3479,5.5393,5.695,5.6933,5.8385,5.9706,0.0,0.0,0.0,0.0,0.0,0.0,6.2968,0.0,6.4573,6.5375,6.5452,6.5834,6.6674,6.6789,6.7209,6.7935,6.8814,6.9655,7.0419,7.0419,7.0419,7.0419,7.0419,7.0419,7.0419,7.0419,7.0419,7.0419,7.0419,7.0419,7.0495,7.0495,7.0495,7.0533,7.0533,7.0533,7.0396,0.0,0.0,0.0,0.0,0.0,0.0,0.0,0.0,0.0,0.0,0.0,0.0,0.0,0.0,0.0,0.0,0.0,0.0,0.0,0.0,0.0,0.0,0.0,0.0,0.0,0.0,0.0,0.0,0.0,4.4729,4.4731,4.5717,4.6186,0.0,4.6158,4.6224,4.6242,4.6242,4.6048,4.5748,0.0,4.5276,4.4881,0.0,0.0,0.0,0.0,0.0,0.0,0.0,0.0,0.0,0.0,4.8741,4.9219,4.9643,5.0721,5.2008,5.274,5.3841,5.4863,5.5161,5.5326,5.5403,5.5403,5.5403,5.5288,5.4766,5.4129,5.3481,0.0,0.0,0.0,5.3442,5.5781,0.0,5.7635,5.9083,0.0,6.0398,0.0,6.1363,6.1593,6.2968,0.0,0.0,6.4611,6.5184,6.5375,6.6025,6.6483,6.6713,6.7897,6.8661,6.8852,6.9693,7.019,7.0419,7.0419,7.0419,7.0419,7.0419,7.0419,7.0419,7.0419,7.0419,7.0419,7.0419,7.0801,7.1374,7.1374,7.1756,7.2329,7.2329,7.2329,7.2296,0.0,0.0,0.0,0.0,0.0,0.0,0.0,0.0,0.0,0.0,0.0,0.0,0.0,0.0,0.0,0.0,0.0,0.0,0.0,0.0,0.0,0.0,0.0,0.0,0.0,0.0,0.0,0.0,0.0,0.0,0.0,4.3535,4.4256,4.4583,4.4592,4.463,4.4715,0.0,0.0,0.0,0.0,0.0,0.0,0.0,0.0,0.0,0.0,0.0,0.0,0.0,0.0,4.8102,4.9424,5.0012,5.0363,5.1195,0.0,5.3223,5.3937,5.4725,5.5403,5.5403,5.5403,5.5326,5.5033,5.4957,5.4766,5.4129,5.3417,0.0,5.2457,0.0,0.0,0.0,0.0,0.0,5.7464,5.8907,6.02,0.0,6.1325,0.0,6.2662,6.3618,6.4344,0.0,6.5146,6.5566,6.5948,6.6445,6.7056,6.7782,6.8699,6.9387,6.9731,7.019,7.0419,7.0419,7.0419,7.0419,7.0419,7.0419,7.0419,7.0419,0.0,7.0954,7.0992,7.1374,7.1833,7.2253,7.2253,7.2559,7.2979,7.2979,7.2979,7.2979,0.0,0.0,0.0,0.0,0.0,0.0,0.0,0.0,0.0,0.0,0.0,0.0,0.0,0.0,0.0,0.0,0.0,0.0,0.0,0.0,0.0,0.0,0.0,0.0,0.0,0.0,0.0,0.0,0.0,0.0,0.0,0.0,0.0,0.0,0.0,0.0,0.0,0.0,0.0,0.0,0.0,0.0,0.0,0.0,0.0,0.0,0.0,0.0,0.0,0.0,5.0035,5.0069,5.06,5.0772,5.1116,5.2786,5.3327,5.3716,5.5033,5.5403,5.5403,5.5403,5.5403,5.525,5.4549,5.4417,5.4188,5.3398,0.0,5.2381,5.2281,5.2923,5.3298,5.2794,0.0,5.7084,5.7205,5.855,6.005,6.1458,6.1707,6.2395,6.4038,6.4305,6.4688,6.549,6.5566,6.591,6.6674,6.6904,6.7744,6.9311,6.9349,6.9693,7.0381,7.0419,7.0419,7.0419,7.0419,7.0419,7.0419,7.0533,7.0572,7.061,7.1489,0.0,7.1909,7.2673,7.3055,7.317,7.317,7.3208,7.3323,7.3323,7.3323,7.3323,0.0,0.0,0.0,0.0,0.0,0.0,0.0,0.0,0.0,0.0,3.0199,0.0,0.0,0.0,0.0,0.0,0.0,0.0,0.0,0.0,0.0,0.0,0.0,0.0,0.0,0.0,0.0,0.0,0.0,0.0,0.0,0.0,0.0,0.0,0.0,0.0,0.0,0.0,0.0,0.0,0.0,0.0,0.0,0.0,0.0,0.0,0.0,0.0,0.0,0.0,5.0465,5.2161,5.3256,5.3767,5.4078,5.441,5.4737,5.5071,5.5326,5.5403,5.5403,5.5403,5.5403,5.525,5.4549,5.4381,0.0,0.0,5.2492,5.2224,5.1687,5.2726,5.3805,5.4219,0.0,0.0,0.0,0.0,6.0556,0.0,0.0,0.0,0.0,0.0,0.0,0.0,0.0,6.656,6.6713,6.8012,6.9196,7.0151,7.019,7.0266,7.0419,7.0419,7.0419,7.0419,7.0419,7.0419,7.0419,7.1145,7.145,7.1527,7.2406,0.0,7.2788,7.2941,7.3399,7.401,7.401,7.4431,7.5042,7.5042,7.5042,7.5042,0.0,0.0,0.0,0.0,0.0,0.0,0.0,0.0,0.0,0.0,3.0185,3.0199,0.0,0.0,0.0,0.0,0.0,0.0,0.0,0.0,0.0,0.0,0.0,0.0,0.0,0.0,0.0,0.0,0.0,0.0,0.0,0.0,0.0,0.0,0.0,0.0,0.0,0.0,0.0,0.0,0.0,0.0,0.0,0.0,0.0,0.0,0.0,0.0,0.0,0.0,5.0596,5.3019,5.4178,5.4658,5.4855,5.5026,5.526,5.5403,5.5403,5.5403,5.5403,5.5403,5.5403,5.511,5.4129,0.0,0.0,0.0,5.1875,5.1796,5.1478,0.0,0.0,0.0,0.0,0.0,0.0,0.0,0.0,0.0,0.0,0.0,0.0,0.0,0.0,0.0,0.0,6.8012,6.8012,6.9158,6.9999,7.0381,7.0419,7.0419,7.0419,7.0419,7.0419,7.0419,7.0419,7.0648,7.1107,7.1489,7.1947,7.2406,7.3246,0.0,7.3667,7.4087,7.4507,7.4889,7.4889,7.5119,7.5501,7.5501,7.5501,7.5501,0.0,0.0,0.0,0.0,0.0,0.0,0.0,3.0185,3.0185,3.0185,3.0199,3.0199,3.0199,3.0213,3.0786,0.0,0.0,0.0,0.0,0.0,0.0,0.0,0.0,0.0,0.0,0.0,0.0,0.0,0.0,0.0,0.0,0.0,0.0,0.0,0.0,0.0,0.0,0.0,0.0,0.0,0.0,0.0,0.0,0.0,0.0,0.0,0.0,0.0,0.0,0.0,5.0028,5.2351,5.3545,5.4196,5.4479,5.4814,5.4905,5.4981,5.5288,5.5403,5.5403,5.5403,5.5403,5.5033,5.3722,5.3404,0.0,0.0,5.1406,5.1405,5.1382,0.0,0.0,0.0,0.0,0.0,0.0,0.0,0.0,0.0,0.0,0.0,0.0,0.0,0.0,0.0,0.0,0.0,6.9464,7.0075,7.0419,7.0419,7.0419,7.0419,7.0419,7.0419,7.0419,7.0419,7.061,7.103,7.1718,7.2062,7.2597,7.3284,7.4125,0.0,0.0,7.5233,7.5501,7.5501,7.5501,7.5501,7.5501,7.5501,7.5501,7.5501,0.0,0.0,0.0,0.0,0.0,0.0,0.0,3.0185,3.0185,3.0185,3.0213,3.0188,3.0188,3.0199,3.0567,0.0,0.0,0.0,0.0,0.0,0.0,0.0,0.0,0.0,0.0,0.0,0.0,0.0,0.0,0.0,0.0,0.0,0.0,0.0,0.0,0.0,0.0,0.0,0.0,0.0,0.0,0.0,0.0,0.0,0.0,0.0,0.0,0.0,0.0,0.0,0.0,4.9276,5.0713,5.2121,5.3265,5.3301,0.0,0.0,5.502,5.5403,5.5403,5.5403,5.5403,5.5033,5.3722,0.0,0.0,5.168,5.1406,5.1405,5.1382,0.0,0.0,0.0,0.0,5.7975,0.0,0.0,0.0,0.0,0.0,0.0,0.0,0.0,0.0,0.0,0.0,0.0,7.0304,7.0381,7.0419,7.0419,7.0419,7.0419,7.0419,7.0419,7.0419,7.0419,7.1183,7.1603,7.1756,7.3284,7.401,7.4125,7.5004,0.0,0.0,7.5462,7.5501,7.5501,7.5501,7.5501,7.5501,7.5501,7.5501,7.5501,0.0,0.0,0.0,0.0,0.0,0.0,0.0,3.0185,3.0185,3.0185,3.0199,3.0199,3.0199,3.0199,3.0543,0.0,0.0,0.0,0.0,0.0,0.0,0.0,0.0,0.0,0.0,0.0,0.0,0.0,0.0,0.0,0.0,0.0,0.0,0.0,0.0,3.8276,0.0,0.0,0.0,0.0,0.0,0.0,0.0,0.0,0.0,0.0,0.0,0.0,0.0,0.0,0.0,0.0,4.8217,4.9122,0.0,0.0,5.3107,5.3451,5.4981,5.5403,5.5403,5.5403,5.511,5.4549,5.3608,0.0,5.2537,5.1592,5.1406,5.1406,5.1402,5.2833,0.0,0.0,0.0,0.0,5.8195,0.0,0.0,0.0,0.0,0.0,0.0,0.0,0.0,0.0,0.0,0.0,7.0419,7.0419,7.0419,7.0419,7.0419,7.0419,7.0419,7.0419,7.0648,7.1183,7.1527,7.2215,7.3246,7.3896,7.4507,7.5004,7.5348,0.0,0.0,7.5501,7.5501,7.5501,7.5501,7.5501,7.5501,7.5501,7.5501,7.5501,0.0,0.0,0.0,0.0,0.0,0.0,3.0185,3.0185,3.0185,3.0185,3.0199,3.0199,3.0199,3.0213,3.0494,3.1096,0.0,0.0,0.0,0.0,0.0,0.0,0.0,0.0,0.0,0.0,0.0,0.0,0.0,0.0,0.0,0.0,3.7597,3.763,0.0,0.0,0.0,0.0,0.0,0.0,0.0,0.0,0.0,0.0,0.0,0.0,0.0,0.0,0.0,0.0,0.0,0.0,0.0,0.0,0.0,0.0,5.2064,5.2762,5.4293,5.5033,5.5403,5.5403,5.4919,5.4216,0.0,0.0,5.2221,5.155,5.1406,5.1406,5.1406,5.2609,5.3686,0.0,0.0,5.6985,5.7438,5.8481,0.0,0.0,0.0,0.0,0.0,0.0,0.0,0.0,0.0,0.0,7.0419,7.0419,7.0419,7.0419,7.0419,7.0419,7.0419,7.0648,7.1107,7.1718,7.2176,7.3055,7.4201,7.4469,7.4927,7.5501,7.5501,0.0,0.0,7.5501,7.5501,7.5501,7.5501,7.5501,7.5501,7.5501,7.5501,7.5501,0.0,0.0,0.0,0.0,0.0,0.0,0.0,3.0185,3.0185,3.0185,3.0213,3.0188,3.0188,3.0266,3.0292,3.0331,0.0,0.0,0.0,0.0,0.0,0.0,0.0,0.0,0.0,0.0,0.0,0.0,0.0,0.0,0.0,0.0,0.0,3.5818,0.0,0.0,0.0,0.0,0.0,0.0,0.0,0.0,3.9883,0.0,0.0,0.0,0.0,0.0,0.0,0.0,0.0,0.0,0.0,4.63,0.0,0.0,4.9625,5.1183,5.2724,5.4244,5.5403,5.5403,5.4919,5.4199,0.0,0.0,5.2226,5.1523,5.1406,5.1406,5.1406,5.2107,5.2995,5.3877,5.4732,5.5812,5.7288,5.8254,0.0,0.0,0.0,0.0,0.0,0.0,0.0,0.0,0.0,0.0,7.0419,7.0419,7.0419,7.0419,7.0419,7.0419,7.0419,7.1259,7.168,7.1718,7.3399,7.4201,7.424,7.508,7.5462,0.0,0.0,0.0,0.0,7.5501,7.5501,7.5501,7.5501,7.5501,7.5501,7.5501,7.5501,7.5501,0.0,0.0,0.0,0.0,0.0,0.0,0.0,3.0185,3.0185,3.0185,3.0199,3.0199,3.0199,3.0213,3.0226,3.0226,0.0,0.0,0.0,0.0,0.0,0.0,0.0,0.0,0.0,0.0,0.0,0.0,0.0,0.0,0.0,0.0,0.0,0.0,0.0,0.0,0.0,0.0,0.0,0.0,0.0,3.8233,3.9062,0.0,0.0,0.0,0.0,0.0,0.0,0.0,0.0,0.0,0.0,0.0,0.0,4.686,4.8063,4.9547,5.1095,5.2324,5.311,5.3128,5.3075,5.297,5.2752,0.0,5.1641,5.1445,5.1406,5.1562,5.2187,5.3005,5.3854,5.4736,5.563,5.6341,5.6827,0.0,0.0,0.0,0.0,0.0,0.0,0.0,0.0,0.0,0.0,0.0,7.0419,7.0419,7.0419,7.0419,7.0419,7.0419,7.0419,7.1259,7.1985,7.2597,7.3667,7.4507,7.508,7.5348,7.5501,0.0,0.0,0.0,0.0,7.5501,7.5501,7.5501,7.5501,7.5501,7.5501,7.5501,7.5501,7.5501,0.0,0.0,0.0,0.0,0.0,0.0,0.0,3.0199,3.0185,3.0185,3.0185,3.0185,3.0185,3.0185,3.0199,3.0199,0.0,0.0,0.0,0.0,0.0,0.0,0.0,0.0,0.0,0.0,0.0,0.0,0.0,0.0,0.0,0.0,0.0,0.0,0.0,0.0,0.0,0.0,0.0,0.0,3.7531,3.8258,3.9098,0.0,0.0,0.0,0.0,0.0,0.0,0.0,0.0,0.0,0.0,0.0,0.0,0.0,4.6933,4.7993,0.0,5.0974,5.2107,5.2082,5.226,0.0,0.0,0.0,5.1406,5.1406,5.1406,5.1679,5.2534,5.3156,5.3893,5.5088,5.5747,5.6305,5.687,0.0,0.0,0.0,0.0,0.0,0.0,0.0,0.0,0.0,0.0,0.0,7.0419,7.0419,7.0419,7.0419,7.0419,7.0419,7.0419,7.1603,7.2444,7.3017,7.4163,7.4966,7.5501,7.5501,7.5501,0.0,0.0,0.0,0.0,7.5501,7.5501,7.5501,7.5501,7.5501,7.5501,7.5501,7.5501,7.5501,0.0,0.0,0.0,0.0,0.0,0.0,0.0,0.0,0.0,0.0,3.0185,3.0185,3.0185,3.0185,3.0199,0.0,0.0,0.0,0.0,0.0,0.0,0.0,0.0,0.0,0.0,0.0,0.0,3.5626,3.5679,3.5708,3.5688,0.0,0.0,0.0,0.0,0.0,0.0,0.0,0.0,0.0,3.8588,3.9068,0.0,0.0,0.0,0.0,0.0,0.0,0.0,0.0,0.0,0.0,0.0,0.0,0.0,0.0,0.0,0.0,0.0,5.0082,0.0,0.0,0.0,0.0,0.0,0.0,0.0,0.0,5.1406,5.1678,5.2628,5.2791,5.3344,5.5123,5.5396,5.5888,5.7288,5.9061,0.0,0.0,0.0,0.0,0.0,0.0,0.0,0.0,0.0,0.0,7.0419,7.0419,7.0419,7.0419,7.0419,7.0419,7.0419,7.2138,7.2979,7.3017,7.4698,7.5501,7.5501,7.5501,7.5501,0.0,0.0,0.0,0.0,7.5501,7.5501,7.5501,7.5501,7.5501,7.5501,7.5501,7.5501,7.5501,0.0,0.0,0.0,0.0,0.0,0.0,0.0,0.0,0.0,0.0,3.0185,3.0185,3.0185,3.0185,3.0185,0.0,0.0,0.0,0.0,0.0,0.0,0.0,0.0,0.0,0.0,0.0,0.0,3.5665,3.5707,3.5699,3.5708,3.5775,0.0,0.0,0.0,0.0,0.0,0.0,0.0,0.0,3.9213,3.9603,0.0,0.0,0.0,0.0,4.1327,4.2378,0.0,0.0,0.0,0.0,0.0,0.0,0.0,0.0,4.6768,4.7233,4.6904,0.0,4.958,4.9568,5.0598,5.1637,0.0,0.0,0.0,0.0,0.0,5.1873,5.3409,5.3678,5.4268,5.602,5.6294,5.6591,5.7405,0.0,0.0,0.0,0.0,0.0,0.0,0.0,0.0,0.0,0.0,7.0419,7.0419,7.0419,7.0419,7.0419,7.0419,7.0419,7.0419,7.2138,7.2979,7.3017,7.4698,7.5501,7.5501,7.5501,7.5501,0.0,0.0,0.0,7.5501,7.5501,7.5501,7.5501,7.5501,7.5501,7.5501,7.5501,7.5501,7.5501,0.0,0.0,0.0,0.0,0.0,0.0,0.0,0.0,0.0,0.0,0.0,0.0,0.0,0.0,0.0,0.0,0.0,0.0,0.0,0.0,0.0,0.0,0.0,0.0,0.0,0.0,0.0,0.0,0.0,3.5718,0.0,0.0,0.0,0.0,0.0,0.0,0.0,0.0,0.0,3.909,3.9619,0.0,0.0,0.0,0.0,0.0,4.1087,4.222,0.0,4.369,4.4855,4.63,0.0,0.0,0.0,0.0,4.6612,4.6885,4.6417,4.751,4.8798,4.8798,5.01,5.1398,0.0,0.0,0.0,0.0,0.0,0.0,5.3698,0.0,5.4918,5.6383,5.7109,5.7859,0.0,0.0,0.0,0.0,0.0,0.0,0.0,0.0,0.0,0.0,0.0,7.0419,7.0419,7.0419,7.0419,7.0419,7.0419,7.0419,7.0419,7.2138,7.2979,7.3017,7.4698,7.5501,7.5501,7.5501,7.5501,0.0,0.0,0.0,7.5501,7.5501,7.5501,7.5501,7.5501,7.5501,7.5501,7.5501,7.5501,7.5501,0.0,0.0,0.0,0.0,0.0,0.0,0.0,0.0,0.0,0.0,0.0,0.0,0.0,0.0,0.0,0.0,0.0,0.0,0.0,0.0,0.0,0.0,0.0,0.0,0.0,0.0,0.0,0.0,0.0,0.0,0.0,0.0,3.6135,0.0,0.0,0.0,0.0,0.0,3.9108,3.9916,3.9974,0.0,0.0,0.0,0.0,0.0,0.0,0.0,0.0,4.3696,4.4859,4.63,4.63,0.0,0.0,0.0,0.0,0.0,4.6495,4.7697,4.8938,4.8833,5.0008,5.1229,0.0,0.0,0.0,0.0,0.0,0.0,0.0,0.0,0.0,0.0,0.0,0.0,0.0,0.0,0.0,0.0,0.0,0.0,0.0,0.0,0.0,0.0,0.0,7.0419,7.0419,7.0419,7.0419,7.0419,7.0419,7.0419,7.0419,7.2138,7.2979,7.3017,7.4698,7.5501,7.5501,7.5501,7.5501,7.5501,0.0,0.0,7.5501,7.5501,7.5501,7.5501,7.5501,7.5501,7.5501,7.5501,7.5501,7.5501,0.0,0.0,0.0,0.0,0.0,0.0,0.0,0.0,0.0,0.0,0.0,0.0,0.0,0.0,0.0,0.0,0.0,0.0,0.0,0.0,0.0,0.0,0.0,0.0,0.0,0.0,0.0,0.0,0.0,0.0,3.5687,3.5757,3.584,0.0,0.0,0.0,0.0,3.9207,3.998,4.0811,4.0797,0.0,0.0,0.0,0.0,0.0,0.0,0.0,0.0,4.3698,4.4867,4.63,4.63,0.0,0.0,0.0,0.0,0.0,4.7393,4.8496,4.9526,4.9016,4.9618,5.0487,0.0,0.0,0.0,0.0,0.0,0.0,0.0,0.0,0.0,0.0,0.0,0.0,0.0,0.0,0.0,0.0,0.0,0.0,0.0,0.0,0.0,0.0,0.0,7.0419,7.0419,7.0419,7.0419,7.0419,7.0419,7.0419,7.0419,7.2138,7.2979,7.3017,7.4698,7.5501,7.5501,7.5501,7.5501,7.5501,0.0,7.5501,7.5501,7.5501,7.5501,7.5501,7.5501,7.5501,7.5501,7.5501,7.5501,7.5501,0.0,0.0,0.0,0.0,0.0,0.0,0.0,0.0,0.0,0.0,0.0,0.0,0.0,0.0,0.0,0.0,0.0,0.0,0.0,0.0,0.0,0.0,0.0,0.0,0.0,0.0,0.0,0.0,0.0,3.5212,3.5704,3.5775,3.5818,3.5857,0.0,0.0,0.0,3.8633,3.9505,4.0315,0.0,0.0,0.0,0.0,0.0,0.0,0.0,0.0,0.0,0.0,4.4862,4.63,4.63,0.0,0.0,0.0,0.0,0.0,4.7588,4.8415,4.9403,4.9953,5.0996,5.1974,0.0,0.0,0.0,0.0,0.0,0.0,0.0,0.0,0.0,0.0,0.0,0.0,0.0,0.0,0.0,0.0,0.0,0.0,0.0,0.0,0.0,0.0,0.0,0.0,7.0419,7.0419,7.0419,7.0419,7.0419,7.0419,7.0419,7.2138,7.2979,7.3017,7.4698,7.5501,7.5501,7.5501,7.5501,7.5501,0.0,7.5501,7.5501,7.5501,7.5501,7.5501,7.5501,7.5501,7.5501,7.5501,7.5501,7.5501,0.0,0.0,0.0,0.0,0.0,0.0,0.0,0.0,0.0,0.0,0.0,0.0,0.0,0.0,0.0,0.0,0.0,0.0,0.0,0.0,0.0,0.0,0.0,0.0,0.0,0.0,3.4673,3.5588,3.4715,3.4775,3.5707,3.5784,3.5896,0.0,0.0,0.0,0.0,3.8649,3.9396,3.9988,0.0,0.0,0.0,0.0,0.0,0.0,0.0,0.0,0.0,0.0,0.0,0.0,0.0,0.0,0.0,4.63,4.6924,4.7627,4.7822,4.8591,4.9666,0.0,0.0,0.0,0.0,0.0,0.0,0.0,0.0,0.0,0.0,0.0,0.0,0.0,0.0,0.0,0.0,0.0,0.0,0.0,0.0,0.0,0.0,0.0,0.0,0.0,0.0,0.0,7.0419,7.0419,7.0419,7.0419,7.0419,7.0419,7.0419,7.1947,7.2788,7.3017,7.4698,7.5501,7.5501,7.5501,7.5501,7.5501,7.5501,7.5501,7.5501,7.5501,7.5501,7.5501,7.5501,7.5501,7.5501,7.5501,7.5501,7.5501,0.0,0.0,0.0,0.0,0.0,0.0,0.0,0.0,0.0,0.0,0.0,0.0,0.0,0.0,0.0,0.0,0.0,0.0,0.0,0.0,0.0,0.0,0.0,0.0,0.0,3.4597,3.4673,3.5588,3.4715,3.4768,3.5685,3.5771,3.6246,3.7031,0.0,0.0,0.0,4.0446,4.0852,4.0921,4.0906,0.0,0.0,0.0,0.0,0.0,0.0,0.0,0.0,0.0,0.0,0.0,0.0,0.0,4.63,4.63,4.6924,4.7744,4.8525,4.9802,0.0,0.0,0.0,0.0,0.0,0.0,0.0,0.0,0.0,0.0,0.0,0.0,0.0,0.0,0.0,0.0,0.0,0.0,0.0,0.0,0.0,0.0,0.0,0.0,0.0,0.0,0.0,0.0,7.0419,7.0419,7.0419,7.0419,7.0419,7.0419,7.0419,7.1336,7.2176,7.3017,7.4698,7.5501,7.5501,7.5501,7.5501,7.5501,7.5501,7.5501,7.5501,7.5501,7.5501,7.5501,7.5501,7.5501,7.5501,7.5501,7.5501,7.5501,0.0,0.0,0.0,0.0,0.0,0.0,0.0,0.0,0.0,0.0,0.0,0.0,0.0,0.0,0.0,0.0,0.0,0.0,0.0,0.0,0.0,0.0,0.0,3.321,3.4584,3.4339,3.4404,3.4781,3.5074,3.5369,3.5693,3.5754,0.0,0.0,0.0,0.0,0.0,0.0,4.0999,4.0991,4.1013,4.1026,0.0,0.0,0.0,0.0,0.0,0.0,0.0,0.0,4.5324,4.63,4.63,4.63,4.63,4.63,4.7276,4.8408,4.872,5.0303,0.0,0.0,0.0,0.0,0.0,0.0,0.0,0.0,0.0,0.0,0.0,0.0,0.0,0.0,0.0,0.0,0.0,0.0,0.0,0.0,0.0,0.0,0.0,0.0,0.0,0.0,0.0,0.0,7.0419,7.0419,7.0419,7.0419,7.0419,7.0419,7.0419,7.1259,7.2138,7.3017,7.4163,7.4966,7.5501,7.5501,7.5501,7.5501,7.5501,7.5501,7.5501,7.5501,7.5501,7.5501,7.5501,7.5501,7.5501,7.5501,7.5501,7.5501,0.0,0.0,0.0,0.0,0.0,0.0,0.0,0.0,0.0,0.0,0.0,0.0,0.0,0.0,0.0,0.0,0.0,0.0,0.0,0.0,0.0,0.0,0.0,3.2941,3.4134,3.4455,3.4661,3.4708,3.5383,3.5679,3.5706,0.0,0.0,0.0,0.0,0.0,0.0,0.0,4.1007,4.1038,4.0994,4.1017,0.0,0.0,0.0,0.0,0.0,0.0,0.0,0.0,4.5597,4.63,4.63,4.63,4.63,4.63,4.7654,4.9118,4.9118,5.0711,5.2427,5.2658,0.0,0.0,0.0,0.0,0.0,0.0,0.0,0.0,0.0,0.0,0.0,0.0,0.0,0.0,0.0,0.0,0.0,0.0,0.0,0.0,0.0,0.0,0.0,0.0,0.0,0.0,0.0,7.0419,7.0419,7.0419,7.0419,7.0419,7.0419,7.0992,7.1871,7.3017,7.3552,7.4393,7.5501,7.5501,7.5501,7.5501,7.5501,7.5501,7.5501,7.5501,7.5501,7.5501,7.5501,7.5501,7.5501,7.5501,7.5501,7.5501,0.0,0.0,0.0,0.0,0.0,0.0,0.0,0.0,0.0,0.0,0.0,0.0,0.0,0.0,0.0,0.0,0.0,0.0,0.0,0.0,0.0,0.0,0.0,3.4134,3.4199,3.5046,3.5547,3.5623,3.5676,3.5679,3.5718,3.6658,0.0,0.0,0.0,0.0,0.0,0.0,4.1038,4.111,4.1033,4.1028,4.1108,0.0,0.0,0.0,0.0,0.0,0.0,0.0,4.5597,4.63,4.63,4.63,4.63,4.63,4.7963,4.9789,4.9789,5.1074,5.2562,5.3208,0.0,0.0,0.0,0.0,0.0,0.0,0.0,0.0,0.0,0.0,0.0,0.0,0.0,0.0,0.0,0.0,0.0,0.0,0.0,0.0,0.0,0.0,0.0,0.0,0.0,0.0,0.0,7.0419,7.0419,7.0419,7.0419,7.0419,7.0419,7.0419,7.1259,7.2979,7.2979,7.3858,7.5501,7.5501,7.5501,7.5501,7.5501,7.5501,7.5501,7.5501,7.5501,7.5501,7.5501,7.5501,7.5501,7.5501,7.5501,7.5501,0.0,0.0,0.0,0.0,0.0,0.0,0.0,0.0,0.0,0.0,0.0,0.0,0.0,0.0,0.0,0.0,0.0,0.0,0.0,0.0,0.0,0.0,0.0,0.0,0.0,0.0,3.556,3.5608,3.5665,3.5687,0.0,0.0,0.0,3.8412,0.0,0.0,0.0,0.0,4.1059,4.1033,4.1071,4.1084,4.1106,0.0,0.0,0.0,0.0,0.0,0.0,0.0,0.0,0.0,4.7002,4.6807,4.6417,4.7042,4.8123,4.9235,4.9859,5.1502,0.0,0.0,0.0,0.0,0.0,0.0,0.0,0.0,0.0,0.0,0.0,0.0,0.0,0.0,0.0,0.0,0.0,0.0,0.0,0.0,0.0,0.0,0.0,0.0,0.0,0.0,0.0,0.0,0.0,7.0419,7.0419,7.0419,7.0419,7.0419,7.0419,7.0419,7.0992,7.21,7.2711,7.3858,7.5501,7.5501,7.5501,7.5501,7.5501,7.5501,7.5501,7.5501,7.5501,7.5501,7.5501,7.5501,7.5501,7.5501,7.5501,7.5501,0.0,0.0,0.0,0.0,0.0,0.0,0.0,0.0,0.0,0.0,0.0,0.0,0.0,0.0,0.0,0.0,0.0,0.0,0.0,0.0,0.0,0.0,0.0,0.0,0.0,3.5277,3.5596,0.0,0.0,0.0,0.0,0.0,0.0,3.8908,0.0,4.0516,0.0,0.0,4.1033,4.1033,4.1071,4.1305,4.1629,0.0,0.0,0.0,0.0,0.0,0.0,0.0,0.0,0.0,4.6924,4.6963,4.696,4.7747,4.8794,4.9952,5.0987,0.0,0.0,0.0,0.0,0.0,0.0,0.0,0.0,0.0,0.0,0.0,0.0,0.0,0.0,0.0,0.0,0.0,0.0,0.0,0.0,0.0,0.0,0.0,0.0,0.0,0.0,0.0,0.0,0.0,0.0,7.0419,7.0419,7.0419,7.0419,7.0419,7.0419,7.0419,7.0839,7.1718,7.2559,7.3705,7.5004,7.5348,7.5501,7.5501,7.5501,7.5501,7.5501,7.5501,7.5501,7.5501,7.5501,7.5501,7.5501,7.5501,7.5501,7.5501,0.0,0.0,0.0,0.0,0.0,0.0,0.0,0.0,0.0,0.0,0.0,0.0,0.0,0.0,0.0,0.0,0.0,0.0,0.0,0.0,0.0,0.0,0.0,0.0,0.0,0.0,0.0,0.0,0.0,0.0,0.0,0.0,3.8772,3.9646,0.0,4.0999,0.0,4.0994,4.1033,4.111,4.1188,4.1701,4.2393,4.2495,0.0,0.0,0.0,0.0,0.0,0.0,0.0,0.0,4.6495,4.7002,4.7732,4.8429,4.9819,5.1381,0.0,0.0,0.0,0.0,0.0,0.0,0.0,0.0,0.0,0.0,0.0,0.0,0.0,0.0,0.0,0.0,0.0,0.0,0.0,0.0,0.0,0.0,0.0,0.0,0.0,0.0,0.0,0.0,0.0,0.0,0.0,7.0419,7.0419,7.0419,7.0419,7.0419,7.0419,7.0419,7.0801,7.1565,7.2559,7.3399,7.4125,7.508,7.5501,7.5501,7.5501,7.5501,7.5501,7.5501,7.5501,7.5501,7.5501,7.5501,7.5501,7.5501,7.5501,7.5501,0.0,0.0,0.0,0.0,0.0,0.0,0.0,0.0,0.0,0.0,0.0,0.0,0.0,0.0,0.0,0.0,0.0,0.0,0.0,0.0,0.0,0.0,0.0,0.0,0.0,0.0,0.0,0.0,0.0,0.0,0.0,0.0,0.0,3.9733,0.0,4.0999,4.0994,4.1071,4.111,4.1149,4.1851,4.2217,4.2457,4.3164,4.3945,0.0,0.0,0.0,0.0,0.0,0.0,0.0,4.7861,4.7978,4.79,4.9328,5.0402,5.1293,0.0,0.0,0.0,0.0,0.0,0.0,0.0,0.0,0.0,0.0,0.0,0.0,0.0,0.0,0.0,0.0,0.0,0.0,0.0,0.0,0.0,0.0,0.0,0.0,0.0,0.0,0.0,0.0,0.0,0.0,7.0419,7.0419,7.0419,7.0419,7.0419,7.0419,7.0419,7.0419,7.0495,0.0,7.2253,7.3093,7.3323,7.4813,7.5501,7.5501,7.5501,7.5501,7.5501,7.5501,7.5501,7.5501,7.5501,7.5501,7.5501,7.5501,7.5501,7.5501,0.0,0.0,0.0,0.0,0.0,0.0,0.0,0.0,0.0,0.0,0.0,0.0,0.0,0.0,0.0,0.0,0.0,0.0,0.0,0.0,0.0,0.0,0.0,0.0,0.0,0.0,0.0,0.0,0.0,0.0,0.0,0.0,0.0,4.0354,0.0,4.1621,4.1656,4.2124,4.2325,4.237,4.285,4.3505,4.4258,4.4297,4.5117,4.6172,4.5781,0.0,0.0,0.0,0.0,0.0,0.0,0.0,4.9029,5.0238,5.0897,5.1552,0.0,0.0,0.0,0.0,0.0,0.0,0.0,0.0,0.0,0.0,0.0,0.0,0.0,0.0,0.0,0.0,0.0,0.0,0.0,0.0,0.0,0.0,0.0,0.0,0.0,0.0,0.0,0.0,0.0,7.0419,7.0419,7.0419,7.0419,7.0419,7.0419,7.0419,7.0419,7.0419,7.0419,7.0419,7.2176,7.3399,7.424,7.508,7.5501,7.5501,7.5501,7.5501,7.5501,7.5501,7.5501,7.5501,7.5501,7.5501,7.5501,7.5501,7.5501,7.5501,0.0,0.0,0.0,0.0,0.0,0.0,0.0,0.0,0.0,0.0,0.0,0.0,0.0,0.0,0.0,0.0,0.0,0.0,0.0,0.0,0.0,0.0,0.0,0.0,0.0,0.0,0.0,0.0,0.0,0.0,0.0,0.0,0.0,4.1257,0.0,0.0,4.2559,4.3323,4.3646,4.3729,4.4018,4.4922,4.6016,4.5625,4.625,4.7266,4.6562,4.6406,4.6523,4.6512,0.0,0.0,0.0,0.0,5.0235,5.0945,5.1349,5.1927,0.0,0.0,0.0,0.0,0.0,0.0,0.0,0.0,0.0,0.0,0.0,0.0,0.0,0.0,0.0,0.0,0.0,0.0,0.0,0.0,0.0,0.0,0.0,0.0,0.0,0.0,0.0,0.0,0.0,7.0419,7.0419,7.0419,7.0419,7.0419,7.0419,7.0419,7.0419,7.0419,7.0419,7.0419,7.2176,7.3781,7.5271,7.5424,7.5501,7.5501,7.5501,7.5501,7.5501,7.5501,7.5501,7.5501,7.5501,7.5501,7.5501,7.5501,7.5501,7.5501,0.0,0.0,0.0,0.0,0.0,0.0,0.0,0.0,0.0,0.0,0.0,0.0,0.0,0.0,0.0,0.0,0.0,0.0,0.0,0.0,0.0,0.0,0.0,0.0,0.0,0.0,0.0,0.0,0.0,0.0,0.0,0.0,0.0,0.0,0.0,0.0,0.0,4.3618,4.3709,4.3826,4.5351,4.5625,4.5312,4.6719,4.6914,4.6445,4.6328,4.6797,4.7422,4.7421,4.8,0.0,0.0,0.0,5.0282,5.1093,5.181,0.0,0.0,0.0,0.0,0.0,0.0,0.0,0.0,0.0,0.0,0.0,0.0,0.0,0.0,0.0,0.0,0.0,0.0,0.0,0.0,0.0,0.0,0.0,0.0,0.0,0.0,0.0,0.0,0.0,7.0419,7.0419,7.0419,7.0419,7.0419,7.0419,7.0419,7.0419,7.0419,7.0419,7.0419,7.0419,7.2176,7.3476,7.4393,7.5157,7.5501,7.5501,7.5501,7.5501,7.5501,7.5501,7.5501,7.5501,7.5501,7.5501,7.5501,7.5501,7.5501,7.5501,0.0,0.0,0.0,0.0,0.0,0.0,0.0,0.0,0.0,0.0,0.0,0.0,0.0,0.0,0.0,3.5493,3.5916,3.6363,3.6825,3.7224,0.0,0.0,0.0,0.0,0.0,0.0,0.0,0.0,0.0,0.0,0.0,4.2791,4.3005,0.0,0.0,0.0,0.0,0.0,0.0,4.5234,4.5976,4.6877,4.7727,4.7627,4.8164,4.8867,4.8047,0.0,4.832,4.832,4.8905,4.9682,4.999,0.0,0.0,0.0,0.0,0.0,0.0,0.0,0.0,0.0,0.0,0.0,0.0,0.0,0.0,0.0,0.0,0.0,0.0,0.0,0.0,0.0,0.0,0.0,0.0,0.0,0.0,0.0,0.0,0.0,0.0,0.0,0.0,0.0,7.0419,7.0419,7.0419,7.0419,7.0419,7.0419,7.0419,7.0419,7.0419,7.0419,7.0648,7.1145,7.2406,7.3437,7.424,7.508,7.5501,7.5501,7.5501,7.5501,7.5501,7.5501,7.5501,7.5501,7.5501,7.5501,7.5501,7.5501,7.5501,7.5501,0.0,0.0,0.0,0.0,0.0,0.0,0.0,0.0,0.0,0.0,0.0,0.0,0.0,0.0,0.0,0.0,3.6685,3.73,3.7886,3.8185,0.0,0.0,0.0,0.0,0.0,0.0,0.0,0.0,0.0,0.0,4.3746,4.4411,4.452,0.0,4.4936,0.0,0.0,0.0,0.0,0.0,0.0,4.815,4.9491,4.8938,4.9708,5.0842,4.9569,0.0,0.0,0.0,0.0,0.0,0.0,0.0,0.0,0.0,0.0,0.0,0.0,0.0,0.0,0.0,0.0,0.0,0.0,0.0,0.0,0.0,0.0,0.0,0.0,0.0,0.0,0.0,0.0,0.0,0.0,0.0,0.0,0.0,0.0,0.0,0.0,0.0,0.0,0.0,7.0419,7.0419,7.0419,7.0419,7.0419,7.0419,7.0419,7.0419,7.0419,7.0419,7.0724,7.1374,7.2482,7.3323,7.3934,7.5004,7.5501,7.5501,7.5501,7.5501,7.5501,7.5501,7.5501,7.5501,7.5501,7.5501,7.5501,7.5501,7.5501,7.5501,0.0,0.0,0.0,0.0,0.0,0.0,0.0,0.0,0.0,0.0,0.0,0.0,0.0,3.6716,3.7074,3.7868,3.7935,3.7935,3.7993,3.8747,3.9238,3.9259,0.0,0.0,0.0,0.0,0.0,0.0,0.0,0.0,4.4633,4.4672,4.5131,4.5978,4.6072,4.6133,4.6133,0.0,0.0,0.0,0.0,0.0,0.0,0.0,0.0,0.0,0.0,0.0,0.0,0.0,0.0,0.0,0.0,0.0,0.0,0.0,0.0,0.0,0.0,0.0,0.0,0.0,0.0,0.0,0.0,0.0,0.0,0.0,0.0,0.0,0.0,0.0,0.0,0.0,0.0,0.0,0.0,0.0,0.0,0.0,0.0,0.0,0.0,0.0,0.0,0.0,7.0419,7.0419,7.0419,7.0419,7.0419,7.0419,7.0419,7.0419,7.0419,7.0419,7.0419,7.0495,7.2176,7.3017,7.3132,7.4736,7.5501,7.5501,7.5501,7.5501,7.5501,7.5501,7.5501,7.5501,7.5501,7.5501,7.5501,7.5501,7.5501,7.5501,0.0,0.0,0.0,0.0,0.0,0.0,0.0,0.0,0.0,0.0,0.0,0.0,0.0,3.7629,3.7756,3.8075,3.8537,3.9037,3.9585,3.9946,4.013,4.0149,0.0,0.0,0.0,0.0,0.0,0.0,0.0,4.4626,4.5526,4.5514,4.5725,4.6083,4.6176,4.6544,4.707,4.6518,0.0,0.0,0.0,0.0,0.0,0.0,0.0,0.0,0.0,0.0,0.0,0.0,0.0,0.0,0.0,0.0,0.0,0.0,0.0,0.0,0.0,0.0,0.0,0.0,0.0,0.0,0.0,0.0,0.0,0.0,0.0,0.0,0.0,0.0,0.0,0.0,0.0,0.0,0.0,0.0,0.0,0.0,0.0,0.0,0.0,0.0,0.0,0.0,0.0,7.0419,7.0419,7.0419,7.0419,7.0419,7.0419,7.0419,7.0419,7.0419,7.0419,7.0419,7.1603,7.2444,7.3055,7.4163,7.4966,7.5501,7.5501,7.5501,7.5501,7.5501,7.5501,7.5501,7.5501,7.5501,7.5501,7.5501,7.5501,7.5501,0.0,0.0,0.0,0.0,0.0,0.0,0.0,0.0,0.0,0.0,0.0,0.0,0.0,0.0,3.8645,3.8915,3.9427,4.0106,4.0915,4.1007,4.1176,4.1437,4.2058,0.0,0.0,0.0,0.0,0.0,0.0,0.0,0.0,0.0,4.6484,4.6567,4.6878,0.0,0.0,0.0,0.0,4.8938,0.0,0.0,5.1789,0.0,0.0,0.0,0.0,0.0,0.0,0.0,0.0,0.0,0.0,0.0,0.0,0.0,0.0,0.0,0.0,0.0,0.0,0.0,0.0,5.8239,5.9152,0.0,6.0141,6.0332,6.0828,6.1478,6.2319,6.3197,0.0,0.0,0.0,0.0,0.0,0.0,0.0,0.0,0.0,0.0,0.0,0.0,0.0,0.0,0.0,0.0,7.0381,7.0419,7.0419,7.0419,7.0419,7.0419,7.0419,7.0419,7.0419,7.0419,7.1259,7.2138,7.3017,7.3819,7.466,7.5501,7.5501,7.5501,7.5501,7.5501,7.5501,7.5501,7.5501,7.5501,7.5501,7.5501,7.5501,7.5501,0.0,0.0,0.0,0.0,0.0,0.0,0.0,0.0,0.0,0.0,0.0,0.0,0.0,0.0,0.0,4.0565,4.0668,4.1026,4.1889,4.1952,4.2338,4.3149,4.3217,4.3272,0.0,0.0,0.0,0.0,0.0,0.0,0.0,0.0,4.7369,0.0,4.834,4.8274,4.7569,0.0,4.816,4.9146,0.0,5.1738,5.1408,0.0,0.0,0.0,5.3453,5.3429,0.0,0.0,0.0,0.0,0.0,0.0,0.0,0.0,0.0,0.0,0.0,0.0,0.0,0.0,0.0,0.0,5.9065,0.0,5.9578,6.0255,6.037,6.0637,6.144,6.2319,6.3427,6.5108,6.5375,0.0,0.0,0.0,0.0,0.0,0.0,0.0,0.0,0.0,0.0,0.0,6.9196,6.954,7.0381,7.0419,7.0419,7.0419,7.0419,7.0419,7.0419,7.0419,7.0419,7.0419,7.1259,7.2138,7.3017,7.3819,7.466,7.5501,7.5501,7.5501,7.5501,7.5501,7.5501,7.5501,7.5501,7.5501,7.5501,7.5501,7.5501,7.5501,0.0,0.0,0.0,0.0,0.0,0.0,0.0,0.0,0.0,0.0,0.0,0.0,0.0,0.0,0.0,4.1608,4.2121,4.257,4.2802,4.2872,4.3015,4.3192,4.3892,4.4279,4.4228,0.0,0.0,0.0,0.0,0.0,0.0,0.0,0.0,0.0,4.8671,4.9006,4.9352,4.8772,0.0,0.0,5.1702,5.2365,0.0,0.0,0.0,0.0,0.0,5.3798,0.0,0.0,5.3168,5.1913,0.0,0.0,0.0,0.0,0.0,0.0,5.2617,0.0,0.0,0.0,0.0,0.0,5.7967,5.874,5.9463,5.9654,6.0064,6.0637,6.144,6.2319,6.3274,6.4344,6.5031,6.5413,6.5413,6.5413,0.0,0.0,0.0,0.0,0.0,0.0,0.0,0.0,6.8852,6.954,7.0381,7.0419,7.0419,7.0419,7.0419,7.0419,7.0419,7.0419,7.0419,7.0419,7.0648,7.1565,7.3017,7.3246,7.4125,7.5501,7.5501,7.5501,7.5501,7.5501,7.5501,7.5501,7.5501,7.5501,7.5501,7.5501,7.5501,7.5501,0.0,0.0,0.0,0.0,0.0,0.0,0.0,0.0,0.0,0.0,0.0,0.0,0.0,0.0,0.0,4.2589,4.3015,4.3427,4.3813,4.384,4.3956,4.4264,4.4886,4.5183,4.5144,4.5311,0.0,0.0,0.0,0.0,0.0,0.0,0.0,0.0,0.0,0.0,0.0,0.0,0.0,0.0,5.23,0.0,0.0,5.404,5.4472,0.0,0.0,0.0,5.3913,5.4587,5.3656,0.0,0.0,0.0,0.0,0.0,0.0,0.0,0.0,0.0,0.0,0.0,0.0,0.0,5.7807,5.8503,5.9158,0.0,6.0141,6.0523,6.1019,6.1784,6.2624,6.3503,6.4344,6.5031,6.5337,6.5413,6.5413,6.5413,0.0,0.0,0.0,6.5872,6.6483,6.7324,6.8165,6.9158,7.0342,7.0419,7.0419,7.0419,7.0419,7.0419,7.0419,7.0419,7.0419,7.0419,7.0419,7.1298,7.2979,7.2979,7.3896,7.5501,7.5501,7.5501,7.5501,7.5501,7.5501,7.5501,7.5501,7.5501,7.5501,7.5501,7.5501,7.5501,0.0,0.0,0.0,0.0,0.0,0.0,0.0,0.0,0.0,0.0,0.0,0.0,0.0,0.0,0.0,0.0,4.3629,4.4017,4.4781,4.4821,4.5131,4.5944,4.6022,4.6099,4.6213,4.5498,0.0,0.0,0.0,0.0,0.0,0.0,0.0,0.0,0.0,0.0,0.0,0.0,0.0,5.1609,5.282,5.2986,0.0,0.0,5.4091,0.0,5.432,5.4473,5.4473,5.4995,5.4472,0.0,0.0,0.0,0.0,0.0,5.2969,0.0,0.0,0.0,0.0,0.0,0.0,0.0,5.8013,5.8415,5.8839,5.9979,6.0329,6.0456,6.0456,6.1107,6.1912,6.2602,6.3542,6.4479,6.5299,6.5413,6.5413,6.5413,6.5413,0.0,6.5413,6.5413,6.5757,6.6636,6.7515,6.8699,7.019,7.0342,7.0419,7.0419,7.0419,7.0419,7.0419,7.0419,7.0419,7.0419,7.0419,7.1259,7.2864,7.2941,7.3858,7.5348,7.5462,7.5501,7.5501,7.5501,7.5501,7.5501,7.5501,7.5501,7.5501,7.5501,7.5501,7.5501,4.06,0.0,0.0,0.0,0.0,0.0,0.0,0.0,0.0,0.0,0.0,0.0,0.0,0.0,0.0,0.0,4.5093,4.5548,4.5759,4.5774,4.6173,4.6985,4.7087,4.7436,4.8145,4.7999,4.8085,0.0,0.0,0.0,0.0,0.0,0.0,0.0,0.0,0.0,0.0,0.0,0.0,5.2232,5.251,0.0,5.3277,5.4091,5.4651,5.5033,5.5148,5.488,5.4358,0.0,5.4409,5.5001,0.0,0.0,0.0,0.0,0.0,0.0,0.0,0.0,0.0,0.0,0.0,0.0,5.6913,5.7908,5.8815,5.9054,6.0061,6.0871,6.0871,6.157,6.1982,6.1453,6.311,6.4666,6.5321,6.5413,6.5413,6.5413,6.5413,0.0,6.5413,6.5413,6.5757,6.6636,6.8088,6.9082,6.9425,7.0037,7.0419,7.0419,7.0419,7.0419,7.0419,7.0419,7.0419,7.0419,7.0419,7.0954,7.1985,7.2673,7.3514,7.4507,7.5195,7.5501,7.5501,7.5501,7.5501,7.5501,7.5501,7.5501,7.5501,7.5501,7.5501,7.5501,4.1108,0.0,0.0,0.0,0.0,0.0,0.0,0.0,0.0,0.0,0.0,0.0,0.0,0.0,0.0,0.0,0.0,0.0,0.0,0.0,4.7543,4.795,4.801,4.8241,4.8708,4.8694,4.8904,0.0,0.0,0.0,0.0,0.0,0.0,0.0,0.0,0.0,0.0,0.0,5.1826,5.2567,5.2796,0.0,5.3951,5.4651,5.511,5.5403,5.5403,5.5441,5.5453,5.511,5.5339,0.0,0.0,5.5354,5.5421,0.0,5.5677,5.625,0.0,0.0,0.0,5.6601,0.0,0.0,0.0,5.8258,5.9014,5.9768,6.0486,6.0978,6.0978,6.1367,6.1511,6.1083,6.2599,6.3857,6.3857,6.4768,6.5413,6.5413,6.5413,6.5413,6.5413,6.5413,6.5757,6.6636,6.7859,6.8738,6.9158,6.996,7.0419,7.0419,7.0419,7.0419,7.0419,7.0419,7.0419,7.0419,7.0419,7.0877,7.1718,7.2597,7.3437,7.424,7.5119,7.5501,7.5501,7.5501,7.5501,7.5501,7.5501,7.5501,7.5501,7.5501,7.5501,7.5501,4.1615,0.0,0.0,0.0,0.0,0.0,0.0,0.0,0.0,0.0,0.0,0.0,0.0,0.0,0.0,0.0,0.0,0.0,0.0,0.0,0.0,4.9077,4.8992,4.9097,4.9391,4.9294,4.9556,5.0251,0.0,0.0,0.0,0.0,0.0,0.0,0.0,0.0,0.0,0.0,0.0,5.3136,0.0,5.4014,5.4549,5.5071,5.5441,5.5708,5.5861,5.6282,5.6816,5.6702,0.0,5.6396,5.6687,5.6338,0.0,0.0,0.0,0.0,0.0,0.0,0.0,0.0,0.0,5.7395,0.0,0.0,0.0,6.0636,6.1023,0.0,0.0,0.0,0.0,0.0,0.0,0.0,0.0,6.369,0.0,6.5037,6.5226,6.5329,6.5217,6.5245,6.5571,6.6369,6.7072,6.7906,6.889,6.9731,7.0228,7.0419,7.0419,7.0419,7.0419,7.0419,7.0419,7.0419,7.0419,7.0763,7.1489,7.252,7.3361,7.4049,7.5042,7.5501,7.5501,7.5501,7.5501,7.5501,7.5501,7.5501,7.5501,7.5501,7.5501,7.5501,4.3411,0.0,0.0,0.0,0.0,0.0,0.0,0.0,0.0,0.0,0.0,0.0,0.0,0.0,0.0,0.0,0.0,0.0,4.9627,0.0,0.0,5.0685,5.0213,5.0602,5.193,5.1408,5.1132,5.1249,0.0,0.0,0.0,0.0,0.0,0.0,5.2064,0.0,0.0,0.0,5.3844,0.0,5.4518,5.4713,0.0,5.4842,5.5568,5.6816,5.739,5.7657,5.7657,0.0,5.7351,5.7745,0.0,5.7516,0.0,0.0,0.0,0.0,0.0,0.0,0.0,0.0,5.8348,0.0,0.0,0.0,6.0253,6.0448,0.0,0.0,0.0,0.0,0.0,0.0,0.0,0.0,6.0487,6.2258,6.3703,6.3715,6.4686,6.5197,6.4624,6.4591,6.4894,6.5482,6.5782,6.6563,6.7967,6.8852,6.9655,7.0381,7.0419,7.0419,7.0419,7.0419,7.0419,7.0419,7.0419,7.0457,7.061,7.2253,7.3055,7.3208,7.4813,7.5501,7.5501,7.5501,7.5501,7.5501,7.5501,7.5501,7.5501,7.5501,7.5501,7.5501,4.4,0.0,0.0,0.0,0.0,0.0,0.0,0.0,0.0,0.0,0.0,0.0,0.0,0.0,0.0,0.0,0.0,5.1567,0.0,0.0,0.0,0.0,5.0952,5.1174,5.1824,5.1552,5.1414,5.1414,5.1414,0.0,0.0,0.0,0.0,0.0,5.229,0.0,5.3107,0.0,0.0,0.0,0.0,0.0,0.0,5.5988,5.6511,5.7504,5.781,5.8192,5.8536,0.0,5.8265,0.0,0.0,0.0,0.0,0.0,0.0,0.0,0.0,0.0,0.0,0.0,0.0,0.0,0.0,0.0,6.0549,0.0,0.0,0.0,0.0,0.0,0.0,0.0,6.1405,0.0,0.0,0.0,6.3486,0.0,0.0,0.0,6.4482,0.0,0.0,6.5405,6.5953,6.6556,6.7171,6.847,6.9349,6.9693,7.0151,7.0419,7.0419,7.0419,7.0419,7.0419,7.0419,7.0419,7.0457,7.2215,7.2979,7.3093,7.4775,7.5501,7.5501,7.5501,7.5501,7.5501,7.5501,7.5501,7.5501,7.5501,7.5501,7.5501,0.0,0.0,0.0,0.0,0.0,0.0,0.0,0.0,0.0,0.0,0.0,0.0,5.0672,5.1031,0.0,0.0,0.0,5.3112,0.0,0.0,5.246,0.0,5.1647,0.0,0.0,0.0,5.1414,5.1414,0.0,0.0,0.0,0.0,0.0,0.0,0.0,5.3145,5.384,0.0,0.0,5.5502,5.5376,5.6376,5.7919,5.7516,5.7734,5.8268,5.8498,5.8956,5.9415,5.9262,5.9004,0.0,5.965,0.0,0.0,0.0,0.0,0.0,5.8905,0.0,0.0,0.0,0.0,0.0,0.0,0.0,0.0,0.0,0.0,0.0,0.0,0.0,0.0,0.0,0.0,6.187,0.0,6.1875,0.0,0.0,0.0,0.0,0.0,6.4608,6.4962,6.5109,6.5761,6.6251,6.6674,6.805,6.8929,6.9196,6.9999,7.0419,7.0419,7.0419,7.0419,7.0419,7.0419,7.0419,7.0457,7.1947,7.275,7.3093,7.4507,7.5271,7.5501,7.5501,7.5501,7.5501,7.5501,7.5501,7.5501,7.5501,7.5501,7.5501,0.0,4.8769,0.0,0.0,0.0,0.0,0.0,0.0,0.0,0.0,0.0,0.0,0.0,0.0,0.0,0.0,0.0,5.4992,5.4259,0.0,5.3602,0.0,0.0,5.2021,0.0,0.0,0.0,5.1414,0.0,0.0,0.0,0.0,0.0,0.0,0.0,5.4114,5.4977,5.5623,5.6257,5.6856,5.6843,5.7695,5.9071,0.0,5.9196,5.9185,6.0026,0.0,0.0,5.9616,5.9387,0.0,0.0,0.0,0.0,0.0,0.0,0.0,0.0,0.0,0.0,6.028,0.0,0.0,0.0,0.0,6.1681,0.0,0.0,0.0,0.0,0.0,0.0,0.0,0.0,0.0,0.0,0.0,0.0,0.0,0.0,0.0,0.0,6.3553,6.3832,6.4482,6.4539,6.5187,6.6629,6.7477,6.8317,6.9158,6.9999,7.0419,7.0419,7.0419,7.0419,7.0419,7.0419,7.0419,7.0419,7.1336,7.2176,7.3055,7.3896,7.4736,7.5501,7.5501,7.5501,7.5501,7.5501,7.5501,7.5501,7.5501,7.5501,7.5501,0.0,0.0,0.0,0.0,0.0,0.0,0.0,5.0785,0.0,0.0,0.0,0.0,0.0,0.0,5.3872,0.0,0.0,5.46,5.4336,5.4223,0.0,0.0,0.0,5.2402,0.0,0.0,0.0,0.0,0.0,0.0,0.0,0.0,0.0,0.0,0.0,5.4634,0.0,0.0,0.0,0.0,0.0,5.888,5.9366,0.0,0.0,5.9988,6.0293,6.0408,0.0,6.0141,5.9769,5.9442,5.9687,5.9332,5.8956,5.9725,5.9418,0.0,0.0,0.0,5.9871,6.0817,0.0,0.0,0.0,0.0,0.0,0.0,0.0,0.0,0.0,0.0,0.0,0.0,0.0,0.0,0.0,0.0,0.0,0.0,0.0,0.0,0.0,0.0,0.0,6.4482,6.4845,6.5312,6.5796,6.7133,6.805,6.8317,6.9693,7.0419,7.0419,7.0419,7.0419,7.0419,7.0419,7.0419,7.0419,7.1298,7.2176,7.3055,7.3858,7.4698,7.5501,7.5501,7.5501,7.5501,7.5501,7.5501,7.5501,7.5501,7.5501,7.5501,5.1289,0.0,0.0,0.0,0.0,0.0,0.0,0.0,0.0,0.0,5.2675,0.0,5.3344,0.0,5.3899,0.0,5.4622,5.4754,5.4801,5.465,0.0,5.422,5.3402,0.0,0.0,0.0,0.0,0.0,0.0,5.399,0.0,0.0,0.0,0.0,0.0,0.0,5.5645,0.0,5.7251,0.0,0.0,5.9797,0.0,0.0,5.995,6.0485,0.0,6.0408,6.0408,6.0408,6.0102,5.9807,6.0255,5.9845,5.9387,6.0293,5.995,5.9463,6.0627,6.0659,0.0,6.1473,6.1818,0.0,6.1991,0.0,0.0,0.0,0.0,0.0,0.0,0.0,0.0,0.0,0.0,0.0,0.0,6.1607,0.0,0.0,0.0,0.0,0.0,6.3288,6.3992,6.4463,6.4869,6.5158,0.0,0.0,6.7591,6.7897,6.9234,7.0113,7.0419,7.0419,7.0419,7.0419,7.0419,7.0419,7.0419,7.0992,7.1871,7.3017,7.3552,7.4431,7.5501,7.5501,7.5501,7.5501,7.5501,7.5501,7.5501,7.5501,7.5501,7.5501,0.0,0.0,0.0,0.0,5.1453,0.0,0.0,0.0,5.2674,0.0,5.3243,5.3721,5.3575,5.4117,5.4459,5.4485,5.5107,0.0,5.5784,5.5034,0.0,0.0,5.4332,5.3807,5.4457,0.0,0.0,0.0,0.0,0.0,0.0,0.0,0.0,0.0,5.5357,0.0,5.7226,5.7255,5.8004,5.9262,6.0064,6.0408,6.0408,6.0408,6.0523,6.0742,6.0485,6.0408,6.0408,6.0446,6.0446,6.0446,6.0485,6.0523,6.0523,6.0523,6.0523,6.0561,6.078,6.1401,6.2102,6.2277,0.0,0.0,0.0,0.0,6.2662,0.0,0.0,0.0,0.0,0.0,0.0,0.0,0.0,0.0,0.0,0.0,0.0,0.0,0.0,6.1843,6.2382,6.2499,6.3098,6.4329,6.452,6.4825,0.0,0.0,6.7087,6.7859,6.8738,6.9578,7.0381,7.0419,7.0419,7.0419,7.0419,7.0419,7.0419,7.0419,7.1336,7.2979,7.2979,7.3934,7.5501,7.5501,7.5501,7.5501,7.5501,7.5501,7.5501,7.5501,7.5501,7.5501,5.1391,5.1405,5.1581,0.0,5.2358,5.239,0.0,0.0,0.0,0.0,5.4701,5.5263,5.5738,5.6512,5.6996,5.6971,5.7149,0.0,0.0,0.0,0.0,5.7328,5.602,5.5277,5.5304,5.4893,0.0,5.4665,0.0,0.0,5.5942,0.0,0.0,0.0,0.0,0.0,5.7249,5.7901,5.8922,6.0102,6.0293,6.0485,0.0,0.0,6.0905,6.1554,6.0676,6.0408,6.0485,6.1096,6.1287,6.1402,6.2051,6.228,6.228,6.228,6.228,6.228,6.2319,6.248,6.2708,6.2909,6.3168,6.3318,0.0,0.0,0.0,0.0,0.0,0.0,0.0,0.0,0.0,0.0,0.0,0.0,0.0,0.0,0.0,6.1607,0.0,6.2169,6.1843,6.2688,6.337,6.3716,6.4769,6.5388,6.5405,0.0,0.0,6.789,6.8738,6.9578,7.0381,7.0419,7.0419,7.0419,7.0419,7.0419,7.0419,7.0419,7.1336,7.2979,7.2979,7.3934,7.5501,7.5501,7.5501,7.5501,7.5501,7.5501,7.5501,7.5501,7.5501,7.5501,5.1389,0.0,0.0,5.3115,0.0,0.0,5.3221,0.0,0.0,5.4657,5.5625,0.0,5.6683,5.743,5.7886,5.7886,5.7886,0.0,0.0,0.0,0.0,5.8016,5.7203,5.6746,5.6606,5.648,0.0,5.5967,0.0,0.0,5.6606,0.0,0.0,0.0,0.0,5.7656,0.0,5.9194,5.9883,6.0523,6.0446,0.0,0.0,6.0981,6.1554,6.2319,6.1707,6.1478,6.1554,6.2013,6.2166,6.2242,6.2739,6.2892,6.2892,6.2892,6.2892,6.2892,6.2892,6.3197,6.3485,6.363,6.3911,6.4123,6.3997,6.399,6.399,0.0,0.0,0.0,0.0,0.0,0.0,0.0,0.0,0.0,0.0,0.0,0.0,0.0,6.1875,6.1927,6.1616,6.2761,6.3652,6.4042,6.4842,6.5407,6.5698,0.0,0.0,6.8037,6.8433,6.9196,7.0381,7.0419,7.0419,7.0419,7.0419,7.0419,7.0419,7.0419,7.1336,7.2979,7.2979,7.3934,7.5501,7.5501,7.5501,7.5501,7.5501,7.5501,7.5501,7.5501,7.5501,7.5501,0.0,0.0,0.0,0.0,0.0,0.0,0.0,5.4918,0.0,5.521,0.0,5.7446,5.7362,5.7991,5.8421,5.8563,0.0,5.863,5.8819,5.854,5.8477,5.8665,5.8272,5.8077,5.8077,5.815,0.0,0.0,0.0,0.0,0.0,0.0,0.0,0.0,0.0,0.0,0.0,6.0498,6.0682,6.0665,6.0561,6.0981,6.1593,6.1745,6.2319,6.3083,6.3083,6.3006,6.293,6.3045,6.3083,6.3083,6.3197,6.3236,6.3236,6.3236,6.3236,6.3236,6.3236,6.377,6.4344,6.4344,6.4879,6.5264,6.474,6.464,6.464,6.464,6.4193,6.4152,0.0,0.0,0.0,0.0,0.0,0.0,0.0,0.0,0.0,0.0,0.0,0.0,6.1607,6.2651,6.373,6.4597,6.4753,6.5202,6.6007,0.0,0.0,6.8204,6.8014,6.8699,7.0381,0.0,7.0419,7.0419,7.0419,7.0419,7.0419,7.0419,7.1336,7.2979,7.2979,7.3934,7.5501,7.5501,7.5501,7.5501,7.5501,7.5501,7.5501,7.5501,7.5501,7.5501,0.0,0.0,0.0,0.0,0.0,5.6213,5.6599,5.6714,5.6905,5.7505,5.8289,5.9026,5.9702,6.0491,6.1228,6.1945,6.2032,0.0,0.0,0.0,0.0,6.0988,5.9633,5.888,5.888,5.8419,5.8221,0.0,0.0,0.0,0.0,0.0,0.0,0.0,0.0,0.0,5.9892,6.0458,0.0,6.0485,6.1134,6.1478,6.1669,6.2395,6.3197,6.3962,6.3962,6.3503,6.3006,6.3732,6.3962,6.4076,6.4764,6.4955,6.4955,6.4955,6.4955,6.4955,6.4955,6.507,6.5184,6.5184,6.5299,6.5367,6.5264,6.5226,6.5226,6.5226,6.5158,6.5217,6.5658,0.0,0.0,0.0,0.0,0.0,0.0,0.0,0.0,0.0,0.0,6.2725,0.0,6.2251,6.3043,6.3899,6.4641,6.5276,6.5738,0.0,0.0,0.0,6.7921,0.0,0.0,0.0,7.0419,7.0419,7.0419,7.0419,7.0419,7.0419,7.1336,7.2979,7.2979,7.3934,7.5501,7.5501,7.5501,7.5501,7.5501,7.5501,7.5501,7.5501,7.5501,7.5501,0.0,0.0,0.0,0.0,0.0,0.0,0.0,5.9027,0.0,5.8932,5.9562,6.0304,6.1212,6.1862,6.2462,6.2844,6.2882,6.2882,6.2892,6.251,6.228,6.228,6.1516,0.0,6.0408,6.0111,5.9694,5.9165,0.0,0.0,0.0,0.0,0.0,0.0,0.0,6.0674,0.0,0.0,0.0,6.1898,6.2166,6.2548,6.2968,6.3427,6.4076,6.4802,6.4802,6.4535,6.4267,6.4688,6.4802,6.4879,6.5261,6.5413,6.5413,6.5413,6.5413,6.5413,6.5413,6.5413,6.5413,6.5413,6.5413,6.5413,6.5413,6.5413,6.5413,6.5413,6.5413,6.5475,6.5765,6.5584,0.0,0.0,0.0,0.0,0.0,0.0,0.0,0.0,0.0,0.0,0.0,0.0,0.0,0.0,0.0,6.5355,6.5878,0.0,6.6718,0.0,0.0,0.0,0.0,0.0,0.0,7.0419,7.0419,7.0419,7.0419,7.0419,7.1336,7.2979,7.2979,7.3934,7.5501,7.5501,7.5501,7.5501,7.5501,7.5501,7.5501,7.5501,7.5501,7.5501,0.0,5.5924,0.0,0.0,5.8136,0.0,6.0863,6.1223,6.1027,6.0415,6.0902,6.1639,6.2485,6.295,6.3244,6.3397,6.3427,6.3456,6.3427,6.3244,6.3168,6.3197,6.3006,6.2586,6.1898,6.1898,6.1428,0.0,0.0,0.0,0.0,0.0,0.0,0.0,0.0,0.0,0.0,0.0,6.2624,6.3159,6.3159,6.3579,6.4191,6.4382,6.484,6.5413,6.5413,6.5413,6.5413,6.5413,6.5413,6.5413,6.5413,6.5413,6.5413,6.5413,6.5413,6.5413,6.5413,6.5413,6.5413,6.5413,6.5413,6.5413,6.5413,6.5413,6.5413,6.5413,6.5413,6.5437,6.5495,6.5213,0.0,0.0,0.0,0.0,0.0,0.0,0.0,0.0,0.0,0.0,6.2722,0.0,0.0,0.0,0.0,6.5183,6.6059,6.6088,6.6711,0.0,0.0,6.8693,7.0187,0.0,7.0419,7.0419,7.0419,7.0419,7.0419,7.0419,7.1336,7.2979,7.2979,7.39,7.5318,7.5208,7.5245,7.5318,7.5318,7.5392,7.5501,7.5501,7.5501,7.5501,0.0,0.0,0.0,0.0,0.0,0.0,0.0,6.268,6.3002,6.281,6.2823,6.318,6.4029,6.4144,6.4428,6.5108,6.5184,6.5184,6.5184,6.4466,6.4084,6.4076,6.3312,6.2853,6.2777,6.2777,6.282,0.0,0.0,0.0,0.0,0.0,0.0,0.0,0.0,0.0,0.0,6.3092,6.3045,6.3006,6.377,6.4114,6.4267,6.4993,6.5337,6.5413,6.5413,6.5413,6.5413,6.5413,6.5413,6.5413,6.5413,6.5413,6.5413,6.5413,6.5413,6.5413,6.5413,6.5413,6.5413,6.5413,6.5413,6.5413,6.5413,6.5413,6.5413,6.5413,6.5413,6.5245,6.4707,6.5013,6.5152,0.0,0.0,0.0,0.0,0.0,0.0,0.0,0.0,0.0,0.0,6.3349,0.0,0.0,6.4203,6.456,6.602,6.6088,6.64,6.7114,0.0,6.869,6.9594,7.0124,7.0419,7.0419,7.0419,7.0419,7.0419,7.0419,7.1336,7.2979,7.2979,7.3646,7.4745,7.4325,7.4412,7.4786,7.4786,7.5095,7.5501,7.5501,7.5501,7.5501,0.0,0.0,0.0,0.0,0.0,0.0,0.0,6.3935,6.4257,6.4706,6.4283,6.4245,6.4972,6.5035,6.5146,6.5375,6.5413,6.5413,6.5413,6.5108,6.4917,6.4917,6.4573,6.4153,6.3694,6.3694,6.3521,0.0,0.0,0.0,0.0,0.0,0.0,0.0,0.0,6.3367,6.397,6.3847,6.4038,6.442,6.4764,6.4917,6.4955,6.5261,6.5413,6.5413,6.5413,6.5413,6.5413,6.5413,6.5413,6.5413,6.5413,6.5413,6.5413,6.5413,6.5413,6.5413,6.5413,6.5413,6.5413,6.5413,6.5413,6.5413,6.5413,6.5413,6.5413,6.5413,6.5413,6.5321,6.5087,6.4949,6.4897,0.0,0.0,0.0,0.0,0.0,0.0,0.0,0.0,0.0,0.0,0.0,0.0,0.0,0.0,6.4879,6.6059,6.645,6.6997,6.775,0.0,6.925,7.0057,7.0279,7.0419,7.0419,7.0419,7.0419,7.0419,7.0419,7.1163,7.2585,7.3263,7.385,7.4243,7.4101,7.4109,7.4287,7.4623,7.4825,7.5057,7.5392,7.5501,7.5501,6.0503,0.0,6.1428,0.0,6.2963,6.3449,6.4782,6.5166,6.5551,6.6167,6.5897,6.573,6.5974,6.5991,6.6009,6.617,6.6208,6.6178,6.6139,6.591,6.5796,6.5796,6.5528,0.0,6.4573,6.4535,6.4307,6.3822,6.3243,0.0,0.0,0.0,0.0,0.0,6.3679,6.4008,6.4772,6.4611,6.4879,6.5413,6.5413,6.5413,6.5413,6.5413,6.5413,6.5413,6.5413,6.5413,6.5413,6.5413,6.5413,6.5413,6.5413,6.5413,6.5413,6.5413,6.5413,6.5413,6.5413,6.5413,6.5413,6.5413,6.5413,6.5413,6.5413,6.5413,6.5413,6.5413,6.5413,6.5413,6.5413,6.5037,6.4897,6.5321,0.0,0.0,0.0,0.0,0.0,0.0,6.5118,6.483,6.483,6.4404,0.0,0.0,0.0,0.0,6.6322,6.6764,0.0,0.0,0.0,0.0,0.0,7.0324,7.0419,7.0419,7.0419,7.0419,7.0419,7.0743,7.1405,7.2278,7.3342,7.3774,7.3774,7.3628,7.3628,7.3821,7.4287,7.446,7.4582,7.5245,7.5392,7.5281,6.2323,6.2951,6.377,6.4424,6.4564,6.4859,6.5743,6.6551,6.709,6.7076,6.7821,6.8001,6.709,6.6968,6.7276,6.7982,6.8074,6.8012,6.7859,6.7133,6.6681,0.0,0.0,6.5413,6.5375,6.5375,6.5375,6.5375,0.0,0.0,6.3186,0.0,6.307,6.4466,6.4505,6.481,6.5375,6.5375,6.5375,6.5413,6.5413,6.5413,6.5413,6.5413,6.5413,6.5413,6.5413,6.5413,6.5413,6.5413,6.5413,6.5413,6.5413,6.5413,6.5413,6.5413,6.5413,6.5413,6.5413,6.5413,6.5413,6.5413,6.5413,6.5413,6.5413,6.5413,6.5413,6.5413,6.5413,6.5413,6.5413,6.5375,6.5375,6.5413,0.0,0.0,0.0,0.0,0.0,0.0,6.5701,6.5682,6.5682,6.5682,0.0,0.0,0.0,0.0,0.0,0.0,0.0,6.8292,6.9082,0.0,6.9485,7.0115,7.0419,7.0419,7.0419,7.0419,7.0424,7.1598,7.2203,7.2238,7.2967,7.3298,7.3246,7.2742,7.2853,7.335,7.3821,7.4009,7.4147,7.5133,7.517,7.4786,6.377,6.4078,6.4693,6.609,6.632,6.659,6.7475,6.7821,6.8013,6.7987,6.8244,6.8513,6.8821,6.829,6.7947,0.0,6.8097,6.8036,0.0,6.7668,6.7515,6.7515,6.7247,6.6865,6.6292,6.6292,6.5987,6.5413,0.0,0.0,0.0,6.3876,6.4245,6.5108,6.5108,6.5222,6.5413,6.5413,6.5413,6.5413,6.5413,6.5413,6.5413,6.5413,6.5413,6.5413,6.5413,6.5413,6.5413,6.5413,6.5796,6.6292,6.6292,6.5872,6.5413,6.5413,6.5413,6.5413,6.5413,6.5413,6.5413,6.5413,6.5413,6.5413,6.5413,6.5413,6.5413,6.5413,6.5413,6.5413,6.5413,6.5413,6.5413,6.5413,6.5413,0.0,0.0,0.0,0.0,0.0,6.5509,6.5509,6.5509,6.6047,0.0,0.0,0.0,0.0,0.0,0.0,0.0,0.0,6.9744,0.0,7.0085,7.0286,7.0419,7.0419,7.0419,7.0552,7.0839,7.1429,7.1832,7.2107,7.2553,7.2742,7.2742,7.2553,7.261,7.2798,7.3313,7.3516,7.3616,7.4237,7.4582,7.4745,6.5846,6.6026,6.6372,6.7398,6.759,6.7782,6.8321,6.8667,6.8898,6.8898,6.9167,6.9552,7.009,6.9651,0.0,6.9076,6.9046,6.8985,6.8852,6.8547,6.8394,6.8394,6.805,6.7668,6.7171,0.0,0.0,6.633,6.565,6.5154,6.4848,6.4848,6.5039,6.5413,6.5413,6.5413,6.5413,6.5413,6.5413,6.5413,6.5413,6.5413,6.5413,6.5413,6.5413,6.5452,6.5757,6.5872,6.5948,6.6254,6.6713,6.7133,6.7133,6.6789,6.633,6.633,6.633,6.633,6.633,6.633,6.633,6.633,6.633,6.633,6.633,6.633,6.633,6.633,6.633,6.633,6.633,6.633,6.633,6.633,6.633,6.633,6.633,0.0,0.0,0.0,0.0,0.0,0.0,6.6984,6.7114,0.0,0.0,0.0,0.0,0.0,0.0,6.9797,7.0187,0.0,7.0419,7.0419,7.0419,7.0419,7.0419,7.0598,7.1028,7.1369,7.1658,7.2021,7.2318,7.2496,7.2496,7.2496,7.2496,7.2553,7.3087,7.3193,7.3087,7.3774,7.4064,7.4199,6.8256,6.841,0.0,0.0,6.8513,0.0,6.859,6.9244,6.9783,6.9783,7.0437,7.0898,7.0898,7.0898,7.0843,7.0699,0.0,0.0,0.0,6.9693,6.9273,6.9273,6.8508,6.805,6.7973,6.7973,6.7935,6.7897,6.7133,6.6369,6.5566,6.5566,6.5528,6.549,6.549,6.5452,6.5413,6.5413,6.5413,6.5413,6.5452,6.549,6.549,6.5566,6.5566,6.5681,6.6483,6.6789,6.6904,6.763,6.7935,6.7973,6.7973,6.8012,6.805,6.7935,6.7897,6.7897,6.7897,6.7897,6.7897,6.7897,6.7897,6.7897,6.7897,6.7897,6.7897,6.7897,6.7897,6.7897,6.7897,6.7897,6.7897,6.7897,6.7897,6.7897,6.7897,0.0,0.0,0.0,0.0,0.0,0.0,6.8326,6.8217,0.0,0.0,0.0,0.0,0.0,6.8988,7.0342,7.0419,7.0419,7.0419,7.0419,7.0419,7.0419,7.0457,7.0712,7.1064,7.1444,7.177,7.2081,7.2355,7.2496,7.2496,7.2496,7.2496,7.2553,7.3034,7.2963,7.2573,7.3529,7.3628,7.3415,0.0,0.0,6.8629,6.9283,6.9398,6.959,7.0206,7.0475,7.0629,7.0629,7.0783,7.0898,7.0898,7.086,7.0766,7.0719,7.0669,7.0616,7.0419,7.0228,7.0113,7.0113,6.9922,6.954,6.889,6.889,6.8547,6.7897,6.7706,6.7515,6.7286,6.7286,6.698,6.6407,6.6407,6.6025,6.5413,6.5413,6.5413,6.5452,6.6139,6.6407,6.6445,6.7056,6.7286,6.7324,6.7553,6.763,6.763,6.7821,6.8317,6.889,6.889,6.9311,6.9578,6.8279,6.7897,6.7897,6.7897,6.7897,6.7897,6.7897,6.7897,6.7897,6.7897,6.7897,6.7897,6.7897,6.7897,6.7897,6.7897,6.7897,6.7897,6.7897,6.7897,6.7897,6.7897,6.7897,0.0,0.0,6.7995,6.7995,6.7995,6.8608,6.8789,0.0,0.0,0.0,0.0,6.9285,6.9604,7.0342,7.0419,7.0419,7.0419,7.0419,7.0419,7.0419,7.1068,7.1406,7.1438,7.2094,7.2398,7.2372,7.248,7.2496,7.2496,7.2496,7.2496,7.2496,7.2667,7.261,7.2553,7.2798,7.3034,7.335,6.9448,6.9552,6.9706,7.0167,7.0244,7.0398,7.0821,7.0898,7.0898,7.0898,7.0898,7.0898,7.0898,7.086,7.0832,7.0738,7.0699,7.0585,7.0419,7.0419,7.0419,7.0419,7.0419,7.019,6.9769,6.9769,6.9349,6.847,6.847,6.8279,6.7897,6.7897,6.7668,6.7247,6.7247,6.698,6.6522,6.6522,6.6522,6.656,6.7056,6.7247,6.7286,6.7706,6.7897,6.7935,6.8356,6.847,6.8547,6.8929,6.9349,6.9769,6.9769,7.0037,7.0228,6.9311,6.9043,6.9043,6.9043,6.9043,6.9043,6.9043,6.9043,6.9043,6.9043,6.9043,6.9043,6.9043,6.9043,6.9043,6.9043,6.9043,6.9043,6.9043,6.8829,6.8723,6.8999,6.8829,0.0,6.8999,6.9043,6.9043,6.9043,6.9464,6.959,6.9256,6.9667,0.0,6.9898,6.9898,7.0067,7.0381,7.0419,7.0419,7.0419,7.0419,7.0419,7.0419,7.109,7.1406,7.1524,7.208,7.2392,7.2496,7.2496,7.2496,7.2496,7.2496,7.2496,7.2496,7.2496,7.2496,7.2496,7.2496,7.2686,7.2963,7.0783,7.0898,7.0898,7.0898,7.0898,7.0898,7.0898,7.0898,7.0898,7.0898,7.0898,7.0898,7.0898,7.0898,7.086,7.0821,7.0699,7.0585,7.0451,7.0419,7.0419,7.0419,7.0419,7.0419,7.0419,7.0419,7.0075,6.9387,6.9387,6.9005,6.8279,6.8279,6.8203,6.8088,6.8088,6.8012,6.7897,6.7897,6.7897,6.7897,6.805,6.8088,6.8088,6.8241,6.8279,6.8356,6.912,6.9387,6.9502,7.019,7.0419,7.0419,7.0419,7.0419,7.0419,7.0419,7.0419,7.0419,7.0419,7.0419,7.0419,7.0419,7.0419,7.0419,7.0419,7.0419,7.0419,7.0419,7.0419,7.0419,7.0419,7.0419,7.0375,7.0279,6.9898,6.9772,7.0187,0.0,6.9823,7.033,7.0419,7.0419,7.0419,7.0419,7.0419,7.0419,7.0419,7.0419,7.0419,7.0419,7.0419,7.0419,7.0419,7.0419,7.0419,7.0419,7.0495,7.061,7.1064,7.1436,7.1711,7.2111,7.2368,7.2496,7.2496,7.2496,7.2496,7.2496,7.2496,7.2496,7.2496,7.2496,7.2496,7.2496,7.2496,7.2553,7.0898,7.0898,7.0898,7.0898,7.0898,7.0898,7.0898,7.0898,7.0898,7.0898,7.0898,7.0898,7.0898,7.0898,7.086,7.0821,7.0777,7.0737,7.0554,7.0554,7.0522,7.0419,7.0419,7.0419,7.0419,7.0419,7.0342,7.0228,7.0228,7.0151,6.9999,6.9999,6.9655,6.9005,6.9005,6.8585,6.7897,6.7897,6.7897,6.7935,6.8699,6.9005,6.9082,6.9769,6.9999,7.0037,7.019,7.0228,7.0228,7.0381,7.0419,7.0419,7.0419,7.0419,7.0419,7.0419,7.0419,7.0419,7.0419,7.0419,7.0419,7.0419,7.0419,7.0419,7.0419,7.0419,7.0419,7.0419,7.0419,7.0419,7.0419,7.0419,7.0233,6.9706,6.997,7.0124,6.9692,0.0,7.0286,7.0381,7.0419,7.0419,7.0419,7.0419,7.0419,7.0419,7.0419,7.0419,7.0419,7.0419,7.0419,7.0419,7.0419,7.0419,7.0419,7.0419,7.0763,7.1489,7.23,7.2623,7.2537,7.3316,7.3266,7.2496,7.2496,7.2496,7.2496,7.2496,7.2496,7.2496,7.2496,7.2496,7.2496,7.2496,7.2496,7.2496,7.0898,7.0898,7.1052,7.1541,7.1618,7.1772,7.2245,7.2294,7.2294,7.2322,7.2311,7.2311,7.2283,7.2294,7.2294,7.2255,7.1832,7.1516,7.1337,7.0884,7.0554,7.0419,7.0419,7.0419,7.0419,7.0419,7.0419,7.0419,7.0419,7.0419,7.0419,7.0419,7.019,6.9846,6.9846,6.9616,6.9234,6.9234,6.9234,6.9273,6.9693,6.9846,6.9884,7.0266,7.0419,7.0419,7.0419,7.0419,7.0419,7.0419,7.0419,7.0419,7.0419,7.0419,7.0419,7.0419,7.0419,7.0419,7.0419,7.0419,7.0419,7.0419,7.0419,7.0419,7.0419,7.0419,7.0419,7.0419,7.0419,7.0419,7.0419,7.0419,7.0324,7.0018,6.9948,0.0,0.0,6.9948,7.0057,7.0375,7.0419,7.0419,7.0419,7.0419,7.0419,7.0419,7.0419,7.0419,7.0419,7.0419,7.0419,7.0419,7.0419,7.0419,7.0419,7.0877,7.1298,7.1718,7.277,7.3073,7.2725,7.3351,7.3209,7.2496,7.2496,7.2496,7.2496,7.2496,7.2496,7.2496,7.2496,7.2496,7.2496,7.2496,7.2496,7.2496,7.1206,7.1387,7.1734,7.2388,7.2503,7.2745,7.3409,7.3495,7.3495,7.3486,7.3504,7.3504,7.3486,7.3495,7.3495,7.3486,7.287,7.2381,7.2042,7.1337,7.0745,7.0419,7.0419,7.0419,7.0419,7.0419,7.0419,7.0419,7.0419,7.0419,7.0419,7.0419,7.0419,7.0419,7.0419,7.0419,7.0419,7.0419,7.0419,7.0419,7.0419,7.0419,7.0419,7.0419,7.0419,7.0419,7.0419,7.0419,7.0419,7.0419,7.0419,7.0419,7.0419,7.0419,7.0419,7.0419,7.0419,7.0419,7.0419,7.0419,7.0419,7.0419,7.0419,7.0419,7.0419,7.0419,7.0419,7.0419,7.0419,7.0419,7.0419,7.0419,7.0337,7.0226,0.0,0.0,0.0,6.9898,6.9886,7.0369,7.0419,7.0419,7.0419,7.0419,7.0419,7.0419,7.0419,7.0419,7.0419,7.0419,7.0419,7.0419,7.0419,7.0419,7.0419,7.1259,7.1794,7.2024,7.3117,7.3487,7.3169,7.3329,7.3193,7.2723,7.2553,7.2496,7.2496,7.2496,7.2496,7.2496,7.2496,7.2496,7.2496,7.2496,7.2496,7.2496,7.208,7.2762,7.3339,7.3399,7.3409,7.3457,7.3495,7.3505,7.3505,7.3495,7.3486,7.3486,7.3495,7.3524,7.3486,7.3486,7.3437,7.3024,7.2131,7.1965,7.142,7.0457,7.0419,7.0419,7.0419,7.0419,7.0419,7.0419,7.0419,7.0419,7.0419,7.0419,7.0419,7.0419,7.0419,7.0419,7.0419,7.0419,7.0419,7.0419,7.0419,7.0419,7.0419,7.0419,7.0419,7.0419,7.0419,7.0419,7.0419,7.0419,7.0419,7.0419,7.0419,7.0419,7.0419,7.0419,7.0419,7.0419,7.0419,7.0419,7.0419,7.0419,7.0419,7.0419,7.0419,7.0419,7.0419,7.0419,7.0419,7.0419,7.0419,7.0419,7.0226,6.964,0.0,0.0,6.9625,7.0008,7.0337,7.0381,7.0419,7.0419,7.0419,7.0419,7.0419,7.0419,7.0419,7.0419,7.0419,7.0419,7.0419,7.0419,7.0419,7.0419,7.0419,7.1259,7.21,7.2902,7.3747,7.4295,7.4551,7.4154,7.3677,7.3193,7.2686,7.2496,7.2496,7.2496,7.2496,7.2496,7.2496,7.2496,7.2496,7.2496,7.2496,7.2496,7.3004,7.3273,7.3658,7.4158,7.4216,7.4418,7.4985,7.5062,7.5062,7.5062,7.5053,7.5053,7.5062,7.5053,7.5053,7.5053,7.4553,7.4101,7.3667,7.2609,7.1528,7.0457,7.0419,7.0419,7.0419,7.0419,7.0419,7.0419,7.0419,7.0419,7.0419,7.0419,7.0419,7.0419,7.0419,7.0419,7.0419,7.0419,7.0419,7.0419,7.0419,7.0419,7.0419,7.0419,7.0419,7.0419,7.0419,7.0419,7.0419,7.0419,7.0419,7.0419,7.0419,7.0419,7.0419,7.0419,7.0419,7.0419,7.0419,7.0419,7.0419,7.0419,7.0419,7.0419,7.0419,7.0419,7.0419,7.0419,7.0419,7.0419,7.0419,7.0419,7.033,7.0115,0.0,7.0292,7.0076,7.0272,7.0419,7.0419,7.0419,7.0419,7.0419,7.0419,7.0419,7.0419,7.0419,7.0419,7.0419,7.0419,7.0419,7.0419,7.0916,7.1221,7.1221,7.2062,7.2902,7.3743,7.4584,7.4902,7.4705,7.454,7.4056,7.3298,7.3087,7.2798,7.2496,7.2496,7.2496,7.2496,7.2496,7.2496,7.2496,7.2496,7.2496,7.2496,7.3889,7.4091,7.4476,7.5005,7.513,7.5293,7.5899,7.6015,7.6015,7.6015,7.6015,7.6015,7.6015,7.6015,7.6015,7.6015,7.5438,7.4947,7.4619,7.2993,7.1528,7.0457,7.0419,7.0419,7.0419,7.0419,7.0419,7.0419,7.0419,7.0419,7.0419,7.0419,7.0419,7.0419,7.0419,7.0419,7.0419,7.0419,7.0419,7.0419,7.0419,7.0419,7.0419,7.0419,7.0419,7.0419,7.0419,7.0419,7.0419,7.0419,7.0419,7.0419,7.0419,7.0419,7.0419,7.0419,7.0419,7.0419,7.0419,7.0419,7.0419,7.0419,7.0419,7.0419,7.0419,7.0419,7.0419,7.0419,7.0419,7.0419,7.0419,7.0419,7.0419,7.0419,7.0419,7.0419,7.0419,7.0419,7.0419,7.0419,7.0419,7.0419,7.0419,7.0419,7.0419,7.0419,7.0419,7.0419,7.0419,7.0419,7.0533,7.0801,7.1374,7.1947,7.2482,7.3093,7.3667,7.4201,7.508,7.5281,7.4942,7.4786,7.4243,7.3516,7.3364,7.3017,7.2496,7.2496,7.2496,7.2496,7.2496,7.2496,7.2496,7.2496,7.2496,7.2496,7.4697,7.5399,7.6015,7.6015,7.6015,7.6015,7.6015,7.6015,7.6015,7.6015,7.6015,7.6015,7.6015,7.6015,7.6015,7.6015,7.6015,7.563,7.4784,7.3023,7.1567,7.0457,7.0419,7.0419,7.0419,7.0419,7.0419,7.0419,7.0419,7.0419,7.0419,7.0419,7.0419,7.0419,7.0419,7.0419,7.0419,7.0419,7.0419,7.0419,7.0419,7.0419,7.0419,7.0419,7.0419,7.0419,7.0419,7.0419,7.0419,7.0419,7.0419,7.0419,7.0419,7.0419,7.0419,7.0419,7.0419,7.0419,7.0419,7.0419,7.0419,7.0419,7.0419,7.0419,7.0419,7.0419,7.0419,7.0419,7.0419,7.0419,7.0419,7.0419,7.0419,7.0419,7.0419,7.0419,7.0419,7.0419,7.0419,7.0419,7.0419,7.0419,7.0419,7.0419,7.0419,7.0419,7.0419,7.0419,7.0419,7.0419,7.0801,7.168,7.1718,7.252,7.4201,7.4201,7.4201,7.424,7.508,7.5501,7.5501,7.4942,7.4417,7.3963,7.3516,7.3017,7.2496,7.2496,7.2496,7.2496,7.2496,7.2496,7.2496,7.2496,7.2496,7.2496,7.5592,7.5822,7.6015,7.6015,7.6015,7.6015,7.6015,7.6015,7.6015,7.6015,7.6015,7.6015,7.6015,7.6015,7.6015,7.6015,7.6015,7.5601,7.4696,7.4067,7.3092,7.1605,7.0891,7.0522,7.0419,7.0483,7.0483,7.0419,7.0419,7.0419,7.0419,7.0419,7.0419,7.0419,7.0419,7.0419,7.0419,7.0419,7.0419,7.0419,7.0419,7.0419,7.0419,7.0419,7.0419,7.0419,7.0419,7.0419,7.0419,7.0419,7.0419,7.0419,7.0419,7.0419,7.0419,7.0419,7.0419,7.0419,7.0419,7.0419,7.0419,7.0419,7.0419,7.0419,7.0419,7.0419,7.0419,7.0419,7.0419,7.0419,7.0419,7.0419,7.0419,7.0419,7.0419,7.0419,7.0419,7.0419,7.0419,7.0419,7.0419,7.0419,7.0419,7.0419,7.0419,7.0419,7.0419,7.0419,7.0419,7.0992,7.1412,7.168,7.2826,7.3705,7.4201,7.4201,7.4507,7.5119,7.5386,7.5501,7.5501,7.5318,7.4783,7.4009,7.3869,7.3313,7.2496,7.2496,7.2496,7.2496,7.2496,7.2496,7.2496,7.2496,7.2496,7.2496,7.6015,7.6015,7.6015,7.6015,7.6015,7.6015,7.6015,7.6015,7.6015,7.6015,7.6015,7.6015,7.6015,7.6015,7.6015,7.6015,7.6015,7.5755,7.5187,7.4751,7.4106,7.307,7.1858,7.0961,7.049,7.0554,7.0522,7.0419,7.0419,7.0419,7.0419,7.0419,7.0419,7.0419,7.0419,7.0419,7.0419,7.0419,7.0419,7.0419,7.0419,7.0419,7.0419,7.0419,7.0419,7.0419,7.0419,7.0419,7.0419,7.0419,7.0419,7.0419,7.0419,7.0419,7.0419,7.0419,7.0419,7.0419,7.0419,7.0419,7.0419,7.0419,7.0419,7.0419,7.0419,7.0419,7.0419,7.0419,7.0419,7.0419,7.0419,7.0419,7.0419,7.0419,7.0419,7.0419,7.0419,7.0419,7.0419,7.0419,7.0419,7.0419,7.0419,7.0419,7.0419,7.0419,7.0419,7.0572,7.0916,7.1412,7.1985,7.2673,7.3667,7.4354,7.4698,7.4698,7.4966,7.5501,7.5501,7.5501,7.5501,7.5501,7.5057,7.4243,7.4243,7.3832,7.305,7.2871,7.2798,7.2798,7.261,7.2496,7.2496,7.2496,7.2496,7.2496,7.6015,7.6015,7.6015,7.6015,7.6015,7.6015,7.6015,7.6015,7.6015,7.6015,7.6015,7.6015,7.6015,7.6015,7.6015,7.6015,7.6015,7.6015,7.6015,7.5187,7.4666,7.4589,7.3129,7.1842,7.0769,7.0623,7.0554,7.0419,7.0419,7.0419,7.0419,7.0419,7.0419,7.0419,7.0419,7.0419,7.0419,7.0419,7.0419,7.0419,7.0419,7.0419,7.0419,7.0419,7.0419,7.0419,7.0419,7.0419,7.0419,7.0419,7.0419,7.0419,7.0419,7.0419,7.0419,7.0419,7.0419,7.0419,7.0419,7.0419,7.0419,7.0419,7.0419,7.0419,7.0419,7.0419,7.0419,7.0419,7.0419,7.0419,7.0419,7.0419,7.0419,7.0419,7.0419,7.0419,7.0419,7.0419,7.0419,7.0419,7.0419,7.0419,7.0419,7.0419,7.0419,7.0495,7.0533,7.0916,7.1794,7.1871,7.2635,7.4163,7.4278,7.4698,7.5462,7.5501,7.5501,7.5501,7.5501,7.5501,7.5501,7.5501,7.5208,7.4705,7.4705,7.4374,7.3916,7.3466,7.3298,7.3193,7.2686,7.2496,7.2496,7.2496,7.2496,7.2496,7.6015,7.6015,7.6015,7.6015,7.6015,7.6015,7.6015,7.6015,7.6015,7.6015,7.6015,7.6015,7.6015,7.6015,7.6015,7.6015,7.6015,7.6015,7.6015,7.5733,7.5349,7.4716,7.4273,7.336,7.1833,7.1053,7.0647,7.0554,7.0451,7.0419,7.0419,7.0419,7.0419,7.0419,7.0419,7.0419,7.0419,7.0419,7.0419,7.0419,7.0419,7.0419,7.0419,7.0419,7.0419,7.0419,7.0419,7.0419,7.0419,7.0419,7.0419,7.0419,7.0419,7.0419,7.0419,7.0419,7.0419,7.0419,7.0419,7.0419,7.0419,7.0419,7.0419,7.0419,7.0419,7.0419,7.0419,7.0419,7.0419,7.0419,7.0419,7.0419,7.0419,7.0419,7.0419,7.0419,7.0419,7.0419,7.0419,7.0419,7.0419,7.0419,7.0419,7.0419,7.0686,7.1369,7.1407,7.1789,7.2668,7.3318,7.3819,7.4201,7.4851,7.531,7.5501,7.5501,7.5501,7.5501,7.5501,7.5501,7.5501,7.5501,7.5208,7.4705,7.4705,7.4199,7.3415,7.335,7.3034,7.263,7.2553,7.2496,7.2496,7.2496,7.2496,7.2496,7.6015,7.6015,7.6015,7.6015,7.6015,7.6015,7.6015,7.6015,7.6015,7.6015,7.6015,7.6015,7.6015,7.6015,7.6015,7.6015,7.6015,7.6015,7.6015,7.5985,7.5763,7.5361,7.4909,7.4072,7.2803,7.1803,7.1099,7.0623,7.0451,7.0419,7.0419,7.0419,7.0419,7.0419,7.0419,7.0419,7.0419,7.0419,7.0419,7.0419,7.0419,7.0419,7.0419,7.0419,7.0419,7.0419,7.0419,7.0419,7.0419,7.0419,7.0419,7.0419,7.0419,7.0419,7.0419,7.0419,7.0419,7.0419,7.0419,7.0419,7.0419,7.0419,7.0419,7.0419,7.0419,7.0419,7.0419,7.0419,7.0419,7.0419,7.0419,7.0419,7.0419,7.0419,7.0419,7.0419,7.0419,7.0419,7.0419,7.0419,7.0419,7.0572,7.0986,7.1379,7.1833,7.2281,7.2291,7.2711,7.3514,7.3972,7.4393,7.4813,7.5271,7.5501,7.5501,7.5501,7.5501,7.5501,7.5501,7.5501,7.5501,7.5501,7.5356,7.5095,7.5095,7.4783,7.4281,7.3821,7.3466,7.3156,7.2686,7.2496,7.2496,7.2496,7.2496,7.2496,7.6015,7.6015,7.6015,7.6015,7.6015,7.6015,7.6015,7.6015,7.6015,7.6015,7.6015,7.6015,7.6015,7.6015,7.6015,7.6015,7.6015,7.6015,7.6015,7.6015,7.6015,7.6015,7.5322,7.4553,7.3745,7.2716,7.1674,7.0616,7.0451,7.0419,7.0419,7.0419,7.0419,7.0419,7.0419,7.0419,7.0419,7.0419,7.0419,7.0419,7.0419,7.0419,7.0419,7.0419,7.0419,7.0419,7.0419,7.0419,7.0419,7.0419,7.0419,7.0419,7.0419,7.0419,7.0419,7.0419,7.0419,7.0419,7.0419,7.0419,7.0419,7.0419,7.0419,7.0419,7.0419,7.0419,7.0419,7.0419,7.0419,7.0419,7.0419,7.0419,7.0419,7.0419,7.0419,7.0419,7.0419,7.0533,7.061,7.061,7.0763,7.1107,7.1866,7.2601,7.3059,7.3199,7.3208,7.3559,7.4396,7.4434,7.474,7.5462,7.5501,7.5501,7.5501,7.5501,7.5501,7.5501,7.5501,7.5501,7.5501,7.5501,7.5501,7.5501,7.5501,7.5427,7.5281,7.4369,7.3963,7.3774,7.2871,7.2496,7.2496,7.2496,7.2496,7.2496,7.6015,7.6015,7.6015,7.6015,7.6015,7.6015,7.6015,7.6015,7.6015,7.6015,7.6015,7.6015,7.6015,7.6015,7.6015,7.6015,7.6015,7.6015,7.6015,7.6015,7.6015,7.6015,7.5899,7.5438,7.4553,7.356,7.228,7.0708,7.0483,7.0419,7.0419,7.0419,7.0419,7.0419,7.0419,7.0419,7.0419,7.0419,7.0419,7.0419,7.0419,7.0419,7.0419,7.0419,7.0419,7.0419,7.0419,7.0419,7.0419,7.0419,7.0419,7.0419,7.0419,7.0419,7.0419,7.0419,7.0419,7.0419,7.0419,7.0419,7.0419,7.0419,7.0419,7.0419,7.0419,7.0419,7.0419,7.0419,7.0419,7.0419,7.0419,7.0419,7.0419,7.0419,7.0419,7.0419,7.0419,7.1068,7.1527,7.1527,7.2204,7.2668,7.2796,7.2914,7.3292,7.3976,7.401,7.4427,7.5271,7.531,7.5386,7.5501,7.5501,7.5501,7.5501,7.5501,7.5501,7.5501,7.5501,7.5501,7.5501,7.5501,7.5501,7.5501,7.5501,7.5245,7.4745,7.4199,7.3774,7.335,7.2742,7.2496,7.2496,7.2496,7.2496,7.2496,7.6015,7.6015,7.6015,7.6015,7.6015,7.6015,7.6015,7.6015,7.6015,7.6015,7.6015,7.6015,7.6015,7.6015,7.6015,7.6015,7.6015,7.6015,7.6015,7.6015,7.6015,7.6015,7.6015,7.5592,7.4707,7.3744,7.2647,7.1436,7.0745,7.0419,7.0419,7.0419,7.0419,7.0419,7.0419,7.0419,7.0419,7.0419,7.0419,7.0419,7.0419,7.0419,7.0419,7.0419,7.0419,7.0419,7.0419,7.0419,7.0419,7.0419,7.0419,7.0419,7.0419,7.0419,7.0419,7.0419,7.0419,7.0419,7.0419,7.0419,7.0419,7.0419,7.0419,7.0419,7.0419,7.0419,7.0419,7.0419,7.0419,7.0419,7.0419,7.0419,7.0572,7.1068,7.1145,7.1298,7.1794,7.2176,7.2406,7.2406,7.3165,7.3662,7.3674,7.4129,7.4549,7.4927,7.4927,7.5115,7.5462,7.5501,7.5501,7.5501,7.5501,7.5501,7.5501,7.5501,7.5501,7.5501,7.5501,7.5501,7.5501,7.5501,7.5501,7.5501,7.5501,7.5392,7.5095,7.4325,7.3869,7.3579,7.2798,7.2496,7.2496,7.2496,7.2496,7.2496]},{"header":{"parameterUnit":"m.s-1","parameterCategory":1,"la1":30.6,"la2":28.766,"lo1":-90.7593,"lo2":-88.6598,"dy":0.0162,"dx":0.0183,"nx":116,"ny":114,"refTime":"2023-11-18T18:00:00:Z","depth":0,"parameterNumber":3,"parameterNumberName":"V-component_of_WINDS"},"data":[0.0,0.0,0.0,0.0,0.0,0.0,0.0,0.0,0.0,0.0,0.0,0.0,0.0,0.0,0.0,0.0,0.0,0.0,0.0,0.0,0.0,0.0,0.0,0.0,0.0,0.0,0.0,0.0,0.0,0.0,0.0,0.0,0.0,0.0,0.0,0.0,0.0,0.0,0.0,0.0,0.0,0.0,0.0,0.0,0.0,0.0,0.0,0.0,0.0,0.0,0.0,0.0,0.0,0.0,0.0,0.0,0.0,0.0,0.0,0.0,0.0,0.0,0.0,0.0,0.0,0.0,0.0,0.0,0.0,0.0,0.0,0.0,0.0,0.0,0.0,0.0,0.0,0.0,0.0,0.0,0.0,0.0,0.0,0.0,0.0,0.0,0.0,0.0,0.0,0.0,0.0,0.0,0.0,0.0,0.0,0.0,0.0,0.0,0.0,0.0,0.0,0.0,0.0,0.0,0.0,0.0,0.0,0.0,0.0,0.0,0.0,0.0,0.0,0.0,0.0,0.0,0.0,0.0,0.0,0.0,0.0,0.0,0.0,0.0,0.0,0.0,0.0,0.0,0.0,0.0,0.0,0.0,0.0,0.0,0.0,0.0,0.0,0.0,0.0,0.0,0.0,0.0,0.0,0.0,0.0,0.0,0.0,0.0,0.0,0.0,0.0,0.0,0.0,0.0,0.0,0.0,0.0,0.0,0.0,0.0,0.0,0.0,0.0,0.0,0.0,0.0,0.0,0.0,0.0,0.0,0.0,0.0,0.0,0.0,0.0,0.0,0.0,0.0,0.0,0.0,0.0,0.0,0.0,0.0,0.0,0.0,0.0,0.0,0.0,0.0,0.0,0.0,0.0,0.0,0.0,0.0,0.0,0.0,0.0,0.0,0.0,0.0,0.0,0.0,0.0,0.0,0.0,0.0,0.0,0.0,0.0,0.0,0.0,0.0,0.0,0.0,0.0,0.0,0.0,0.0,0.0,0.0,0.0,0.0,0.0,0.0,0.0,0.0,0.0,0.0,0.0,0.0,0.0,0.0,0.0,0.0,0.0,0.0,0.0,0.0,0.0,0.0,0.0,0.0,0.0,0.0,0.0,0.0,0.0,0.0,0.0,0.0,0.0,0.0,0.0,0.0,0.0,0.0,0.0,0.0,0.0,0.0,0.0,0.0,0.0,0.0,0.0,0.0,0.0,0.0,0.0,0.0,0.0,0.0,0.0,0.0,0.0,0.0,0.0,0.0,0.0,0.0,0.0,0.0,0.0,0.0,0.0,0.0,0.0,0.0,0.0,0.0,0.0,0.0,0.0,0.0,0.0,0.0,0.0,0.0,0.0,0.0,0.0,0.0,0.0,0.0,0.0,0.0,0.0,0.0,0.0,0.0,0.0,0.0,0.0,0.0,0.0,0.0,0.0,0.0,0.0,0.0,0.0,0.0,0.0,0.0,0.0,0.0,0.0,0.0,0.0,0.0,0.0,0.0,0.0,0.0,0.0,0.0,0.0,0.0,0.0,0.0,0.0,0.0,0.0,0.0,0.0,0.0,0.0,0.0,0.0,0.0,0.0,0.0,0.0,0.0,0.0,0.0,0.0,0.0,0.0,0.0,0.0,0.0,0.0,0.0,0.0,0.0,0.0,0.0,0.0,0.0,0.0,0.0,0.0,0.0,0.0,0.0,0.0,0.0,0.0,0.0,0.0,0.0,0.0,0.0,0.0,0.0,0.0,0.0,0.0,0.0,0.0,0.0,0.0,0.0,0.0,0.0,0.0,0.0,0.0,0.0,0.0,0.0,0.0,0.0,0.0,0.0,0.0,0.0,0.0,0.0,0.0,0.0,0.0,0.0,0.0,0.0,0.0,0.0,0.0,0.0,0.0,0.0,0.0,0.0,0.0,0.0,0.0,0.0,0.0,0.0,0.0,0.0,0.0,0.0,0.0,0.0,0.0,0.0,0.0,0.0,0.0,0.0,0.0,0.0,0.0,0.0,0.0,0.0,0.0,0.0,0.0,0.0,0.0,0.0,0.0,0.0,0.0,0.0,0.0,0.0,0.0,0.0,0.0,0.0,0.0,0.0,0.0,0.0,0.0,0.0,0.0,0.0,0.0,0.0,0.0,0.0,0.0,0.0,0.0,0.0,0.0,0.0,0.0,0.0,0.0,0.0,0.0,0.0,0.0,0.0,0.0,0.0,0.0,0.0,0.0,0.0,0.0,0.0,0.0,0.0,0.0,0.0,0.0,0.0,0.0,0.0,0.0,0.0,0.0,0.0,0.0,0.0,0.0,0.0,0.0,0.0,0.0,0.0,0.0,0.0,0.0,0.0,0.0,0.0,0.0,0.0,0.0,0.0,0.0,0.0,0.0,0.0,0.0,0.0,0.0,0.0,0.0,0.0,0.0,0.0,0.0,0.0,0.0,0.0,0.0,0.0,0.0,0.0,0.0,0.0,0.0,0.0,0.0,0.0,0.0,0.0,0.0,0.0,0.0,0.0,0.0,0.0,0.0,0.0,0.0,0.0,0.0,0.0,0.0,0.0,0.0,0.0,0.0,0.0,0.0,0.0,0.0,0.0,0.0,0.0,0.0,0.0,0.0,0.0,0.0,0.0,0.0,0.0,0.0,0.0,0.0,0.0,0.0,0.0,0.0,0.0,0.0,0.0,0.0,0.0,0.0,0.0,0.0,0.0,0.0,0.0,0.0,0.0,0.0,0.0,0.0,0.0,0.0,0.0,0.0,0.0,0.0,0.0,0.0,0.0,0.0,0.0,0.0,0.0,0.0,0.0,0.0,0.0,0.0,0.0,0.0,0.0,0.0,0.0,0.0,0.0,0.0,0.0,0.0,0.0,0.0,0.0,0.0,0.0,0.0,0.0,0.0,0.0,0.0,0.0,0.0,0.0,0.0,0.0,0.0,0.0,0.0,0.0,0.0,0.0,0.0,0.0,0.0,0.0,0.0,0.0,0.0,0.0,0.0,0.0,0.0,0.0,0.0,0.0,0.0,0.0,0.0,0.0,0.0,0.0,0.0,0.0,0.0,0.0,0.0,0.0,0.0,0.0,0.0,0.0,0.0,0.0,0.0,0.0,0.0,0.0,0.0,0.0,0.0,0.0,0.0,0.0,0.0,0.0,0.0,0.0,0.0,0.0,0.0,0.0,0.0,0.0,0.0,0.0,0.0,0.0,0.0,0.0,0.0,0.0,0.0,0.0,0.0,0.0,0.0,0.0,0.0,0.0,0.0,0.0,0.0,0.0,0.0,0.0,0.0,0.0,0.0,0.0,0.0,0.0,0.0,0.0,0.0,0.0,0.0,0.0,0.0,0.0,0.0,0.0,0.0,0.0,0.0,0.0,0.0,0.0,0.0,0.0,0.0,0.0,0.0,0.0,0.0,0.0,0.0,0.0,0.0,0.0,0.0,0.0,0.0,0.0,0.0,0.0,0.0,0.0,0.0,0.0,0.0,0.0,0.0,0.0,0.0,0.0,0.0,0.0,0.0,0.0,0.0,0.0,0.0,0.0,0.0,0.0,0.0,0.0,0.0,0.0,0.0,0.0,0.0,0.0,0.0,0.0,0.0,0.0,0.0,0.0,0.0,0.0,0.0,0.0,0.0,0.0,0.0,0.0,0.0,0.0,0.0,0.0,0.0,0.0,0.0,0.0,0.0,0.0,0.0,0.0,0.0,0.0,0.0,0.0,0.0,0.0,0.0,0.0,0.0,0.0,0.0,0.0,0.0,0.0,0.0,0.0,0.0,0.0,0.0,0.0,0.0,0.0,0.0,0.0,0.0,0.0,0.0,0.0,0.0,0.0,0.0,0.0,0.0,0.0,0.0,0.0,0.0,0.0,0.0,0.0,0.0,0.0,0.0,0.0,0.0,0.0,0.0,0.0,0.0,0.0,0.0,0.0,0.0,0.0,0.0,0.0,0.0,0.0,0.0,0.0,0.0,0.0,0.0,0.0,0.0,0.0,0.0,0.0,0.0,0.0,0.0,0.0,0.0,0.0,0.0,0.0,0.0,0.0,0.0,0.0,0.0,0.0,0.0,0.0,0.0,0.0,0.0,0.0,0.0,0.0,0.0,0.0,0.0,0.0,0.0,0.0,0.0,0.0,0.0,0.0,0.0,0.0,0.0,0.0,0.0,0.0,0.0,0.0,0.0,0.0,0.0,0.0,0.0,0.0,0.0,0.0,0.0,0.0,0.0,0.0,0.0,0.0,0.0,0.0,0.0,0.0,0.0,0.0,0.0,0.0,0.0,0.0,0.0,0.0,0.0,0.0,0.0,0.0,0.0,0.0,0.0,0.0,0.0,0.0,0.0,0.0,0.0,0.0,0.0,0.0,0.0,0.0,0.0,0.0,0.0,0.0,0.0,0.0,0.0,0.0,0.0,0.0,0.0,0.0,0.0,0.0,0.0,0.0,0.0,0.0,0.0,0.0,0.0,0.0,0.0,0.0,0.0,0.0,0.0,0.0,0.0,0.0,0.0,0.0,0.0,0.0,0.0,0.0,0.0,0.0,0.0,0.0,0.0,0.0,0.0,0.0,0.0,0.0,0.0,0.0,0.0,0.0,0.0,0.0,0.0,0.0,0.0,0.0,0.0,0.0,0.0,0.0,0.0,0.0,0.0,0.0,0.0,0.0,0.0,0.0,0.0,0.0,0.0,0.0,0.0,0.0,0.0,0.0,0.0,0.0,0.0,0.0,0.0,0.0,0.0,0.0,0.0,0.0,0.0,0.0,0.0,0.0,0.0,0.0,0.0,0.0,0.0,0.0,0.0,0.0,0.0,0.0,0.0,0.0,0.0,0.0,0.0,0.0,0.0,0.0,0.0,0.0,0.0,0.0,0.0,0.0,0.0,0.0,0.0,0.0,0.0,0.0,0.0,0.0,0.0,0.0,0.0,0.0,0.0,0.0,0.0,0.0,0.0,0.0,0.0,0.0,0.0,0.0,0.0,0.0,0.0,0.0,0.0,0.0,0.0,0.0,0.0,0.0,0.0,0.0,0.0,0.0,0.0,0.0,0.0,0.0,0.0,0.0,0.0,0.0,0.0,0.0,0.0,0.0,0.0,0.0,0.0,0.0,0.0,0.0,0.0,0.0,0.0,0.0,0.0,0.0,0.0,0.0,0.0,0.0,0.0,0.0,0.0,0.0,0.0,0.0,0.0,0.0,0.0,0.0,0.0,0.0,0.0,0.0,0.0,0.0,0.0,0.0,0.0,0.0,0.0,0.0,0.0,0.0,0.0,0.0,0.0,0.0,0.0,0.0,0.0,0.0,0.0,0.0,0.0,0.0,0.0,0.0,0.0,0.0,0.0,0.0,0.0,0.0,0.0,0.0,0.0,0.0,0.0,0.0,0.0,0.0,0.0,0.0,0.0,0.0,0.0,0.0,0.0,0.0,0.0,0.0,0.0,0.0,0.0,0.0,0.0,0.0,0.0,0.0,0.0,0.0,0.0,0.0,0.0,0.0,0.0,0.0,0.0,0.0,0.0,0.0,0.0,0.0,0.0,0.0,0.0,0.0,0.0,0.0,0.0,0.0,0.0,0.0,0.0,0.0,0.0,0.0,0.0,0.0,0.0,0.0,0.0,0.0,0.0,0.0,0.0,0.0,0.0,0.0,0.0,0.0,0.0,0.0,0.0,0.0,0.0,0.0,0.0,0.0,0.0,0.0,0.0,0.0,0.0,0.0,0.0,0.0,0.0,0.0,0.0,0.0,0.0,0.0,0.0,0.0,0.0,0.0,0.0,0.0,0.0,0.0,0.0,0.0,0.0,0.0,0.0,0.0,0.0,0.0,0.0,0.0,0.0,0.0,0.0,0.0,0.0,0.0,0.0,0.0,0.0,0.0,0.0,0.0,0.0,0.0,0.0,0.0,0.0,0.0,0.0,0.0,0.0,0.0,0.0,0.0,0.0,0.0,0.0,0.0,0.0,0.0,0.0,0.0,0.0,0.0,0.0,0.0,0.0,0.0,0.0,0.0,0.0,0.0,0.0,0.0,0.0,0.0,0.0,0.0,0.0,0.0,0.0,0.0,0.0,0.0,0.0,0.0,0.0,0.0,0.0,0.0,0.0,0.0,0.0,0.0,0.0,0.0,0.0,0.0,-0.8261,0.0,0.0,0.0,0.0,0.0,0.0,0.0,0.0,0.0,0.0,0.0,0.0,0.0,0.0,0.0,0.0,0.0,0.0,0.0,0.0,0.0,0.0,0.0,0.0,0.0,0.0,0.0,0.0,0.0,0.0,0.0,0.0,0.0,0.0,0.0,0.0,0.0,0.0,0.0,0.0,0.0,0.0,0.0,0.0,0.0,0.0,0.0,0.0,0.0,0.0,0.0,0.0,0.0,0.0,0.0,0.0,0.0,0.0,0.0,0.0,0.0,0.0,0.0,0.0,0.0,0.0,0.0,0.0,0.0,0.0,0.0,0.0,0.0,0.0,0.0,0.0,0.0,0.0,0.0,0.0,0.0,0.0,0.0,0.0,0.0,0.0,0.0,0.0,0.0,0.0,0.0,0.0,0.0,0.0,0.0,0.0,0.0,0.0,0.0,0.0,0.0,0.0,0.0,0.0,0.0,0.0,0.0,0.0,0.0,0.0,0.0,0.0,0.0,0.0,0.0,0.0,-0.8481,0.0,0.0,0.0,0.0,0.0,0.0,0.0,0.0,0.0,0.0,0.0,0.0,0.0,0.0,0.0,0.0,0.0,0.0,0.0,0.0,0.0,0.0,0.0,0.0,0.0,0.0,0.0,0.0,0.0,0.0,0.0,0.0,0.0,0.0,0.0,0.0,0.0,0.0,0.0,0.0,0.0,0.0,0.0,0.0,0.0,0.0,0.0,0.0,0.0,0.0,0.0,0.0,0.0,0.0,0.0,0.0,0.0,0.0,0.0,0.0,0.0,0.0,0.0,0.0,0.0,0.0,0.0,0.0,0.0,0.0,0.0,0.0,0.0,0.0,0.0,0.0,0.0,0.0,0.0,0.0,0.0,0.0,0.0,0.0,0.0,0.0,0.0,0.0,0.0,0.0,0.0,0.0,0.0,0.0,0.0,0.0,0.0,0.0,0.0,0.0,0.0,0.0,0.0,0.0,0.0,0.0,0.0,0.0,-1.0786,-1.1105,-1.1141,-1.12,-1.2526,-1.471,-1.2435,-1.2556,-1.4027,0.0,0.0,0.0,0.0,0.0,0.0,0.0,0.0,0.0,0.0,0.0,0.0,0.0,0.0,0.0,0.0,0.0,0.0,0.0,0.0,0.0,0.0,-0.4295,-0.4429,-0.4198,-0.4427,-0.4562,0.0,0.0,0.0,0.0,0.0,0.0,0.0,0.0,0.0,0.0,0.0,0.0,0.0,0.0,0.0,0.0,0.0,0.0,0.0,0.0,0.0,0.0,0.0,0.0,0.0,0.0,0.0,0.0,0.0,0.0,0.0,0.0,0.0,0.0,0.0,0.0,0.0,0.0,0.0,0.0,0.0,0.0,0.0,0.0,0.0,0.0,0.0,0.0,0.0,0.0,0.0,0.0,0.0,0.0,0.0,0.0,0.0,0.0,0.0,0.0,-0.9174,-0.9383,0.0,0.0,0.0,0.0,0.0,0.0,0.0,0.0,0.0,0.0,0.0,0.0,0.0,-0.9158,-0.963,-1.1922,-1.3141,-1.3435,-1.5767,-1.7041,-1.7283,-1.7528,-1.7895,-1.8263,-1.7925,0.0,-1.4378,-1.3319,0.0,0.0,0.0,0.0,0.0,0.0,0.0,0.0,0.0,0.0,0.0,0.0,0.0,0.0,0.0,0.0,0.0,0.0,0.0,0.0,0.0,-0.5104,-0.5802,-0.574,-0.6625,-0.6811,-0.5864,-0.5791,-0.5501,-0.4852,-0.4651,-0.4603,0.0,0.0,0.0,0.0,0.0,0.0,0.0,0.0,0.0,0.0,0.0,0.0,0.0,0.0,0.0,0.0,0.0,0.0,0.0,0.0,0.0,0.0,0.0,0.0,0.0,0.0,0.0,0.0,0.0,0.0,0.0,0.0,0.0,0.0,0.0,0.0,0.0,0.0,0.0,0.0,0.0,0.0,0.0,0.0,0.0,0.0,0.0,0.0,0.0,0.0,0.0,0.0,0.0,-0.7224,-0.7982,-0.7959,-0.7048,-0.5897,0.0,0.0,0.0,0.0,0.0,0.0,0.0,0.0,0.0,-1.1991,-1.2016,-1.2873,-1.454,-1.5755,-1.6377,-1.649,-1.7773,-1.837,-1.849,-1.8601,-1.8698,-1.8698,-1.8698,-1.8066,-1.6808,-1.5029,-1.3846,-1.2832,0.0,0.0,0.0,0.0,-0.961,-1.13,0.0,0.0,0.0,0.0,0.0,0.0,0.0,0.0,0.0,0.0,0.0,0.0,-0.473,-0.6342,-0.7405,-0.7405,-0.8633,-0.8624,-0.7015,-0.6867,-0.6293,-0.502,-0.4728,-0.4643,0.0,0.0,0.0,0.0,0.0,0.0,0.0,0.0,0.0,0.0,0.0,0.0,0.0,0.0,0.0,0.0,0.0,0.0,0.0,0.0,0.0,0.0,0.0,0.0,0.0,0.0,0.0,0.0,0.0,0.0,0.0,0.0,0.0,0.0,0.0,0.0,0.0,0.0,0.0,0.0,0.0,0.0,0.0,0.0,0.0,0.0,0.0,0.0,0.0,0.0,0.0,0.0,0.0,-0.7577,-0.823,-0.7576,-0.8114,-0.7502,0.0,0.0,0.0,0.0,0.0,0.0,-1.0671,-1.0764,-1.2181,-1.5047,-1.5137,-1.6211,-1.849,-1.849,-1.8531,-1.8597,-1.8597,-1.8637,-1.8718,-1.8718,-1.8718,-1.8718,-1.8718,-1.8838,-1.8985,-1.6598,-1.6441,-1.7237,-1.159,-1.0732,-1.2625,-1.2001,-1.285,-1.4976,0.0,0.0,0.0,0.0,0.0,0.0,0.0,0.0,0.0,0.0,0.0,-0.6164,-0.6254,-0.8007,-0.9114,-0.8877,-0.9257,-0.8851,-0.7318,-0.7016,-0.6295,-0.4942,-0.4787,-0.4703,-0.4822,0.0,0.0,0.0,0.0,0.0,0.0,0.0,0.0,0.0,0.0,0.0,0.0,0.0,0.0,0.0,0.0,0.0,0.0,0.0,0.0,0.0,0.0,0.0,0.0,0.0,0.0,0.0,0.0,0.0,0.0,0.0,0.0,0.0,0.0,0.0,0.0,0.0,0.0,0.0,0.0,0.0,0.0,0.0,0.0,0.0,0.0,0.0,0.0,0.0,0.0,0.0,0.0,0.0,0.0,-1.0283,-1.1879,0.0,0.0,0.0,0.0,-0.9738,-0.9908,-1.1097,-1.3625,-1.4094,-1.547,-1.8176,-1.8313,-1.834,-1.849,-1.849,-1.8624,-1.8905,-1.8905,-1.9052,-1.9319,-1.9319,-1.9319,-1.9319,-1.9319,-1.9564,-1.9652,-1.8998,-1.7291,-1.5076,-1.4708,-1.2976,-1.1042,-1.4093,-1.5177,-1.5827,0.0,0.0,0.0,0.0,0.0,0.0,0.0,0.0,0.0,-0.3868,-0.5479,-0.6622,-0.6621,-0.9155,-1.0827,-1.0827,-1.1866,-1.1766,-1.014,-0.9058,-0.7829,-0.6378,-0.5327,-0.588,-0.8353,0.0,0.0,0.0,0.0,0.0,0.0,0.0,0.0,0.0,0.0,0.0,0.0,0.0,0.0,0.0,0.0,0.0,0.0,0.0,0.0,0.0,0.0,0.0,0.0,0.0,0.0,0.0,0.0,0.0,0.0,0.0,0.0,0.0,0.0,0.0,0.0,0.0,0.0,0.0,0.0,0.0,0.0,0.0,0.0,0.0,0.0,0.0,0.0,0.0,0.0,0.0,0.0,0.0,0.0,-1.0536,-1.2683,0.0,-1.0584,-1.2035,-1.3018,-1.2916,-1.446,-1.591,-1.6892,-1.6992,-1.7636,-1.8758,-1.8771,-1.8865,-1.9052,-1.9052,-1.9105,-1.9212,-1.9399,-1.9546,-1.9653,-1.984,-1.992,-1.992,-1.992,-1.992,-2.0012,-1.9613,-1.8932,-1.8059,-1.783,-1.7122,-1.6398,-1.7526,-1.7957,-1.8224,0.0,0.0,0.0,0.0,0.0,0.0,0.0,0.0,0.0,-0.4706,-0.6398,-0.7742,-0.8385,-1.0806,-1.2481,-1.2657,-1.3522,-1.3233,-1.102,-0.9956,-0.8488,-0.6472,-0.6009,-0.7554,-1.1363,-1.286,0.0,0.0,0.0,0.0,0.0,0.0,0.0,0.0,0.0,0.0,0.0,0.0,0.0,0.0,0.0,0.0,-0.9068,0.0,0.0,0.0,0.0,0.0,0.0,0.0,0.0,0.0,0.0,0.0,0.0,0.0,0.0,0.0,0.0,0.0,0.0,0.0,0.0,0.0,0.0,0.0,0.0,0.0,0.0,0.0,0.0,0.0,0.0,0.0,0.0,0.0,0.0,0.0,-1.334,-1.0744,-1.3702,-1.4964,-1.2145,-1.4404,-1.5934,-1.5881,-1.7537,-1.8637,-1.8637,-1.8731,-1.8918,-1.9212,-1.9225,-1.9359,-1.9653,-1.9653,-1.9653,-1.9666,-1.9853,-1.9947,-1.9947,-2.0147,-2.0227,-2.0227,-2.0227,-2.0227,-2.0214,-2.0027,-1.9945,-1.9861,-1.9555,-1.9372,-1.9372,-1.9372,-1.9372,-1.9488,0.0,0.0,0.0,0.0,0.0,0.0,0.0,-0.3931,-0.4661,-0.636,-0.8028,-0.9638,-1.1385,-1.3131,-1.4082,-1.4082,-1.4082,-1.2804,-0.9735,-0.9533,-0.8159,-0.5196,-0.6869,-0.9723,-1.3496,0.0,0.0,0.0,0.0,0.0,0.0,0.0,0.0,0.0,0.0,0.0,0.0,0.0,0.0,0.0,0.0,0.0,-1.2881,0.0,0.0,0.0,0.0,0.0,0.0,0.0,0.0,0.0,0.0,0.0,0.0,0.0,0.0,0.0,0.0,0.0,0.0,0.0,0.0,0.0,0.0,0.0,0.0,0.0,0.0,0.0,0.0,0.0,0.0,0.0,0.0,0.0,-1.069,-1.2791,-1.3663,-1.1362,-1.5456,-1.7572,-1.5251,-1.7177,-1.8517,-1.8517,-1.8784,-1.8945,-1.8945,-1.9239,-1.9519,-1.98,-1.9813,-1.9947,-2.0227,-2.0227,-2.0227,-2.0227,-2.0241,-2.0254,-2.0254,-2.0254,-2.0254,-2.0254,-2.0254,-2.0254,-2.0254,-2.0254,-2.0254,-2.0187,-1.9613,-1.9399,-1.9399,-1.9399,-1.9399,-1.9399,0.0,0.0,0.0,0.0,0.0,0.0,0.0,-0.4189,-0.4889,-0.6511,-0.8303,-0.9905,-1.1408,-1.3131,-1.4082,-1.4082,-1.4082,-1.3239,-1.1277,-1.0111,-0.881,-0.7371,-1.0289,-1.2651,-1.4134,0.0,0.0,0.0,0.0,0.0,0.0,0.0,0.0,0.0,0.0,0.0,0.0,0.0,0.0,0.0,0.0,0.0,-1.3423,0.0,0.0,0.0,0.0,0.0,0.0,0.0,0.0,0.0,0.0,0.0,0.0,0.0,0.0,0.0,0.0,0.0,0.0,0.0,0.0,0.0,0.0,0.0,0.0,0.0,0.0,0.0,0.0,0.0,0.0,0.0,0.0,-1.4201,-1.3367,-1.541,-1.6845,-1.6404,-1.7785,-1.8533,-1.7866,-1.859,-1.9132,-1.9132,-1.9399,-1.9559,-1.9559,-1.984,-2.0027,-2.0107,-2.0107,-2.0147,-2.0227,-2.0227,-2.0227,-2.0241,-2.0454,-2.0548,-2.0561,-2.0775,-2.0869,-2.0869,-2.0869,-2.0869,-2.0855,-2.0641,-2.0548,-2.0521,-2.0147,-2.0,-2.0,-2.0,-2.0,-2.0,0.0,0.0,0.0,0.0,0.0,0.0,0.0,-0.4485,-0.5396,-0.761,-0.8817,-1.0297,-1.2388,-1.3535,-1.4082,-1.4082,-1.3529,-1.2492,-1.0964,-0.9679,-0.9367,-1.0446,-1.2718,-1.4509,0.0,0.0,0.0,0.0,0.0,0.0,0.0,0.0,0.0,0.0,0.0,0.0,0.0,0.0,0.0,0.0,0.0,0.0,-1.5183,-1.424,-1.3087,-1.188,-1.1037,-1.0692,-1.0452,-0.911,0.0,0.0,0.0,0.0,0.0,0.0,0.0,0.0,0.0,0.0,0.0,0.0,0.0,0.0,0.0,0.0,0.0,0.0,0.0,0.0,0.0,0.0,0.0,0.0,-1.5329,-1.6368,-1.6331,-1.7502,-1.8477,-1.8651,-1.8931,-1.9105,-1.9105,-1.9372,-1.9546,-1.9546,-1.9813,-1.9987,-1.9987,-2.0147,-2.0294,-2.0414,-2.0414,-2.0481,-2.0601,-2.0601,-2.0601,-2.0601,-2.0775,-2.0922,-2.1042,-2.1216,-2.1363,0.0,-2.1483,-2.1483,-2.1456,-2.1296,-2.1229,0.0,0.0,0.0,0.0,0.0,-2.0227,-2.0227,0.0,0.0,0.0,0.0,0.0,0.0,0.0,-0.4728,-0.6,-0.914,-0.9508,-1.0729,-1.3781,-1.4082,-1.4082,-1.4082,-1.2696,-1.1183,0.0,-0.9078,-1.025,-1.3508,-1.4388,-1.5669,0.0,0.0,0.0,0.0,0.0,0.0,0.0,0.0,0.0,0.0,0.0,0.0,0.0,0.0,0.0,0.0,0.0,0.0,-1.749,-1.5352,-1.4406,-1.3916,-1.2131,-1.1495,-1.1455,-1.1198,0.0,0.0,0.0,0.0,0.0,0.0,0.0,0.0,0.0,0.0,0.0,0.0,0.0,0.0,0.0,0.0,0.0,0.0,0.0,0.0,0.0,0.0,0.0,0.0,-1.8509,-1.8677,-1.8931,-1.8971,-1.8971,-1.8971,-1.9239,-1.9412,-1.9412,-1.9679,-1.9853,-1.9853,-2.012,-2.0281,-2.0281,0.0,0.0,0.0,0.0,-2.0869,-2.1162,-2.1036,-2.0922,-2.0948,-2.0948,-2.108,-2.1344,-2.1603,-2.1737,-2.1991,-2.1991,-2.1991,-2.1991,-2.1991,-2.1991,-2.1884,-2.0842,-2.0428,-2.0428,-2.0388,-2.0388,-2.0374,0.0,0.0,0.0,0.0,0.0,0.0,0.0,-0.4859,-0.6058,-0.9204,-0.9734,-1.0884,-1.3781,-1.4237,-1.4237,-1.4082,-1.2875,-1.1509,0.0,0.0,-1.3008,-1.3886,0.0,0.0,0.0,0.0,0.0,0.0,0.0,0.0,0.0,0.0,0.0,0.0,0.0,0.0,0.0,0.0,0.0,0.0,0.0,0.0,-1.829,-1.779,-1.7434,-1.716,-1.6727,-1.6431,-1.6011,-1.4126,-1.3419,-1.3125,-1.1321,0.0,0.0,0.0,0.0,0.0,0.0,0.0,0.0,0.0,0.0,0.0,0.0,0.0,0.0,0.0,0.0,0.0,0.0,0.0,0.0,-1.5717,-1.7728,-1.9212,-1.9279,-1.9279,-1.9279,-1.9279,-1.9546,-1.972,-1.972,-1.9987,-2.0147,-2.0147,-2.0428,-2.0588,-2.0588,-2.0815,-2.0962,-2.1029,-2.1029,-2.1162,-2.147,-2.0282,-1.9744,-2.0096,0.0,0.0,-2.017,-2.1371,-2.1937,-2.1991,-2.1991,-2.1991,-2.1991,-2.1991,-2.1991,-2.1964,-2.1737,-2.1643,-2.1617,-2.139,-2.1296,-2.1269,0.0,0.0,0.0,0.0,0.0,0.0,0.0,-0.5091,-0.5963,-0.8269,-0.8665,-0.9435,-1.1567,-1.189,-1.1938,-1.1909,-1.1464,0.0,0.0,-1.2564,-1.4316,0.0,0.0,0.0,0.0,0.0,0.0,0.0,0.0,0.0,0.0,0.0,0.0,0.0,0.0,0.0,0.0,0.0,0.0,0.0,0.0,0.0,-1.8918,-1.8758,-1.8531,-1.825,-1.8103,-1.7943,-1.7609,-1.6266,-1.5871,-1.5694,-1.4465,-1.3378,-1.2011,0.0,0.0,0.0,0.0,0.0,0.0,0.0,0.0,0.0,0.0,0.0,0.0,0.0,0.0,-1.5572,0.0,0.0,-1.5701,-1.7116,-1.8466,-1.9386,-1.9439,-1.9389,-1.9455,-1.9586,-1.972,-1.9853,-2.0,-2.0281,-2.0196,-1.9445,-2.0349,-2.0631,-1.9865,-2.0637,-2.1176,-2.1323,-2.0554,-2.0295,-2.0704,-1.9111,-1.8506,-1.863,-1.863,-1.9101,-2.0038,-2.0722,-2.1603,-2.2418,-2.2418,-2.2015,-2.1327,-2.1327,-2.1327,-2.1327,-2.2149,-2.2245,-2.1964,-2.1817,-2.1764,-2.175,0.0,0.0,0.0,0.0,0.0,0.0,0.0,0.0,-0.594,-0.7311,-0.7575,-0.8078,-0.9391,-0.9508,-0.9504,-0.9369,0.0,0.0,0.0,0.0,0.0,0.0,0.0,0.0,0.0,0.0,0.0,0.0,0.0,0.0,0.0,0.0,0.0,0.0,0.0,0.0,0.0,0.0,0.0,0.0,0.0,0.0,-1.9345,-1.9105,-1.8798,-1.8464,-1.8223,-1.805,-1.7916,-1.7662,-1.7582,-1.7582,-1.7582,-1.6393,-1.4456,-1.2071,-1.1123,0.0,0.0,0.0,0.0,0.0,0.0,0.0,0.0,0.0,-0.8628,-1.7607,-1.8963,-1.8863,-1.9306,-1.7428,-1.6445,-1.8687,-1.901,-1.8946,-1.8854,-1.897,-1.9337,-1.9867,-1.9987,-1.9933,-1.9916,-2.0204,-1.9738,-1.8345,-1.9562,-1.9966,-1.9108,-1.9889,-2.0682,-2.1228,-1.9781,-1.9123,-1.9381,-1.789,-1.7235,-1.7277,-1.7277,-1.8053,-1.9347,-1.9757,-2.0698,-2.2022,-2.2074,-2.1408,-2.0296,-2.0623,-2.0786,-2.0926,-2.2415,-2.2659,-2.2231,-2.2111,-2.2071,-2.2058,0.0,0.0,0.0,0.0,0.0,0.0,0.0,0.0,0.0,-0.7311,-0.7708,-0.8274,-0.9391,-0.9648,-0.9271,0.0,0.0,0.0,0.0,0.0,0.0,0.0,0.0,0.0,0.0,0.0,0.0,0.0,0.0,0.0,0.0,0.0,0.0,0.0,0.0,0.0,0.0,0.0,0.0,0.0,0.0,0.0,-1.9359,-1.9332,-1.8971,-1.849,-1.845,-1.809,-1.7622,-1.7595,-1.7582,-1.7582,-1.7582,-1.7423,-1.6639,-1.3743,0.0,-0.9912,-0.5598,-0.6227,-0.884,-1.1909,-1.0467,-0.7437,0.0,0.0,-1.7929,-1.9163,-1.7664,-1.6763,-1.901,-1.8248,-1.7382,-1.7677,-1.7689,-1.7551,-1.7121,-1.7625,-1.8663,-2.0283,-2.0381,-1.9944,-1.8851,-1.8969,-1.8605,-1.7323,-1.7345,-1.7973,-1.9374,-1.8342,-1.8336,-1.9929,-1.8451,-1.789,-1.8118,-1.6629,-1.6044,-1.6225,-1.6225,-1.6375,-1.6676,-1.7928,-1.8776,-1.8949,-1.9041,-1.914,-1.9009,-2.0519,-2.1198,-2.1317,-2.2665,-2.3233,-2.3113,-2.2565,-2.2378,-2.2338,0.0,0.0,0.0,0.0,0.0,0.0,0.0,0.0,0.0,0.0,-0.6415,-0.6607,-0.704,-0.7241,0.0,0.0,0.0,0.0,-1.1037,0.0,0.0,0.0,0.0,0.0,0.0,0.0,0.0,0.0,0.0,0.0,0.0,0.0,0.0,0.0,0.0,0.0,0.0,0.0,0.0,0.0,0.0,0.0,-1.9105,-1.9105,-1.8744,-1.8101,-1.678,-1.6135,0.0,0.0,-1.5469,-1.5737,-1.7147,-1.6701,-1.5371,-1.3702,-1.2253,0.0,-1.0549,-1.0332,-1.1026,0.0,-1.4243,-1.3186,-1.2571,-1.376,-1.4928,-1.4938,-1.4163,-1.4025,-1.602,-1.6397,-1.6526,0.0,-1.7043,-1.7349,-1.824,-1.7491,-1.7304,-1.8265,-1.792,-1.7932,-1.874,-1.8198,-1.7238,-1.5944,-1.6588,-1.7096,-1.705,-1.7188,-1.7781,-1.8699,-1.7213,-1.6629,-1.6847,-1.5325,-1.4673,-1.4893,-1.5006,-1.548,-1.633,-1.7028,-1.794,-1.8656,-1.7898,-1.7514,-1.7514,-1.8342,-1.8664,-1.8799,-2.1162,-2.2137,-2.2203,-2.2611,-2.2672,-2.2659,0.0,0.0,0.0,0.0,0.0,0.0,0.0,0.0,0.0,0.0,0.0,-0.5425,-0.5425,-0.5491,0.0,0.0,0.0,0.0,0.0,-1.3635,-1.5717,-1.6981,-1.7595,0.0,-1.8677,0.0,0.0,0.0,0.0,0.0,0.0,0.0,0.0,0.0,0.0,0.0,0.0,0.0,0.0,0.0,0.0,0.0,-1.8918,-1.8838,-1.8039,-1.6769,-1.5352,-1.4582,0.0,0.0,-1.3079,-1.3568,-1.6626,-1.5658,-1.3162,-1.1482,-1.0121,-0.9627,-1.1413,0.0,0.0,-1.4211,-1.5701,-1.6827,-1.8071,-1.608,-1.349,-1.2031,-1.1852,-1.2218,-1.3452,-1.446,-1.5353,-1.6001,-1.6068,-1.642,-1.728,-1.6076,-1.5493,-1.6444,-1.5853,-1.6022,-1.7742,-1.6969,-1.5834,-1.4463,-1.5394,-1.5929,-1.5375,-1.6069,-1.6803,-1.7431,-1.5923,-1.5307,-1.5452,-1.4517,-1.3977,-1.3977,-1.4164,-1.4821,-1.5822,-1.5976,-1.6618,-1.7633,-1.6536,-1.6129,-1.6129,-1.6629,-1.6944,-1.7092,-1.9814,-2.081,-2.0908,-2.1579,-2.2393,-2.3113,0.0,0.0,0.0,0.0,0.0,0.0,0.0,0.0,0.0,0.0,0.0,0.0,0.0,0.0,0.0,0.0,0.0,0.0,0.0,-1.2572,-1.4447,-1.6673,-1.7288,-1.7742,-1.8063,-1.8637,-1.8945,-1.8945,-1.9225,-1.9372,0.0,0.0,0.0,0.0,0.0,0.0,0.0,0.0,0.0,0.0,0.0,0.0,-1.8891,-1.8611,-1.6825,-1.4492,-1.47,0.0,0.0,0.0,-1.1025,-1.1795,-1.6182,-1.4607,0.0,-0.6283,-0.4839,0.0,0.0,0.0,-0.9574,-1.1093,-1.3606,-1.5688,-1.5666,-1.7506,-1.7805,-1.2759,-1.1768,-1.1864,-1.191,-1.2901,-1.3913,-1.4291,-1.4358,-1.3957,-1.2658,-1.2512,-1.3311,-1.5424,-1.5183,-1.4903,0.0,-1.5033,-1.4472,-1.321,-1.3226,-1.4052,-1.58,-1.4457,-1.4403,-1.6141,-1.4733,-1.3896,-1.3904,-1.4083,-1.4172,-1.4172,-1.4343,-1.4424,-1.4424,-1.4432,-1.4432,-1.4588,-1.4769,-1.47,-1.4859,-1.6697,-1.7379,-1.7512,-1.8947,-1.9456,-1.9424,-1.9155,-2.1102,-2.3741,0.0,0.0,0.0,0.0,0.0,0.0,0.0,0.0,0.0,0.0,0.0,0.0,0.0,0.0,0.0,0.0,0.0,0.0,0.0,-1.1684,-1.3622,-1.4638,-1.6169,-1.7141,-1.7448,-1.8036,-1.8343,-1.8343,-1.8637,-1.8784,-1.8784,-1.8784,-1.8784,0.0,0.0,0.0,0.0,0.0,0.0,0.0,0.0,0.0,-1.8167,-1.6448,-1.5013,-1.3631,0.0,0.0,0.0,0.0,-0.8409,-0.9146,-1.2213,0.0,0.0,-0.5236,-0.4474,-0.4986,-0.6621,0.0,-1.1549,-1.3713,-1.4914,-1.5178,-1.3481,-1.3759,-1.3899,-1.2147,-1.1823,-1.1758,-1.1844,-1.209,-1.2464,-1.2592,-1.269,-1.2607,-1.2691,-1.2668,-1.2996,-1.3613,-1.3621,0.0,0.0,0.0,0.0,-1.3092,-1.3319,-1.3645,-1.4326,-1.4032,-1.4123,-1.46,-1.4305,-1.4083,-1.4083,-1.4261,-1.4351,-1.4351,-1.4529,-1.4676,-1.4789,-1.4789,-1.4789,-1.4789,-1.4854,-1.4879,-1.4887,-1.5548,-1.588,-1.6024,-1.7473,-1.8049,-1.819,-1.9148,-2.0169,-2.116,0.0,0.0,0.0,0.0,0.0,0.0,0.0,0.0,0.0,0.0,0.0,0.0,0.0,0.0,0.0,0.0,0.0,0.0,0.0,0.0,-1.1663,-1.2507,-1.3932,-1.4727,-1.49,-1.554,-1.6093,-1.6573,-1.7111,-1.7746,-1.8373,-1.8424,-1.849,-1.849,-1.8615,-1.8615,0.0,0.0,0.0,0.0,0.0,0.0,-1.5188,-1.3491,-1.2224,0.0,0.0,0.0,0.0,0.0,0.0,0.0,-0.8167,-0.7685,-0.6326,-0.5231,-0.5006,-0.5563,-0.7895,-0.949,-1.1033,-1.358,-1.4201,-1.3861,-1.2147,-1.1776,-1.1776,-1.1776,-1.179,-1.1811,-1.1811,-1.0695,-1.0191,-1.1618,-1.0379,-1.0148,-1.249,-1.1736,-1.1417,-1.2692,-1.284,-1.2856,0.0,0.0,0.0,-1.3189,-1.3474,-1.3669,-1.3734,-1.3839,-1.3928,-1.3993,-1.4115,-1.4205,-1.427,-1.444,-1.4562,-1.4627,-1.4741,-1.4854,-1.4968,-1.4968,-1.4968,-1.4968,-1.4968,-1.4968,-1.4968,-1.4968,-1.4968,-1.5113,-1.6186,-1.6492,-1.6644,-1.7692,-1.8148,-1.826,0.0,0.0,0.0,0.0,0.0,0.0,0.0,0.0,0.0,0.0,0.0,0.0,0.0,0.0,0.0,0.0,0.0,0.0,0.0,0.0,0.0,-1.0545,-1.0787,-1.0909,-1.0909,-1.1546,-1.2501,-1.3858,-1.4768,-1.6143,-1.7822,-1.8034,-1.8123,-1.8123,-1.826,-1.8247,-1.8123,-1.7877,-1.6537,-1.4518,0.0,0.0,-1.0662,-1.0164,0.0,0.0,0.0,0.0,0.0,0.0,0.0,0.0,0.0,-0.4595,-0.4384,-0.6223,-0.6187,-0.5943,-0.7748,-0.802,-0.8353,-1.1098,-1.184,-1.1776,-1.1776,-1.1776,-1.1776,-1.1768,-1.1782,-1.1676,0.0,0.0,-0.7487,-1.1245,-0.7785,-0.6363,-1.1712,-0.9901,-0.9323,0.0,0.0,0.0,0.0,0.0,0.0,-1.3384,0.0,-1.3725,-1.3896,-1.3912,-1.3993,-1.4172,-1.4196,-1.4286,-1.444,-1.4627,-1.4806,-1.4968,-1.4968,-1.4968,-1.4968,-1.4968,-1.4968,-1.4968,-1.4968,-1.4968,-1.4968,-1.4968,-1.4968,-1.4984,-1.4984,-1.4984,-1.4992,-1.4992,-1.4992,-1.5445,0.0,0.0,0.0,0.0,0.0,0.0,0.0,0.0,0.0,0.0,0.0,0.0,0.0,0.0,0.0,0.0,0.0,0.0,0.0,0.0,0.0,0.0,0.0,0.0,0.0,0.0,0.0,0.0,0.0,-1.251,-1.2932,-1.2893,-1.2809,0.0,-1.2909,-1.2819,-1.2607,-1.2607,-1.2123,-1.1406,0.0,-1.087,-1.0156,0.0,0.0,0.0,0.0,0.0,0.0,0.0,0.0,0.0,0.0,-0.8814,-0.7356,-0.8419,-0.8602,-0.8237,-0.7295,-0.8889,-1.0913,-1.1599,-1.176,-1.1776,-1.1776,-1.1776,-1.1752,-1.1766,-1.1753,-1.0033,0.0,0.0,0.0,-1.1603,-0.5126,0.0,-0.6567,-0.9755,0.0,-1.27,0.0,-1.3043,-1.3092,-1.3384,0.0,0.0,-1.3734,-1.3855,-1.3896,-1.4034,-1.4131,-1.418,-1.4432,-1.4594,-1.4635,-1.4814,-1.4919,-1.4968,-1.4968,-1.4968,-1.4968,-1.4968,-1.4968,-1.4968,-1.4968,-1.4968,-1.4968,-1.4968,-1.5049,-1.5171,-1.5171,-1.5252,-1.5374,-1.5374,-1.5374,-1.5532,0.0,0.0,0.0,0.0,0.0,0.0,0.0,0.0,0.0,0.0,0.0,0.0,0.0,0.0,0.0,0.0,0.0,0.0,0.0,0.0,0.0,0.0,0.0,0.0,0.0,0.0,0.0,0.0,0.0,0.0,0.0,-1.0754,-1.0932,-1.0909,-1.0192,-1.0201,-1.0529,0.0,0.0,0.0,0.0,0.0,0.0,0.0,0.0,0.0,0.0,0.0,0.0,0.0,0.0,-0.8157,-1.2323,-1.1891,-0.9904,-0.972,0.0,-0.9265,-0.9026,-1.039,-1.1776,-1.1776,-1.1776,-1.176,-1.1823,-1.1807,-1.1766,-1.1753,-0.9059,0.0,-0.5398,0.0,0.0,0.0,0.0,0.0,-0.8204,-0.9858,-1.1293,0.0,-1.3035,0.0,-1.3319,-1.3522,-1.3677,0.0,-1.3847,-1.3937,-1.4018,-1.4123,-1.4253,-1.4408,-1.4603,-1.4749,-1.4822,-1.4919,-1.4968,-1.4968,-1.4968,-1.4968,-1.4968,-1.4968,-1.4968,-1.4968,0.0,-1.5082,-1.509,-1.5171,-1.5268,-1.5358,-1.5358,-1.5423,-1.5512,-1.5512,-1.5512,-1.5512,0.0,0.0,0.0,0.0,0.0,0.0,0.0,0.0,0.0,0.0,0.0,0.0,0.0,0.0,0.0,0.0,0.0,0.0,0.0,0.0,0.0,0.0,0.0,0.0,0.0,0.0,0.0,0.0,0.0,0.0,0.0,0.0,0.0,0.0,0.0,0.0,0.0,0.0,0.0,0.0,0.0,0.0,0.0,0.0,0.0,0.0,0.0,0.0,0.0,0.0,-1.1093,-1.2484,-1.4988,-1.3961,-1.1801,-1.0739,-1.0004,-0.9835,-1.1447,-1.1776,-1.1776,-1.1776,-1.1776,-1.1744,-1.1844,-1.0948,-1.0288,-1.0259,0.0,-0.2058,-0.8983,-0.463,-0.256,-1.0501,0.0,-1.2134,-1.2682,-1.0324,-0.9645,-1.2783,-1.3116,-1.3262,-1.3612,-1.3669,-1.375,-1.392,-1.3937,-1.401,-1.4172,-1.4221,-1.4399,-1.4732,-1.4741,-1.4814,-1.496,-1.4968,-1.4968,-1.4968,-1.4968,-1.4968,-1.4968,-1.4992,-1.5,-1.5009,-1.5195,0.0,-1.5285,-1.5447,-1.5528,-1.5553,-1.5553,-1.5561,-1.5585,-1.5585,-1.5585,-1.5585,0.0,0.0,0.0,0.0,0.0,0.0,0.0,0.0,0.0,0.0,-0.635,0.0,0.0,0.0,0.0,0.0,0.0,0.0,0.0,0.0,0.0,0.0,0.0,0.0,0.0,0.0,0.0,0.0,0.0,0.0,0.0,0.0,0.0,0.0,0.0,0.0,0.0,0.0,0.0,0.0,0.0,0.0,0.0,0.0,0.0,0.0,0.0,0.0,0.0,0.0,-0.7993,-1.2643,-1.5649,-1.4407,-1.1989,-1.2812,-1.226,-1.1455,-1.176,-1.1776,-1.1776,-1.1776,-1.1776,-1.1744,-1.1844,-0.6798,0.0,0.0,-0.0916,-0.0456,-0.1805,-0.092,-0.2584,-1.0539,0.0,0.0,0.0,0.0,-1.232,0.0,0.0,0.0,0.0,0.0,0.0,0.0,0.0,-1.4148,-1.418,-1.4456,-1.4708,-1.4911,-1.4919,-1.4935,-1.4968,-1.4968,-1.4968,-1.4968,-1.4968,-1.4968,-1.4968,-1.5122,-1.5187,-1.5204,-1.539,0.0,-1.5472,-1.5504,-1.5601,-1.5731,-1.5731,-1.5821,-1.5951,-1.5951,-1.5951,-1.5951,0.0,0.0,0.0,0.0,0.0,0.0,0.0,0.0,0.0,0.0,-0.6416,-0.635,0.0,0.0,0.0,0.0,0.0,0.0,0.0,0.0,0.0,0.0,0.0,0.0,0.0,0.0,0.0,0.0,0.0,0.0,0.0,0.0,0.0,0.0,0.0,0.0,0.0,0.0,0.0,0.0,0.0,0.0,0.0,0.0,0.0,0.0,0.0,0.0,0.0,0.0,-0.7111,-1.224,-1.376,-1.3122,-1.191,-1.2577,-1.2251,-1.1776,-1.1776,-1.1776,-1.1776,-1.1776,-1.1776,-1.184,-1.1753,0.0,0.0,0.0,0.0,0.0226,0.0786,0.0,0.0,0.0,0.0,0.0,0.0,0.0,0.0,0.0,0.0,0.0,0.0,0.0,0.0,0.0,0.0,-1.4456,-1.4456,-1.47,-1.4879,-1.496,-1.4968,-1.4968,-1.4968,-1.4968,-1.4968,-1.4968,-1.4968,-1.5017,-1.5114,-1.5195,-1.5293,-1.539,-1.5569,0.0,-1.5658,-1.5748,-1.5837,-1.5918,-1.5918,-1.5967,-1.6048,-1.6048,-1.6048,-1.6048,0.0,0.0,0.0,0.0,0.0,0.0,0.0,-0.6416,-0.6416,-0.6416,-0.635,-0.635,-0.635,-0.6284,-0.6404,0.0,0.0,0.0,0.0,0.0,0.0,0.0,0.0,0.0,0.0,0.0,0.0,0.0,0.0,0.0,0.0,0.0,0.0,0.0,0.0,0.0,0.0,0.0,0.0,0.0,0.0,0.0,0.0,0.0,0.0,0.0,0.0,0.0,0.0,0.0,-0.57,-0.9703,-1.0529,-1.0657,-1.0837,-1.1152,-1.1295,-1.1311,-1.1752,-1.1776,-1.1776,-1.1776,-1.1776,-1.1823,-1.1787,-0.5731,0.0,0.0,0.0,0.0336,0.157,0.0,0.0,0.0,0.0,0.0,0.0,0.0,0.0,0.0,0.0,0.0,0.0,0.0,0.0,0.0,0.0,0.0,-1.4765,-1.4895,-1.4968,-1.4968,-1.4968,-1.4968,-1.4968,-1.4968,-1.4968,-1.4968,-1.5009,-1.5098,-1.5244,-1.5317,-1.5431,-1.5577,-1.5756,0.0,0.0,-1.5991,-1.6048,-1.6048,-1.6048,-1.6048,-1.6048,-1.6048,-1.6048,-1.6048,0.0,0.0,0.0,0.0,0.0,0.0,0.0,-0.6416,-0.6416,-0.6416,-0.6284,-0.621,-0.621,-0.635,-0.6497,0.0,0.0,0.0,0.0,0.0,0.0,0.0,0.0,0.0,0.0,0.0,0.0,0.0,0.0,0.0,0.0,0.0,0.0,0.0,0.0,0.0,0.0,0.0,0.0,0.0,0.0,0.0,0.0,0.0,0.0,0.0,0.0,0.0,0.0,0.0,0.0,-0.3122,-0.6227,-0.7209,-0.7486,-0.9039,0.0,0.0,-1.1319,-1.1776,-1.1776,-1.1776,-1.1776,-1.1823,-1.1787,0.0,0.0,0.0,0.0,0.0336,0.157,0.0,0.0,0.0,0.0,-0.5966,0.0,0.0,0.0,0.0,0.0,0.0,0.0,0.0,0.0,0.0,0.0,0.0,-1.4944,-1.496,-1.4968,-1.4968,-1.4968,-1.4968,-1.4968,-1.4968,-1.4968,-1.4968,-1.513,-1.522,-1.5252,-1.5577,-1.5731,-1.5756,-1.5943,0.0,0.0,-1.604,-1.6048,-1.6048,-1.6048,-1.6048,-1.6048,-1.6048,-1.6048,-1.6048,0.0,0.0,0.0,0.0,0.0,0.0,0.0,-0.6416,-0.6416,-0.6416,-0.635,-0.635,-0.635,-0.635,-0.6422,0.0,0.0,0.0,0.0,0.0,0.0,0.0,0.0,0.0,0.0,0.0,0.0,0.0,0.0,0.0,0.0,0.0,0.0,0.0,0.0,-0.3517,0.0,0.0,0.0,0.0,0.0,0.0,0.0,0.0,0.0,0.0,0.0,0.0,0.0,0.0,0.0,0.0,-0.316,-0.365,0.0,0.0,-0.9245,-0.9545,-1.1311,-1.1776,-1.1776,-1.1776,-1.184,-1.1844,-1.1762,0.0,-0.5754,-0.1013,0.0,0.0112,0.0673,0.1383,0.0,0.0,0.0,0.0,-0.5732,0.0,0.0,0.0,0.0,0.0,0.0,0.0,0.0,0.0,0.0,0.0,-1.4968,-1.4968,-1.4968,-1.4968,-1.4968,-1.4968,-1.4968,-1.4968,-1.5017,-1.513,-1.5204,-1.535,-1.5569,-1.5707,-1.5837,-1.5943,-1.6016,0.0,0.0,-1.6048,-1.6048,-1.6048,-1.6048,-1.6048,-1.6048,-1.6048,-1.6048,-1.6048,0.0,0.0,0.0,0.0,0.0,0.0,-0.6416,-0.6416,-0.6416,-0.6416,-0.635,-0.635,-0.635,-0.6284,-0.6273,-0.6256,0.0,0.0,0.0,0.0,0.0,0.0,0.0,0.0,0.0,0.0,0.0,0.0,0.0,0.0,0.0,0.0,-0.4035,-0.3706,0.0,0.0,0.0,0.0,0.0,0.0,0.0,0.0,0.0,0.0,0.0,0.0,0.0,0.0,0.0,0.0,0.0,0.0,0.0,0.0,0.0,0.0,-0.813,-0.8948,-1.1169,-1.1823,-1.1776,-1.1776,-1.1799,-1.1154,0.0,0.0,-0.6759,-0.1125,0.0,0.0,0.0,0.0918,0.164,0.0,0.0,-0.087,-0.1629,-0.4731,0.0,0.0,0.0,0.0,0.0,0.0,0.0,0.0,0.0,0.0,-1.4968,-1.4968,-1.4968,-1.4968,-1.4968,-1.4968,-1.4968,-1.5017,-1.5114,-1.5244,-1.5342,-1.5528,-1.5772,-1.5829,-1.5926,-1.6048,-1.6048,0.0,0.0,-1.6048,-1.6048,-1.6048,-1.6048,-1.6048,-1.6048,-1.6048,-1.6048,-1.6048,0.0,0.0,0.0,0.0,0.0,0.0,0.0,-0.6416,-0.6416,-0.6416,-0.6284,-0.621,-0.621,-0.602,-0.5888,-0.5896,0.0,0.0,0.0,0.0,0.0,0.0,0.0,0.0,0.0,0.0,0.0,0.0,0.0,0.0,0.0,0.0,0.0,-0.3765,0.0,0.0,0.0,0.0,0.0,0.0,0.0,0.0,0.0087,0.0,0.0,0.0,0.0,0.0,0.0,0.0,0.0,0.0,0.0,-0.1617,0.0,0.0,-0.5435,-0.7421,-1.0847,-1.1777,-1.1776,-1.1776,-1.1799,-0.9801,0.0,0.0,-0.0114,-0.0,0.0,0.0,0.0,0.0455,0.1156,0.1764,0.1911,0.0974,-0.1375,-0.178,0.0,0.0,0.0,0.0,0.0,0.0,0.0,0.0,0.0,0.0,-1.4968,-1.4968,-1.4968,-1.4968,-1.4968,-1.4968,-1.4968,-1.5147,-1.5236,-1.5244,-1.5601,-1.5772,-1.578,-1.5959,-1.604,0.0,0.0,0.0,0.0,-1.6048,-1.6048,-1.6048,-1.6048,-1.6048,-1.6048,-1.6048,-1.6048,-1.6048,0.0,0.0,0.0,0.0,0.0,0.0,0.0,-0.6416,-0.6416,-0.6416,-0.635,-0.635,-0.635,-0.6284,-0.6218,-0.6218,0.0,0.0,0.0,0.0,0.0,0.0,0.0,0.0,0.0,0.0,0.0,0.0,0.0,0.0,0.0,0.0,0.0,0.0,0.0,0.0,0.0,0.0,0.0,0.0,0.0,-0.0834,0.0,0.0,0.0,0.0,0.0,0.0,0.0,0.0,0.0,0.0,0.0,0.0,0.0,-0.2251,-0.3677,-0.5426,-0.775,-1.0052,-1.1289,-0.8891,-1.0077,-1.0416,-0.5196,0.0,0.0,0.0,0.0,0.0,0.0,0.0578,0.1175,0.1792,0.1943,0.1721,0.0992,0.0,0.0,0.0,0.0,0.0,0.0,0.0,0.0,0.0,0.0,0.0,-1.4968,-1.4968,-1.4968,-1.4968,-1.4968,-1.4968,-1.4968,-1.5147,-1.5301,-1.5431,-1.5658,-1.5837,-1.5959,-1.6016,-1.6048,0.0,0.0,0.0,0.0,-1.6048,-1.6048,-1.6048,-1.6048,-1.6048,-1.6048,-1.6048,-1.6048,-1.6048,0.0,0.0,0.0,0.0,0.0,0.0,0.0,-0.635,-0.6416,-0.6416,-0.6416,-0.6416,-0.6416,-0.6416,-0.635,-0.635,0.0,0.0,0.0,0.0,0.0,0.0,0.0,0.0,0.0,0.0,0.0,0.0,0.0,0.0,0.0,0.0,0.0,0.0,0.0,0.0,0.0,0.0,0.0,0.0,-0.1885,-0.1336,-0.0512,0.0,0.0,0.0,0.0,0.0,0.0,0.0,0.0,0.0,0.0,0.0,0.0,0.0,-0.2357,-0.3566,0.0,-0.7504,-0.8837,-0.7204,-0.7345,0.0,0.0,0.0,0.0,0.0,0.0,0.0113,0.0688,0.0928,0.1176,0.1803,0.1947,0.1597,0.0744,0.0,0.0,0.0,0.0,0.0,0.0,0.0,0.0,0.0,0.0,0.0,-1.4968,-1.4968,-1.4968,-1.4968,-1.4968,-1.4968,-1.4968,-1.522,-1.5398,-1.552,-1.5764,-1.5934,-1.6048,-1.6048,-1.6048,0.0,0.0,0.0,0.0,-1.6048,-1.6048,-1.6048,-1.6048,-1.6048,-1.6048,-1.6048,-1.6048,-1.6048,0.0,0.0,0.0,0.0,0.0,0.0,0.0,0.0,0.0,0.0,-0.6416,-0.6416,-0.6416,-0.6416,-0.635,0.0,0.0,0.0,0.0,0.0,0.0,0.0,0.0,0.0,0.0,0.0,0.0,-0.5007,-0.4618,-0.4384,-0.4224,0.0,0.0,0.0,0.0,0.0,0.0,0.0,0.0,0.0,-0.1854,-0.162,0.0,0.0,0.0,0.0,0.0,0.0,0.0,0.0,0.0,0.0,0.0,0.0,0.0,0.0,0.0,0.0,0.0,-0.4382,0.0,0.0,0.0,0.0,0.0,0.0,0.0,0.0,0.0,0.0451,0.1723,0.1498,0.128,0.1925,0.1934,0.1097,-0.1375,-0.2191,0.0,0.0,0.0,0.0,0.0,0.0,0.0,0.0,0.0,0.0,-1.4968,-1.4968,-1.4968,-1.4968,-1.4968,-1.4968,-1.4968,-1.5333,-1.5512,-1.552,-1.5878,-1.6048,-1.6048,-1.6048,-1.6048,0.0,0.0,0.0,0.0,-1.6048,-1.6048,-1.6048,-1.6048,-1.6048,-1.6048,-1.6048,-1.6048,-1.6048,0.0,0.0,0.0,0.0,0.0,0.0,0.0,0.0,0.0,0.0,-0.6416,-0.6416,-0.6416,-0.6416,-0.6416,0.0,0.0,0.0,0.0,0.0,0.0,0.0,0.0,0.0,0.0,0.0,0.0,-0.5012,-0.4701,-0.4462,-0.4384,-0.4155,0.0,0.0,0.0,0.0,0.0,0.0,0.0,0.0,-0.1884,-0.1902,0.0,0.0,0.0,0.0,-0.027,-0.0647,0.0,0.0,0.0,0.0,0.0,0.0,0.0,0.0,-0.1633,-0.1753,-0.215,0.0,-0.2598,-0.2815,-0.1656,-0.0563,0.0,0.0,0.0,0.0,0.0,0.0453,0.1748,0.1874,0.1777,0.1956,0.1966,0.1111,-0.1378,0.0,0.0,0.0,0.0,0.0,0.0,0.0,0.0,0.0,0.0,-1.4968,-1.4968,-1.4968,-1.4968,-1.4968,-1.4968,-1.4968,-1.4968,-1.5333,-1.5512,-1.552,-1.5878,-1.6048,-1.6048,-1.6048,-1.6048,0.0,0.0,0.0,-1.6048,-1.6048,-1.6048,-1.6048,-1.6048,-1.6048,-1.6048,-1.6048,-1.6048,-1.6048,0.0,0.0,0.0,0.0,0.0,0.0,0.0,0.0,0.0,0.0,0.0,0.0,0.0,0.0,0.0,0.0,0.0,0.0,0.0,0.0,0.0,0.0,0.0,0.0,0.0,0.0,0.0,0.0,0.0,-0.4623,0.0,0.0,0.0,0.0,0.0,0.0,0.0,0.0,0.0,-0.2648,-0.2336,0.0,0.0,0.0,0.0,0.0,-0.0717,-0.0737,0.0,-0.1335,-0.1566,-0.1617,0.0,0.0,0.0,0.0,-0.1628,-0.1637,-0.1621,-0.1659,-0.1704,-0.1704,-0.1312,-0.0897,0.0,0.0,0.0,0.0,0.0,0.0,-0.1172,0.0,-0.0599,0.16,0.0125,-0.1894,0.0,0.0,0.0,0.0,0.0,0.0,0.0,0.0,0.0,0.0,0.0,-1.4968,-1.4968,-1.4968,-1.4968,-1.4968,-1.4968,-1.4968,-1.4968,-1.5333,-1.5512,-1.552,-1.5878,-1.6048,-1.6048,-1.6048,-1.6048,0.0,0.0,0.0,-1.6048,-1.6048,-1.6048,-1.6048,-1.6048,-1.6048,-1.6048,-1.6048,-1.6048,-1.6048,0.0,0.0,0.0,0.0,0.0,0.0,0.0,0.0,0.0,0.0,0.0,0.0,0.0,0.0,0.0,0.0,0.0,0.0,0.0,0.0,0.0,0.0,0.0,0.0,0.0,0.0,0.0,0.0,0.0,0.0,0.0,0.0,-0.4437,0.0,0.0,0.0,0.0,0.0,-0.3422,-0.3141,-0.2883,0.0,0.0,0.0,0.0,0.0,0.0,0.0,0.0,-0.1144,-0.1469,-0.1617,-0.1617,0.0,0.0,0.0,0.0,0.0,-0.1624,-0.1874,-0.2137,-0.1812,-0.1746,-0.1453,0.0,0.0,0.0,0.0,0.0,0.0,0.0,0.0,0.0,0.0,0.0,0.0,0.0,0.0,0.0,0.0,0.0,0.0,0.0,0.0,0.0,0.0,0.0,-1.4968,-1.4968,-1.4968,-1.4968,-1.4968,-1.4968,-1.4968,-1.4968,-1.5333,-1.5512,-1.552,-1.5878,-1.6048,-1.6048,-1.6048,-1.6048,-1.6048,0.0,0.0,-1.6048,-1.6048,-1.6048,-1.6048,-1.6048,-1.6048,-1.6048,-1.6048,-1.6048,-1.6048,0.0,0.0,0.0,0.0,0.0,0.0,0.0,0.0,0.0,0.0,0.0,0.0,0.0,0.0,0.0,0.0,0.0,0.0,0.0,0.0,0.0,0.0,0.0,0.0,0.0,0.0,0.0,0.0,0.0,0.0,-0.4857,-0.4311,-0.3925,0.0,0.0,0.0,0.0,-0.4034,-0.3762,-0.3212,-0.339,0.0,0.0,0.0,0.0,0.0,0.0,0.0,0.0,-0.1049,-0.1175,-0.1617,-0.1617,0.0,0.0,0.0,0.0,0.0,-0.1655,-0.3072,-0.4006,-0.214,-0.1733,-0.1432,0.0,0.0,0.0,0.0,0.0,0.0,0.0,0.0,0.0,0.0,0.0,0.0,0.0,0.0,0.0,0.0,0.0,0.0,0.0,0.0,0.0,0.0,0.0,-1.4968,-1.4968,-1.4968,-1.4968,-1.4968,-1.4968,-1.4968,-1.4968,-1.5333,-1.5512,-1.552,-1.5878,-1.6048,-1.6048,-1.6048,-1.6048,-1.6048,0.0,-1.6048,-1.6048,-1.6048,-1.6048,-1.6048,-1.6048,-1.6048,-1.6048,-1.6048,-1.6048,-1.6048,0.0,0.0,0.0,0.0,0.0,0.0,0.0,0.0,0.0,0.0,0.0,0.0,0.0,0.0,0.0,0.0,0.0,0.0,0.0,0.0,0.0,0.0,0.0,0.0,0.0,0.0,0.0,0.0,0.0,-0.487,-0.5018,-0.4155,-0.3765,-0.3769,0.0,0.0,0.0,-0.389,-0.3804,-0.3527,0.0,0.0,0.0,0.0,0.0,0.0,0.0,0.0,0.0,0.0,-0.1371,-0.1617,-0.1617,0.0,0.0,0.0,0.0,0.0,-0.1662,-0.2431,-0.3563,-0.492,-0.4686,-0.3748,0.0,0.0,0.0,0.0,0.0,0.0,0.0,0.0,0.0,0.0,0.0,0.0,0.0,0.0,0.0,0.0,0.0,0.0,0.0,0.0,0.0,0.0,0.0,0.0,-1.4968,-1.4968,-1.4968,-1.4968,-1.4968,-1.4968,-1.4968,-1.5333,-1.5512,-1.552,-1.5878,-1.6048,-1.6048,-1.6048,-1.6048,-1.6048,0.0,-1.6048,-1.6048,-1.6048,-1.6048,-1.6048,-1.6048,-1.6048,-1.6048,-1.6048,-1.6048,-1.6048,0.0,0.0,0.0,0.0,0.0,0.0,0.0,0.0,0.0,0.0,0.0,0.0,0.0,0.0,0.0,0.0,0.0,0.0,0.0,0.0,0.0,0.0,0.0,0.0,0.0,0.0,-0.5569,-0.5002,-0.5033,-0.4887,-0.4701,-0.4077,-0.3773,0.0,0.0,0.0,0.0,-0.3722,-0.3707,-0.3674,0.0,0.0,0.0,0.0,0.0,0.0,0.0,0.0,0.0,0.0,0.0,0.0,0.0,0.0,0.0,-0.1617,-0.1639,-0.1663,-0.167,-0.2015,-0.3146,0.0,0.0,0.0,0.0,0.0,0.0,0.0,0.0,0.0,0.0,0.0,0.0,0.0,0.0,0.0,0.0,0.0,0.0,0.0,0.0,0.0,0.0,0.0,0.0,0.0,0.0,0.0,-1.4968,-1.4968,-1.4968,-1.4968,-1.4968,-1.4968,-1.4968,-1.5293,-1.5472,-1.552,-1.5878,-1.6048,-1.6048,-1.6048,-1.6048,-1.6048,-1.6048,-1.6048,-1.6048,-1.6048,-1.6048,-1.6048,-1.6048,-1.6048,-1.6048,-1.6048,-1.6048,-1.6048,0.0,0.0,0.0,0.0,0.0,0.0,0.0,0.0,0.0,0.0,0.0,0.0,0.0,0.0,0.0,0.0,0.0,0.0,0.0,0.0,0.0,0.0,0.0,0.0,0.0,-0.579,-0.5569,-0.5002,-0.5033,-0.4654,-0.3908,-0.3839,-0.381,-0.381,0.0,0.0,0.0,-0.3805,-0.3664,-0.331,-0.3489,0.0,0.0,0.0,0.0,0.0,0.0,0.0,0.0,0.0,0.0,0.0,0.0,0.0,-0.1617,-0.1617,-0.1639,-0.1667,-0.1695,-0.2828,0.0,0.0,0.0,0.0,0.0,0.0,0.0,0.0,0.0,0.0,0.0,0.0,0.0,0.0,0.0,0.0,0.0,0.0,0.0,0.0,0.0,0.0,0.0,0.0,0.0,0.0,0.0,0.0,-1.4968,-1.4968,-1.4968,-1.4968,-1.4968,-1.4968,-1.4968,-1.5163,-1.5342,-1.552,-1.5878,-1.6048,-1.6048,-1.6048,-1.6048,-1.6048,-1.6048,-1.6048,-1.6048,-1.6048,-1.6048,-1.6048,-1.6048,-1.6048,-1.6048,-1.6048,-1.6048,-1.6048,0.0,0.0,0.0,0.0,0.0,0.0,0.0,0.0,0.0,0.0,0.0,0.0,0.0,0.0,0.0,0.0,0.0,0.0,0.0,0.0,0.0,0.0,0.0,-0.623,-0.6098,-0.6132,-0.5757,-0.5121,-0.5007,-0.4578,-0.383,-0.3995,0.0,0.0,0.0,0.0,0.0,0.0,-0.3767,-0.3857,-0.3138,-0.2959,0.0,0.0,0.0,0.0,0.0,0.0,0.0,0.0,-0.1583,-0.1617,-0.1617,-0.1617,-0.1617,-0.1617,-0.1651,-0.169,-0.1701,-0.2967,0.0,0.0,0.0,0.0,0.0,0.0,0.0,0.0,0.0,0.0,0.0,0.0,0.0,0.0,0.0,0.0,0.0,0.0,0.0,0.0,0.0,0.0,0.0,0.0,0.0,0.0,0.0,0.0,-1.4968,-1.4968,-1.4968,-1.4968,-1.4968,-1.4968,-1.4968,-1.5147,-1.5333,-1.552,-1.5764,-1.5934,-1.6048,-1.6048,-1.6048,-1.6048,-1.6048,-1.6048,-1.6048,-1.6048,-1.6048,-1.6048,-1.6048,-1.6048,-1.6048,-1.6048,-1.6048,-1.6048,0.0,0.0,0.0,0.0,0.0,0.0,0.0,0.0,0.0,0.0,0.0,0.0,0.0,0.0,0.0,0.0,0.0,0.0,0.0,0.0,0.0,0.0,0.0,-0.618,-0.6172,-0.6153,-0.5878,-0.5342,-0.5052,-0.4618,-0.4068,0.0,0.0,0.0,0.0,0.0,0.0,0.0,-0.3678,-0.3771,-0.2867,-0.2509,0.0,0.0,0.0,0.0,0.0,0.0,0.0,0.0,-0.1592,-0.1617,-0.1617,-0.1617,-0.1617,-0.1617,-0.1976,-0.2467,-0.2467,-0.3324,-0.4472,-0.4954,0.0,0.0,0.0,0.0,0.0,0.0,0.0,0.0,0.0,0.0,0.0,0.0,0.0,0.0,0.0,0.0,0.0,0.0,0.0,0.0,0.0,0.0,0.0,0.0,0.0,0.0,0.0,-1.4968,-1.4968,-1.4968,-1.4968,-1.4968,-1.4968,-1.509,-1.5277,-1.552,-1.5634,-1.5813,-1.6048,-1.6048,-1.6048,-1.6048,-1.6048,-1.6048,-1.6048,-1.6048,-1.6048,-1.6048,-1.6048,-1.6048,-1.6048,-1.6048,-1.6048,-1.6048,0.0,0.0,0.0,0.0,0.0,0.0,0.0,0.0,0.0,0.0,0.0,0.0,0.0,0.0,0.0,0.0,0.0,0.0,0.0,0.0,0.0,0.0,0.0,-0.6172,-0.603,-0.5943,-0.5789,-0.5562,-0.4935,-0.4618,-0.4623,-0.4339,0.0,0.0,0.0,0.0,0.0,0.0,-0.332,-0.2875,-0.2869,-0.233,-0.1436,0.0,0.0,0.0,0.0,0.0,0.0,0.0,-0.1592,-0.1617,-0.1617,-0.1617,-0.1617,-0.1617,-0.2829,-0.4137,-0.4137,-0.4244,-0.4714,-0.6415,0.0,0.0,0.0,0.0,0.0,0.0,0.0,0.0,0.0,0.0,0.0,0.0,0.0,0.0,0.0,0.0,0.0,0.0,0.0,0.0,0.0,0.0,0.0,0.0,0.0,0.0,0.0,-1.4968,-1.4968,-1.4968,-1.4968,-1.4968,-1.4968,-1.4968,-1.5147,-1.5512,-1.5512,-1.5699,-1.6048,-1.6048,-1.6048,-1.6048,-1.6048,-1.6048,-1.6048,-1.6048,-1.6048,-1.6048,-1.6048,-1.6048,-1.6048,-1.6048,-1.6048,-1.6048,0.0,0.0,0.0,0.0,0.0,0.0,0.0,0.0,0.0,0.0,0.0,0.0,0.0,0.0,0.0,0.0,0.0,0.0,0.0,0.0,0.0,0.0,0.0,0.0,0.0,0.0,-0.5712,-0.5401,-0.5012,-0.4857,0.0,0.0,0.0,-0.4122,0.0,0.0,0.0,0.0,-0.3051,-0.2869,-0.2872,-0.2693,-0.2334,0.0,0.0,0.0,0.0,0.0,0.0,0.0,0.0,0.0,-0.1641,-0.1635,-0.1621,-0.1643,-0.1996,-0.2473,-0.2504,-0.4279,0.0,0.0,0.0,0.0,0.0,0.0,0.0,0.0,0.0,0.0,0.0,0.0,0.0,0.0,0.0,0.0,0.0,0.0,0.0,0.0,0.0,0.0,0.0,0.0,0.0,0.0,0.0,0.0,0.0,-1.4968,-1.4968,-1.4968,-1.4968,-1.4968,-1.4968,-1.4968,-1.509,-1.5325,-1.5455,-1.5699,-1.6048,-1.6048,-1.6048,-1.6048,-1.6048,-1.6048,-1.6048,-1.6048,-1.6048,-1.6048,-1.6048,-1.6048,-1.6048,-1.6048,-1.6048,-1.6048,0.0,0.0,0.0,0.0,0.0,0.0,0.0,0.0,0.0,0.0,0.0,0.0,0.0,0.0,0.0,0.0,0.0,0.0,0.0,0.0,0.0,0.0,0.0,0.0,0.0,-0.5745,-0.5479,0.0,0.0,0.0,0.0,0.0,0.0,-0.4261,0.0,-0.3901,0.0,0.0,-0.2869,-0.2869,-0.2872,-0.2888,-0.2729,0.0,0.0,0.0,0.0,0.0,0.0,0.0,0.0,0.0,-0.1639,-0.164,-0.1742,-0.2502,-0.2664,-0.2946,-0.4349,0.0,0.0,0.0,0.0,0.0,0.0,0.0,0.0,0.0,0.0,0.0,0.0,0.0,0.0,0.0,0.0,0.0,0.0,0.0,0.0,0.0,0.0,0.0,0.0,0.0,0.0,0.0,0.0,0.0,0.0,-1.4968,-1.4968,-1.4968,-1.4968,-1.4968,-1.4968,-1.4968,-1.5057,-1.5244,-1.5423,-1.5666,-1.5943,-1.6016,-1.6048,-1.6048,-1.6048,-1.6048,-1.6048,-1.6048,-1.6048,-1.6048,-1.6048,-1.6048,-1.6048,-1.6048,-1.6048,-1.6048,0.0,0.0,0.0,0.0,0.0,0.0,0.0,0.0,0.0,0.0,0.0,0.0,0.0,0.0,0.0,0.0,0.0,0.0,0.0,0.0,0.0,0.0,0.0,0.0,0.0,0.0,0.0,0.0,0.0,0.0,0.0,0.0,-0.4418,-0.4342,0.0,-0.3767,0.0,-0.2867,-0.2869,-0.2875,-0.288,-0.2825,-0.2407,-0.0649,0.0,0.0,0.0,0.0,0.0,0.0,0.0,0.0,-0.1624,-0.1641,-0.198,-0.3493,-0.4249,-0.5174,0.0,0.0,0.0,0.0,0.0,0.0,0.0,0.0,0.0,0.0,0.0,0.0,0.0,0.0,0.0,0.0,0.0,0.0,0.0,0.0,0.0,0.0,0.0,0.0,0.0,0.0,0.0,0.0,0.0,0.0,0.0,-1.4968,-1.4968,-1.4968,-1.4968,-1.4968,-1.4968,-1.4968,-1.5049,-1.5212,-1.5423,-1.5601,-1.5756,-1.5959,-1.6048,-1.6048,-1.6048,-1.6048,-1.6048,-1.6048,-1.6048,-1.6048,-1.6048,-1.6048,-1.6048,-1.6048,-1.6048,-1.6048,0.0,0.0,0.0,0.0,0.0,0.0,0.0,0.0,0.0,0.0,0.0,0.0,0.0,0.0,0.0,0.0,0.0,0.0,0.0,0.0,0.0,0.0,0.0,0.0,0.0,0.0,0.0,0.0,0.0,0.0,0.0,0.0,0.0,-0.4264,0.0,-0.3767,-0.2867,-0.2872,-0.2875,-0.2877,-0.2926,-0.2028,-0.0556,-0.0188,0.0,0.0,0.0,0.0,0.0,0.0,0.0,0.0,-0.1671,-0.1675,-0.1673,-0.2154,-0.4742,-0.7209,0.0,0.0,0.0,0.0,0.0,0.0,0.0,0.0,0.0,0.0,0.0,0.0,0.0,0.0,0.0,0.0,0.0,0.0,0.0,0.0,0.0,0.0,0.0,0.0,0.0,0.0,0.0,0.0,0.0,0.0,-1.4968,-1.4968,-1.4968,-1.4968,-1.4968,-1.4968,-1.4968,-1.4968,-1.4984,0.0,-1.5358,-1.5536,-1.5585,-1.5902,-1.6048,-1.6048,-1.6048,-1.6048,-1.6048,-1.6048,-1.6048,-1.6048,-1.6048,-1.6048,-1.6048,-1.6048,-1.6048,-1.6048,0.0,0.0,0.0,0.0,0.0,0.0,0.0,0.0,0.0,0.0,0.0,0.0,0.0,0.0,0.0,0.0,0.0,0.0,0.0,0.0,0.0,0.0,0.0,0.0,0.0,0.0,0.0,0.0,0.0,0.0,0.0,0.0,0.0,-0.433,0.0,-0.3824,-0.2913,-0.2946,-0.2867,-0.2777,-0.1871,-0.0949,0.0,0.0,0.0,0.0,0.0,0.0,0.0,0.0,0.0,0.0,0.0,0.0,-0.1819,-0.2743,-0.4006,-0.5418,0.0,0.0,0.0,0.0,0.0,0.0,0.0,0.0,0.0,0.0,0.0,0.0,0.0,0.0,0.0,0.0,0.0,0.0,0.0,0.0,0.0,0.0,0.0,0.0,0.0,0.0,0.0,0.0,0.0,-1.4968,-1.4968,-1.4968,-1.4968,-1.4968,-1.4968,-1.4968,-1.4968,-1.4968,-1.4968,-1.4968,-1.5342,-1.5601,-1.578,-1.5959,-1.6048,-1.6048,-1.6048,-1.6048,-1.6048,-1.6048,-1.6048,-1.6048,-1.6048,-1.6048,-1.6048,-1.6048,-1.6048,-1.6048,0.0,0.0,0.0,0.0,0.0,0.0,0.0,0.0,0.0,0.0,0.0,0.0,0.0,0.0,0.0,0.0,0.0,0.0,0.0,0.0,0.0,0.0,0.0,0.0,0.0,0.0,0.0,0.0,0.0,0.0,0.0,0.0,0.0,-0.4336,0.0,0.0,-0.2883,-0.2555,-0.2383,-0.2292,-0.0672,0.0,0.0,0.0,0.0,0.0,0.0,0.0,-0.0101,-0.1015,0.0,0.0,0.0,0.0,-0.1974,-0.3339,-0.3141,-0.329,0.0,0.0,0.0,0.0,0.0,0.0,0.0,0.0,0.0,0.0,0.0,0.0,0.0,0.0,0.0,0.0,0.0,0.0,0.0,0.0,0.0,0.0,0.0,0.0,0.0,0.0,0.0,0.0,0.0,-1.4968,-1.4968,-1.4968,-1.4968,-1.4968,-1.4968,-1.4968,-1.4968,-1.4968,-1.4968,-1.4968,-1.5342,-1.5683,-1.5999,-1.6032,-1.6048,-1.6048,-1.6048,-1.6048,-1.6048,-1.6048,-1.6048,-1.6048,-1.6048,-1.6048,-1.6048,-1.6048,-1.6048,-1.6048,0.0,0.0,0.0,0.0,0.0,0.0,0.0,0.0,0.0,0.0,0.0,0.0,0.0,0.0,0.0,0.0,0.0,0.0,0.0,0.0,0.0,0.0,0.0,0.0,0.0,0.0,0.0,0.0,0.0,0.0,0.0,0.0,0.0,0.0,0.0,0.0,0.0,-0.1142,-0.0381,-0.0382,-0.0099,0.0,0.0,0.0,0.0,0.0,0.0,0.0,-0.0,-0.0207,-0.0838,0.0,0.0,0.0,-0.1756,-0.2007,-0.3282,0.0,0.0,0.0,0.0,0.0,0.0,0.0,0.0,0.0,0.0,0.0,0.0,0.0,0.0,0.0,0.0,0.0,0.0,0.0,0.0,0.0,0.0,0.0,0.0,0.0,0.0,0.0,0.0,0.0,-1.4968,-1.4968,-1.4968,-1.4968,-1.4968,-1.4968,-1.4968,-1.4968,-1.4968,-1.4968,-1.4968,-1.4968,-1.5342,-1.5618,-1.5813,-1.5975,-1.6048,-1.6048,-1.6048,-1.6048,-1.6048,-1.6048,-1.6048,-1.6048,-1.6048,-1.6048,-1.6048,-1.6048,-1.6048,-1.6048,0.0,0.0,0.0,0.0,0.0,0.0,0.0,0.0,0.0,0.0,0.0,0.0,0.0,0.0,0.0,-0.6338,-0.6414,-0.6576,-0.6659,-0.6647,0.0,0.0,0.0,0.0,0.0,0.0,0.0,0.0,0.0,0.0,0.0,-0.4686,-0.452,0.0,0.0,0.0,0.0,0.0,0.0,0.0,0.0,-0.2662,-0.6177,-0.1663,0.0,0.0,0.0,0.0,0.0,0.0,-0.032,-0.0759,-0.0982,0.0,0.0,0.0,0.0,0.0,0.0,0.0,0.0,0.0,0.0,0.0,0.0,0.0,0.0,0.0,0.0,0.0,0.0,0.0,0.0,0.0,0.0,0.0,0.0,0.0,0.0,0.0,0.0,0.0,0.0,0.0,0.0,0.0,-1.4968,-1.4968,-1.4968,-1.4968,-1.4968,-1.4968,-1.4968,-1.4968,-1.4968,-1.4968,-1.5017,-1.5122,-1.539,-1.561,-1.578,-1.5959,-1.6048,-1.6048,-1.6048,-1.6048,-1.6048,-1.6048,-1.6048,-1.6048,-1.6048,-1.6048,-1.6048,-1.6048,-1.6048,-1.6048,0.0,0.0,0.0,0.0,0.0,0.0,0.0,0.0,0.0,0.0,0.0,0.0,0.0,0.0,0.0,0.0,-0.6551,-0.6661,-0.6936,-0.6819,0.0,0.0,0.0,0.0,0.0,0.0,0.0,0.0,0.0,0.0,-0.5274,-0.4962,-0.4679,0.0,-0.3044,0.0,0.0,0.0,0.0,0.0,0.0,-0.6553,-1.1199,-0.5252,-0.2388,-0.1331,-0.0324,0.0,0.0,0.0,0.0,0.0,0.0,0.0,0.0,0.0,0.0,0.0,0.0,0.0,0.0,0.0,0.0,0.0,0.0,0.0,0.0,0.0,0.0,0.0,0.0,0.0,0.0,0.0,0.0,0.0,0.0,0.0,0.0,0.0,0.0,0.0,0.0,0.0,0.0,0.0,-1.4968,-1.4968,-1.4968,-1.4968,-1.4968,-1.4968,-1.4968,-1.4968,-1.4968,-1.4968,-1.5033,-1.5171,-1.5407,-1.5585,-1.5715,-1.5943,-1.6048,-1.6048,-1.6048,-1.6048,-1.6048,-1.6048,-1.6048,-1.6048,-1.6048,-1.6048,-1.6048,-1.6048,-1.6048,-1.6048,0.0,0.0,0.0,0.0,0.0,0.0,0.0,0.0,0.0,0.0,0.0,0.0,0.0,-0.6144,-0.637,-0.6592,-0.6433,-0.6433,-0.6785,-0.7007,-0.6919,-0.657,0.0,0.0,0.0,0.0,0.0,0.0,0.0,0.0,-0.5085,-0.509,-0.4843,-0.4225,-0.1408,-0.0101,0.0,0.0,0.0,0.0,0.0,0.0,0.0,0.0,0.0,0.0,0.0,0.0,0.0,0.0,0.0,0.0,0.0,0.0,0.0,0.0,0.0,0.0,0.0,0.0,0.0,0.0,0.0,0.0,0.0,0.0,0.0,0.0,0.0,0.0,0.0,0.0,0.0,0.0,0.0,0.0,0.0,0.0,0.0,0.0,0.0,0.0,0.0,0.0,0.0,0.0,-1.4968,-1.4968,-1.4968,-1.4968,-1.4968,-1.4968,-1.4968,-1.4968,-1.4968,-1.4968,-1.4968,-1.4984,-1.5342,-1.552,-1.5545,-1.5886,-1.6048,-1.6048,-1.6048,-1.6048,-1.6048,-1.6048,-1.6048,-1.6048,-1.6048,-1.6048,-1.6048,-1.6048,-1.6048,-1.6048,0.0,0.0,0.0,0.0,0.0,0.0,0.0,0.0,0.0,0.0,0.0,0.0,0.0,-0.6128,-0.6318,-0.6542,-0.6622,-0.6708,-0.698,-0.6954,-0.6806,-0.6449,0.0,0.0,0.0,0.0,0.0,0.0,0.0,-0.5479,-0.5187,-0.5286,-0.4806,-0.393,-0.2622,-0.132,-0.0,-0.071,0.0,0.0,0.0,0.0,0.0,0.0,0.0,0.0,0.0,0.0,0.0,0.0,0.0,0.0,0.0,0.0,0.0,0.0,0.0,0.0,0.0,0.0,0.0,0.0,0.0,0.0,0.0,0.0,0.0,0.0,0.0,0.0,0.0,0.0,0.0,0.0,0.0,0.0,0.0,0.0,0.0,0.0,0.0,0.0,0.0,0.0,0.0,0.0,0.0,-1.4968,-1.4968,-1.4968,-1.4968,-1.4968,-1.4968,-1.4968,-1.4968,-1.4968,-1.4968,-1.4968,-1.522,-1.5398,-1.5528,-1.5764,-1.5934,-1.6048,-1.6048,-1.6048,-1.6048,-1.6048,-1.6048,-1.6048,-1.6048,-1.6048,-1.6048,-1.6048,-1.6048,-1.6048,0.0,0.0,0.0,0.0,0.0,0.0,0.0,0.0,0.0,0.0,0.0,0.0,0.0,0.0,-0.6207,-0.6251,-0.6509,-0.6711,-0.6847,-0.677,-0.6706,-0.6563,-0.6379,0.0,0.0,0.0,0.0,0.0,0.0,0.0,0.0,0.0,-0.4681,-0.3767,-0.3278,0.0,0.0,0.0,0.0,-0.0854,0.0,0.0,-1.1838,0.0,0.0,0.0,0.0,0.0,0.0,0.0,0.0,0.0,0.0,0.0,0.0,0.0,0.0,0.0,0.0,0.0,0.0,0.0,0.0,-0.9094,-1.2169,0.0,-1.2783,-1.2824,-1.2929,-1.3068,-1.3246,-1.3433,0.0,0.0,0.0,0.0,0.0,0.0,0.0,0.0,0.0,0.0,0.0,0.0,0.0,0.0,0.0,0.0,-1.496,-1.4968,-1.4968,-1.4968,-1.4968,-1.4968,-1.4968,-1.4968,-1.4968,-1.4968,-1.5147,-1.5333,-1.552,-1.5691,-1.5869,-1.6048,-1.6048,-1.6048,-1.6048,-1.6048,-1.6048,-1.6048,-1.6048,-1.6048,-1.6048,-1.6048,-1.6048,-1.6048,0.0,0.0,0.0,0.0,0.0,0.0,0.0,0.0,0.0,0.0,0.0,0.0,0.0,0.0,0.0,-0.5791,-0.6169,-0.6406,-0.6447,-0.6551,-0.6611,-0.6738,-0.6555,-0.6178,0.0,0.0,0.0,0.0,0.0,0.0,0.0,0.0,-0.4457,0.0,-0.3063,-0.2108,-0.0934,0.0,-0.063,-0.1824,0.0,-0.8194,-1.175,0.0,0.0,0.0,-1.039,-1.1845,0.0,0.0,0.0,0.0,0.0,0.0,0.0,0.0,0.0,0.0,0.0,0.0,0.0,0.0,0.0,0.0,-1.0548,0.0,-1.28,-1.2808,-1.2832,-1.2889,-1.3059,-1.3246,-1.3482,-1.3839,-1.3896,0.0,0.0,0.0,0.0,0.0,0.0,0.0,0.0,0.0,0.0,0.0,-1.4708,-1.4781,-1.496,-1.4968,-1.4968,-1.4968,-1.4968,-1.4968,-1.4968,-1.4968,-1.4968,-1.4968,-1.5147,-1.5333,-1.552,-1.5691,-1.5869,-1.6048,-1.6048,-1.6048,-1.6048,-1.6048,-1.6048,-1.6048,-1.6048,-1.6048,-1.6048,-1.6048,-1.6048,-1.6048,0.0,0.0,0.0,0.0,0.0,0.0,0.0,0.0,0.0,0.0,0.0,0.0,0.0,0.0,0.0,-0.6218,-0.6483,-0.6647,-0.6683,-0.6216,-0.6045,-0.6455,-0.5973,-0.5731,-0.5823,0.0,0.0,0.0,0.0,0.0,0.0,0.0,0.0,0.0,-0.2764,-0.2354,-0.1508,-0.1277,0.0,0.0,-0.3729,-0.7709,0.0,0.0,0.0,0.0,0.0,-1.1804,0.0,0.0,-1.0215,-0.927,0.0,0.0,0.0,0.0,0.0,0.0,-0.0115,0.0,0.0,0.0,0.0,0.0,-0.3038,-0.8386,-1.2775,-1.2816,-1.2767,-1.2889,-1.3059,-1.3246,-1.3449,-1.3677,-1.3823,-1.3904,-1.3904,-1.3904,0.0,0.0,0.0,0.0,0.0,0.0,0.0,0.0,-1.4635,-1.4781,-1.496,-1.4968,-1.4968,-1.4968,-1.4968,-1.4968,-1.4968,-1.4968,-1.4968,-1.4968,-1.5017,-1.5212,-1.552,-1.5569,-1.5756,-1.6048,-1.6048,-1.6048,-1.6048,-1.6048,-1.6048,-1.6048,-1.6048,-1.6048,-1.6048,-1.6048,-1.6048,-1.6048,0.0,0.0,0.0,0.0,0.0,0.0,0.0,0.0,0.0,0.0,0.0,0.0,0.0,0.0,0.0,-0.5986,-0.6045,-0.62,-0.6255,-0.6064,-0.608,-0.6418,-0.5909,-0.5748,-0.5743,-0.5664,0.0,0.0,0.0,0.0,0.0,0.0,0.0,0.0,0.0,0.0,0.0,0.0,0.0,0.0,-0.4576,0.0,0.0,-1.0016,-1.0465,0.0,0.0,0.0,-1.1829,-1.1852,-1.116,0.0,0.0,0.0,0.0,0.0,0.0,0.0,0.0,0.0,0.0,0.0,0.0,0.0,-0.2271,-0.6536,-1.0697,0.0,-1.2783,-1.2865,-1.297,-1.3133,-1.3311,-1.3498,-1.3677,-1.3823,-1.3888,-1.3904,-1.3904,-1.3904,0.0,0.0,0.0,-1.4002,-1.4131,-1.431,-1.4489,-1.47,-1.4952,-1.4968,-1.4968,-1.4968,-1.4968,-1.4968,-1.4968,-1.4968,-1.4968,-1.4968,-1.4968,-1.5155,-1.5512,-1.5512,-1.5707,-1.6048,-1.6048,-1.6048,-1.6048,-1.6048,-1.6048,-1.6048,-1.6048,-1.6048,-1.6048,-1.6048,-1.6048,-1.6048,0.0,0.0,0.0,0.0,0.0,0.0,0.0,0.0,0.0,0.0,0.0,0.0,0.0,0.0,0.0,0.0,-0.526,-0.5307,-0.5498,-0.5801,-0.6142,-0.6253,-0.5957,-0.566,-0.5367,-0.5083,0.0,0.0,0.0,0.0,0.0,0.0,0.0,0.0,0.0,0.0,0.0,0.0,0.0,-0.1802,-0.6369,-0.9701,0.0,0.0,-1.1744,0.0,-1.1794,-1.1827,-1.1827,-1.1815,-1.0465,0.0,0.0,0.0,0.0,0.0,0.0,0.0,0.0,0.0,0.0,0.0,0.0,0.0,-0.4693,-0.5882,-0.7355,-1.0981,-1.1863,-1.2025,-1.2025,-1.2155,-1.2315,-1.2452,-1.2928,-1.3412,-1.388,-1.3904,-1.3904,-1.3904,-1.3904,0.0,-1.3904,-1.3904,-1.3977,-1.4164,-1.4351,-1.4603,-1.4919,-1.4952,-1.4968,-1.4968,-1.4968,-1.4968,-1.4968,-1.4968,-1.4968,-1.4968,-1.4968,-1.5147,-1.5488,-1.5504,-1.5699,-1.6016,-1.604,-1.6048,-1.6048,-1.6048,-1.6048,-1.6048,-1.6048,-1.6048,-1.6048,-1.6048,-1.6048,-1.6048,-0.1418,0.0,0.0,0.0,0.0,0.0,0.0,0.0,0.0,0.0,0.0,0.0,0.0,0.0,0.0,0.0,-0.4839,-0.4988,-0.5214,-0.471,-0.4649,-0.5146,-0.4534,-0.415,-0.4106,-0.3988,-0.389,0.0,0.0,0.0,0.0,0.0,0.0,0.0,0.0,0.0,0.0,0.0,0.0,-0.4455,-0.6331,0.0,-1.1811,-1.1744,-1.1741,-1.1823,-1.1848,-1.179,-1.1802,0.0,-1.1565,-1.0194,0.0,0.0,0.0,0.0,0.0,0.0,0.0,0.0,0.0,0.0,0.0,0.0,0.0248,-0.2655,-0.5404,-0.4907,-0.5915,-0.6801,-0.6801,-0.6879,-0.7062,-0.6866,-0.901,-1.1402,-1.3587,-1.3904,-1.3904,-1.3904,-1.3904,0.0,-1.3904,-1.3904,-1.3977,-1.4164,-1.4473,-1.4684,-1.4757,-1.4887,-1.4968,-1.4968,-1.4968,-1.4968,-1.4968,-1.4968,-1.4968,-1.4968,-1.4968,-1.5082,-1.5301,-1.5447,-1.5626,-1.5837,-1.5983,-1.6048,-1.6048,-1.6048,-1.6048,-1.6048,-1.6048,-1.6048,-1.6048,-1.6048,-1.6048,-1.6048,-0.1436,0.0,0.0,0.0,0.0,0.0,0.0,0.0,0.0,0.0,0.0,0.0,0.0,0.0,0.0,0.0,0.0,0.0,0.0,0.0,-0.4683,-0.4934,-0.4306,-0.3903,-0.394,-0.3619,-0.342,0.0,0.0,0.0,0.0,0.0,0.0,0.0,0.0,0.0,0.0,0.0,-0.2263,-0.3676,-0.5899,0.0,-1.1837,-1.1741,-1.184,-1.1776,-1.1776,-1.1784,-1.1913,-1.184,-1.1889,0.0,0.0,-0.778,-0.915,0.0,-0.3405,0.0,0.0,0.0,0.0,0.0,0.0,0.0,0.0,-0.1653,-0.3868,-0.3002,-0.4097,-0.5335,-0.5335,-0.5369,-0.5517,-0.5478,-0.7825,-0.9829,-0.9829,-1.215,-1.3904,-1.3904,-1.3904,-1.3904,-1.3904,-1.3904,-1.3977,-1.4164,-1.4424,-1.4611,-1.47,-1.4871,-1.4968,-1.4968,-1.4968,-1.4968,-1.4968,-1.4968,-1.4968,-1.4968,-1.4968,-1.5065,-1.5244,-1.5431,-1.561,-1.578,-1.5967,-1.6048,-1.6048,-1.6048,-1.6048,-1.6048,-1.6048,-1.6048,-1.6048,-1.6048,-1.6048,-1.6048,-0.1453,0.0,0.0,0.0,0.0,0.0,0.0,0.0,0.0,0.0,0.0,0.0,0.0,0.0,0.0,0.0,0.0,0.0,0.0,0.0,0.0,-0.505,-0.4286,-0.3972,-0.4213,-0.3447,-0.3031,-0.3184,0.0,0.0,0.0,0.0,0.0,0.0,0.0,0.0,0.0,0.0,0.0,-0.2669,0.0,-0.8555,-1.1844,-1.1831,-1.1784,-1.1841,-1.1874,-1.1963,-1.2077,-1.2052,0.0,-1.1987,-1.2308,-1.2619,0.0,0.0,0.0,0.0,0.0,0.0,0.0,0.0,0.0,0.1754,0.0,0.0,0.0,-0.1853,-0.2931,0.0,0.0,0.0,0.0,0.0,0.0,0.0,0.0,-0.9093,0.0,-1.2201,-1.327,-1.3737,-1.312,-1.2978,-1.334,-1.4107,-1.3798,-1.3816,-1.4643,-1.4822,-1.4927,-1.4968,-1.4968,-1.4968,-1.4968,-1.4968,-1.4968,-1.4968,-1.4968,-1.5041,-1.5195,-1.5415,-1.5593,-1.574,-1.5951,-1.6048,-1.6048,-1.6048,-1.6048,-1.6048,-1.6048,-1.6048,-1.6048,-1.6048,-1.6048,-1.6048,-0.1516,0.0,0.0,0.0,0.0,0.0,0.0,0.0,0.0,0.0,0.0,0.0,0.0,0.0,0.0,0.0,0.0,0.0,-0.5764,0.0,0.0,-0.5439,-0.3731,-0.3206,-0.4315,-0.2807,-0.2009,-0.2014,0.0,0.0,0.0,0.0,0.0,0.0,-0.5013,0.0,0.0,0.0,-0.5659,0.0,-0.477,-0.7568,0.0,-1.1782,-1.1938,-1.2077,-1.2199,-1.2255,-1.2255,0.0,-1.219,-1.2406,0.0,-1.2357,0.0,0.0,0.0,0.0,0.0,0.0,0.0,0.0,0.1146,0.0,0.0,0.0,0.1578,0.1583,0.0,0.0,0.0,0.0,0.0,0.0,0.0,0.0,-0.1584,-0.3944,-0.5994,-0.6275,-1.0825,-1.2821,-1.0235,-0.9941,-1.1005,-1.3769,-1.1599,-1.1438,-1.4292,-1.4635,-1.4806,-1.496,-1.4968,-1.4968,-1.4968,-1.4968,-1.4968,-1.4968,-1.4968,-1.4976,-1.5009,-1.5358,-1.5528,-1.5561,-1.5902,-1.6048,-1.6048,-1.6048,-1.6048,-1.6048,-1.6048,-1.6048,-1.6048,-1.6048,-1.6048,-1.6048,-0.144,0.0,0.0,0.0,0.0,0.0,0.0,0.0,0.0,0.0,0.0,0.0,0.0,0.0,0.0,0.0,0.0,-0.5989,0.0,0.0,0.0,0.0,-0.3228,-0.2794,-0.3056,-0.2251,-0.1795,-0.1795,-0.1795,0.0,0.0,0.0,0.0,0.0,-0.469,0.0,-0.4763,0.0,0.0,0.0,0.0,0.0,0.0,-1.2028,-1.2012,-1.2223,-1.2288,-1.2369,-1.2442,0.0,-1.0799,0.0,0.0,0.0,0.0,0.0,0.0,0.0,0.0,0.0,0.0,0.0,0.0,0.0,0.0,0.0,0.2114,0.0,0.0,0.0,0.0,0.0,0.0,0.0,0.0402,0.0,0.0,0.0,-0.4857,0.0,0.0,0.0,-0.9349,0.0,0.0,-1.3753,-1.282,-1.2787,-1.4278,-1.4554,-1.4741,-1.4814,-1.4911,-1.4968,-1.4968,-1.4968,-1.4968,-1.4968,-1.4968,-1.4968,-1.4976,-1.535,-1.5512,-1.5536,-1.5894,-1.6048,-1.6048,-1.6048,-1.6048,-1.6048,-1.6048,-1.6048,-1.6048,-1.6048,-1.6048,-1.6048,0.0,0.0,0.0,0.0,0.0,0.0,0.0,0.0,0.0,0.0,0.0,0.0,-0.3321,-0.3792,0.0,0.0,0.0,-0.6874,0.0,0.0,-0.5745,0.0,-0.3385,0.0,0.0,0.0,-0.1795,-0.1795,0.0,0.0,0.0,0.0,0.0,0.0,0.0,-0.5586,-0.7327,0.0,0.0,-0.4246,-0.7906,-1.0703,-1.2708,-1.2357,-1.2272,-1.2385,-1.2434,-1.2532,-1.2629,-1.2596,-1.067,0.0,-1.0384,0.0,0.0,0.0,0.0,0.0,-0.2186,0.0,0.0,0.0,0.0,0.0,0.0,0.0,0.0,0.0,0.0,0.0,0.0,0.0,0.0,0.0,0.0,0.081,0.0,0.0135,0.0,0.0,0.0,0.0,0.0,-1.0088,-1.1747,-1.2656,-1.2783,-1.3328,-1.4172,-1.4464,-1.4651,-1.4708,-1.4879,-1.4968,-1.4968,-1.4968,-1.4968,-1.4968,-1.4968,-1.4968,-1.4976,-1.5293,-1.5463,-1.5536,-1.5837,-1.5999,-1.6048,-1.6048,-1.6048,-1.6048,-1.6048,-1.6048,-1.6048,-1.6048,-1.6048,-1.6048,0.0,-0.1384,0.0,0.0,0.0,0.0,0.0,0.0,0.0,0.0,0.0,0.0,0.0,0.0,0.0,0.0,0.0,-1.1063,-0.9689,0.0,-0.7891,0.0,0.0,-0.3638,0.0,0.0,0.0,-0.1795,0.0,0.0,0.0,0.0,0.0,0.0,0.0,-0.6405,-0.8462,-1.0686,-1.1701,-1.1697,-1.1953,-1.2264,-1.2556,0.0,-1.2718,-1.258,-1.2759,0.0,0.0,-1.2808,-1.2759,0.0,0.0,0.0,0.0,0.0,0.0,0.0,0.0,0.0,0.0,0.1973,0.0,0.0,0.0,0.0,0.2154,0.0,0.0,0.0,0.0,0.0,0.0,0.0,0.0,0.0,0.0,0.0,0.0,0.0,0.0,0.0,0.0,-0.5002,-0.6287,-0.9349,-0.9501,-1.0909,-1.4011,-1.4343,-1.4521,-1.47,-1.4879,-1.4968,-1.4968,-1.4968,-1.4968,-1.4968,-1.4968,-1.4968,-1.4968,-1.5163,-1.5342,-1.5528,-1.5707,-1.5886,-1.6048,-1.6048,-1.6048,-1.6048,-1.6048,-1.6048,-1.6048,-1.6048,-1.6048,-1.6048,0.0,0.0,0.0,0.0,0.0,0.0,0.0,-0.1884,0.0,0.0,0.0,0.0,0.0,0.0,-0.7931,0.0,0.0,-0.9996,-0.9703,-0.8225,0.0,0.0,0.0,-0.3205,0.0,0.0,0.0,0.0,0.0,0.0,0.0,0.0,0.0,0.0,0.0,-0.5983,0.0,0.0,0.0,0.0,0.0,-1.2515,-1.2483,0.0,0.0,-1.2751,-1.2816,-1.284,0.0,-1.2783,-1.2841,-1.2499,-1.1062,-1.1667,-1.2532,-1.1069,-1.1012,0.0,0.0,0.0,-0.6954,-0.2257,0.0,0.0,0.0,0.0,0.0,0.0,0.0,0.0,0.0,0.0,0.0,0.0,0.0,0.0,0.0,0.0,0.0,0.0,0.0,0.0,0.0,0.0,0.0,-0.9349,-1.1288,-1.2843,-1.3985,-1.427,-1.4464,-1.4521,-1.4814,-1.4968,-1.4968,-1.4968,-1.4968,-1.4968,-1.4968,-1.4968,-1.4968,-1.5155,-1.5342,-1.5528,-1.5699,-1.5878,-1.6048,-1.6048,-1.6048,-1.6048,-1.6048,-1.6048,-1.6048,-1.6048,-1.6048,-1.6048,-0.0112,0.0,0.0,0.0,0.0,0.0,0.0,0.0,0.0,0.0,-0.5188,0.0,-0.6905,0.0,-0.8778,0.0,-0.9877,-1.0025,-0.954,-0.8534,0.0,-0.7982,-0.5377,0.0,0.0,0.0,0.0,0.0,0.0,-0.1885,0.0,0.0,0.0,0.0,0.0,0.0,-0.7079,0.0,-1.1518,0.0,0.0,-1.271,0.0,0.0,-1.2743,-1.2856,0.0,-1.284,-1.284,-1.284,-1.2775,-1.2849,-1.2808,-1.2857,-1.2759,-1.2816,-1.2743,-1.2775,-1.2749,-1.2204,0.0,-0.5919,-0.5137,0.0,-0.027,0.0,0.0,0.0,0.0,0.0,0.0,0.0,0.0,0.0,0.0,0.0,0.0,0.4308,0.0,0.0,0.0,0.0,0.0,-0.3732,-0.7008,-0.9203,-1.1147,-1.2813,0.0,0.0,-1.4367,-1.4432,-1.4716,-1.4903,-1.4968,-1.4968,-1.4968,-1.4968,-1.4968,-1.4968,-1.4968,-1.509,-1.5277,-1.552,-1.5634,-1.5821,-1.6048,-1.6048,-1.6048,-1.6048,-1.6048,-1.6048,-1.6048,-1.6048,-1.6048,-1.6048,0.0,0.0,0.0,0.0,-0.1797,0.0,0.0,0.0,-0.253,0.0,-0.6773,-0.8149,-0.7529,-1.003,-1.1328,-0.9975,-1.1086,0.0,-0.9585,-0.9333,0.0,0.0,-0.7757,-0.7562,-0.9235,0.0,0.0,0.0,0.0,0.0,0.0,0.0,0.0,0.0,-0.1933,0.0,-0.7027,-0.8557,-1.0489,-1.2596,-1.2767,-1.284,-1.284,-1.284,-1.2865,-1.2773,-1.2856,-1.284,-1.284,-1.2848,-1.2848,-1.2848,-1.2856,-1.2865,-1.2865,-1.2865,-1.2865,-1.2873,-1.2781,-1.1242,-0.942,-0.8476,0.0,0.0,0.0,0.0,-0.2051,0.0,0.0,0.0,0.0,0.0,0.0,0.0,0.0,0.0,0.0,0.0,0.0,0.0,0.0,0.2971,0.0272,-0.0273,-0.2893,-0.8755,-0.9355,-1.0703,0.0,0.0,-1.4107,-1.4424,-1.4611,-1.4789,-1.496,-1.4968,-1.4968,-1.4968,-1.4968,-1.4968,-1.4968,-1.4968,-1.5163,-1.5512,-1.5512,-1.5715,-1.6048,-1.6048,-1.6048,-1.6048,-1.6048,-1.6048,-1.6048,-1.6048,-1.6048,-1.6048,0.1234,-0.0336,-0.1463,0.0,-0.16,-0.1829,0.0,0.0,0.0,0.0,-0.7931,-0.962,-1.0708,-1.1626,-1.1985,-1.172,-1.2017,0.0,0.0,0.0,0.0,-1.1533,-0.8622,-0.7769,-0.9379,-0.6133,0.0,-0.4422,0.0,0.0,-0.1954,0.0,0.0,0.0,0.0,0.0,-0.5765,-0.9949,-1.2122,-1.2775,-1.2816,-1.2856,0.0,0.0,-1.2946,-1.3084,-1.2897,-1.284,-1.2856,-1.2986,-1.3027,-1.3051,-1.3189,-1.3238,-1.3238,-1.3238,-1.3238,-1.3238,-1.3246,-1.2854,-1.1905,-0.9823,-0.8878,-0.8055,0.0,0.0,0.0,0.0,0.0,0.0,0.0,0.0,0.0,0.0,0.0,0.0,0.0,0.0,0.0,0.4308,0.0,0.1492,0.2971,-0.0957,-0.4292,-0.5855,-0.8096,-1.0649,-1.3753,0.0,0.0,-1.4276,-1.4611,-1.4789,-1.496,-1.4968,-1.4968,-1.4968,-1.4968,-1.4968,-1.4968,-1.4968,-1.5163,-1.5512,-1.5512,-1.5715,-1.6048,-1.6048,-1.6048,-1.6048,-1.6048,-1.6048,-1.6048,-1.6048,-1.6048,-1.6048,0.1346,0.0,0.0,-0.1043,0.0,0.0,-0.3255,0.0,0.0,-0.6469,-0.7818,0.0,-1.0762,-1.1815,-1.2304,-1.2304,-1.2304,0.0,0.0,0.0,0.0,-1.1277,-1.0086,-0.9751,-1.0747,-0.8189,0.0,-0.5636,0.0,0.0,-0.1977,0.0,0.0,0.0,0.0,-0.2139,0.0,-1.0038,-1.2865,-1.2865,-1.2848,0.0,0.0,-1.2962,-1.3084,-1.3246,-1.3116,-1.3068,-1.3084,-1.3181,-1.3214,-1.323,-1.3336,-1.3368,-1.3368,-1.3368,-1.3368,-1.3368,-1.3368,-1.3433,-1.3205,-1.165,-1.1413,-1.0874,-0.8283,-0.7715,-0.7715,0.0,0.0,0.0,0.0,0.0,0.0,0.0,0.0,0.0,0.0,0.0,0.0,0.0,0.3107,0.2839,0.4174,-0.1232,-0.473,-0.4759,-0.6386,-0.8031,-0.9672,0.0,0.0,-1.2303,-1.3768,-1.4708,-1.496,-1.4968,-1.4968,-1.4968,-1.4968,-1.4968,-1.4968,-1.4968,-1.5163,-1.5512,-1.5512,-1.5715,-1.6048,-1.6048,-1.6048,-1.6048,-1.6048,-1.6048,-1.6048,-1.6048,-1.6048,-1.6048,0.0,0.0,0.0,0.0,0.0,0.0,0.0,-0.4202,0.0,-0.6779,0.0,-0.8329,-0.9857,-1.1404,-1.2418,-1.2314,0.0,-1.1795,-1.0371,-1.1644,-1.1764,-1.0344,-1.1591,-1.2345,-1.2345,-1.0777,0.0,0.0,0.0,0.0,0.0,0.0,0.0,0.0,0.0,0.0,0.0,-0.9312,-1.2484,-1.2757,-1.2873,-1.2962,-1.3092,-1.3124,-1.3246,-1.3409,-1.3409,-1.3392,-1.3376,-1.3401,-1.3409,-1.3409,-1.3433,-1.3441,-1.3441,-1.3441,-1.3441,-1.3441,-1.3441,-1.3555,-1.3677,-1.3677,-1.379,-1.3278,-1.0979,-1.0383,-1.0383,-1.0383,-0.8594,-0.8303,0.0,0.0,0.0,0.0,0.0,0.0,0.0,0.0,0.0,0.0,0.0,0.0,0.4308,-0.082,-0.4177,-0.4092,-0.4102,-0.4416,-0.5195,0.0,0.0,-1.0345,-1.3067,-1.4603,-1.496,0.0,-1.4968,-1.4968,-1.4968,-1.4968,-1.4968,-1.4968,-1.5163,-1.5512,-1.5512,-1.5715,-1.6048,-1.6048,-1.6048,-1.6048,-1.6048,-1.6048,-1.6048,-1.6048,-1.6048,-1.6048,0.0,0.0,0.0,0.0,0.0,-0.628,-0.8964,-0.8476,-0.8251,-0.9237,-1.0672,-1.1607,-1.2011,-1.2444,-1.2736,-1.2744,-1.2903,0.0,0.0,0.0,0.0,-1.2547,-1.254,-1.2515,-1.2515,-1.0827,-0.8961,0.0,0.0,0.0,0.0,0.0,0.0,0.0,0.0,0.0,-0.5635,-0.8228,0.0,-1.2856,-1.2994,-1.3068,-1.3108,-1.3262,-1.3433,-1.3595,-1.3595,-1.3498,-1.3392,-1.3547,-1.3595,-1.362,-1.3766,-1.3807,-1.3807,-1.3807,-1.3807,-1.3807,-1.3807,-1.3831,-1.3855,-1.3855,-1.388,-1.3745,-1.3278,-1.327,-1.327,-1.327,-1.2813,-1.2087,-1.0693,0.0,0.0,0.0,0.0,0.0,0.0,0.0,0.0,0.0,0.0,-0.1095,0.0,0.1358,-0.0688,-0.0976,-0.0987,-0.3135,-0.8217,0.0,0.0,0.0,-1.4128,0.0,0.0,0.0,-1.4968,-1.4968,-1.4968,-1.4968,-1.4968,-1.4968,-1.5163,-1.5512,-1.5512,-1.5715,-1.6048,-1.6048,-1.6048,-1.6048,-1.6048,-1.6048,-1.6048,-1.6048,-1.6048,-1.6048,0.0,0.0,0.0,0.0,0.0,0.0,0.0,-1.0541,0.0,-0.9466,-0.9967,-1.0498,-1.0518,-1.2165,-1.3134,-1.3215,-1.3223,-1.3223,-1.3368,-1.3287,-1.3238,-1.3238,-1.3076,0.0,-1.284,-1.1957,-1.0123,-0.7265,0.0,0.0,0.0,0.0,0.0,0.0,0.0,-0.8662,0.0,0.0,0.0,-1.3157,-1.3214,-1.3295,-1.3384,-1.3482,-1.362,-1.3774,-1.3774,-1.3717,-1.366,-1.375,-1.3774,-1.379,-1.3872,-1.3904,-1.3904,-1.3904,-1.3904,-1.3904,-1.3904,-1.3904,-1.3904,-1.3904,-1.3904,-1.3904,-1.3904,-1.3904,-1.3904,-1.3904,-1.3904,-1.3024,-1.0269,-0.7183,0.0,0.0,0.0,0.0,0.0,0.0,0.0,0.0,0.0,0.0,0.0,0.0,0.0,0.0,0.0,-0.214,-0.6634,0.0,-0.6865,0.0,0.0,0.0,0.0,0.0,0.0,-1.4968,-1.4968,-1.4968,-1.4968,-1.4968,-1.5163,-1.5512,-1.5512,-1.5715,-1.6048,-1.6048,-1.6048,-1.6048,-1.6048,-1.6048,-1.6048,-1.6048,-1.6048,-1.6048,0.0,0.122,0.0,0.0,-0.7912,0.0,-1.1143,-1.1347,-1.0898,-0.9839,-0.951,-0.9349,-0.9757,-1.2094,-1.3587,-1.362,-1.3482,-1.3343,-1.3482,-1.3587,-1.3571,-1.3433,-1.3392,-1.3303,-1.3157,-1.3157,-1.1524,0.0,0.0,0.0,0.0,0.0,0.0,0.0,0.0,0.0,0.0,0.0,-1.3311,-1.3425,-1.3425,-1.3514,-1.3644,-1.3685,-1.3782,-1.3904,-1.3904,-1.3904,-1.3904,-1.3904,-1.3904,-1.3904,-1.3904,-1.3904,-1.3904,-1.3904,-1.3904,-1.3904,-1.3904,-1.3904,-1.3904,-1.3904,-1.3904,-1.3904,-1.3904,-1.3904,-1.3904,-1.3904,-1.3904,-1.3016,-1.0227,-0.8007,0.0,0.0,0.0,0.0,0.0,0.0,0.0,0.0,0.0,0.0,-0.1232,0.0,0.0,0.0,0.0,-0.128,-0.4475,-0.4621,-0.613,0.0,0.0,-1.3664,-1.3961,0.0,-1.4968,-1.4968,-1.4968,-1.4968,-1.4968,-1.4968,-1.5163,-1.5512,-1.5512,-1.5876,-1.6525,-1.7018,-1.6854,-1.6525,-1.6525,-1.6369,-1.6048,-1.6048,-1.6048,-1.6048,0.0,0.0,0.0,0.0,0.0,0.0,0.0,-1.1193,-1.1393,-1.1783,-1.1927,-1.2138,-1.2882,-1.3488,-1.3842,-1.3839,-1.3855,-1.3855,-1.3855,-1.385,-1.3768,-1.362,-1.3457,-1.336,-1.3344,-1.3344,-1.2353,0.0,0.0,0.0,0.0,0.0,0.0,0.0,0.0,0.0,0.0,-1.3554,-1.3401,-1.3392,-1.3555,-1.3628,-1.366,-1.3815,-1.3888,-1.3904,-1.3904,-1.3904,-1.3904,-1.3904,-1.3904,-1.3904,-1.3904,-1.3904,-1.3904,-1.3904,-1.3904,-1.3904,-1.3904,-1.3904,-1.3904,-1.3904,-1.3904,-1.3904,-1.3904,-1.3904,-1.3904,-1.3904,-1.3904,-1.2978,-0.9959,-1.1463,-1.2222,0.0,0.0,0.0,0.0,0.0,0.0,0.0,0.0,0.0,0.0,-0.4013,0.0,0.0,-0.1401,-0.1127,-0.4472,-0.4621,-0.6101,-0.9432,0.0,-1.0266,-1.0556,-1.3472,-1.4968,-1.4968,-1.4968,-1.4968,-1.4968,-1.4968,-1.5163,-1.5512,-1.5512,-1.6664,-1.8463,-2.0089,-1.9765,-1.83,-1.83,-1.7337,-1.6048,-1.6048,-1.6048,-1.6048,0.0,0.0,0.0,0.0,0.0,0.0,0.0,-1.1274,-1.1475,-1.1847,-1.1769,-1.1762,-1.2335,-1.3231,-1.3847,-1.3896,-1.3904,-1.3904,-1.3904,-1.3839,-1.3798,-1.3798,-1.3725,-1.3636,-1.3539,-1.3539,-1.2635,0.0,0.0,0.0,0.0,0.0,0.0,0.0,0.0,-1.3758,-1.3743,-1.3571,-1.3612,-1.3693,-1.3766,-1.3798,-1.3807,-1.3872,-1.3904,-1.3904,-1.3904,-1.3904,-1.3904,-1.3904,-1.3904,-1.3904,-1.3904,-1.3904,-1.3904,-1.3904,-1.3904,-1.3904,-1.3904,-1.3904,-1.3904,-1.3904,-1.3904,-1.3904,-1.3904,-1.3904,-1.3904,-1.3904,-1.3904,-1.3587,-1.2357,-1.1598,-1.1443,0.0,0.0,0.0,0.0,0.0,0.0,0.0,0.0,0.0,0.0,0.0,0.0,0.0,0.0,-0.3258,-0.4475,-0.6398,-0.8226,-0.9672,0.0,-1.2835,-1.2984,-1.4298,-1.4968,-1.4968,-1.4968,-1.4968,-1.4968,-1.4968,-1.5776,-1.7092,-1.8436,-1.9443,-2.0241,-2.0899,-2.0727,-2.0079,-1.8952,-1.8137,-1.7501,-1.6369,-1.6048,-1.6048,-1.0261,0.0,-1.1524,0.0,-1.1386,-1.1331,-1.1423,-1.1491,-1.1558,-1.1667,-1.1619,-1.1442,-1.1633,-1.2827,-1.373,-1.3914,-1.3922,-1.4066,-1.4058,-1.401,-1.3985,-1.3985,-1.3928,0.0,-1.3725,-1.3717,-1.3083,-1.1685,-1.1151,0.0,0.0,0.0,0.0,0.0,-1.2234,-1.3751,-1.3915,-1.3734,-1.379,-1.3904,-1.3904,-1.3904,-1.3904,-1.3904,-1.3904,-1.3904,-1.3904,-1.3904,-1.3904,-1.3904,-1.3904,-1.3904,-1.3904,-1.3904,-1.3904,-1.3904,-1.3904,-1.3904,-1.3904,-1.3904,-1.3904,-1.3904,-1.3904,-1.3904,-1.3904,-1.3904,-1.3904,-1.3904,-1.3904,-1.3904,-1.3904,-1.2201,-1.1443,-1.3587,0.0,0.0,0.0,0.0,0.0,0.0,-1.0605,-0.94,-0.94,-0.7196,0.0,0.0,0.0,0.0,-0.6094,-0.8198,0.0,0.0,0.0,0.0,0.0,-1.4467,-1.4968,-1.4968,-1.4968,-1.4968,-1.4968,-1.5683,-1.6649,-1.8188,-2.0857,-2.2028,-2.2028,-2.251,-2.251,-2.1867,-2.0079,-1.943,-1.9115,-1.6854,-1.6369,-1.6689,-1.141,-1.1667,-1.1532,-1.165,-1.153,-1.1436,-1.1592,-1.1735,-1.183,-1.2129,-1.1959,-1.1837,-1.183,-1.2714,-1.3382,-1.3831,-1.4159,-1.4456,-1.4424,-1.427,-1.4326,0.0,0.0,-1.3904,-1.3896,-1.3896,-1.3896,-1.3896,0.0,0.0,-0.9302,0.0,-1.3838,-1.385,-1.3858,-1.3924,-1.3896,-1.3896,-1.3896,-1.3904,-1.3904,-1.3904,-1.3904,-1.3904,-1.3904,-1.3904,-1.3904,-1.3904,-1.3904,-1.3904,-1.3904,-1.3904,-1.3904,-1.3904,-1.3904,-1.3904,-1.3904,-1.3904,-1.3904,-1.3904,-1.3904,-1.3904,-1.3904,-1.3904,-1.3904,-1.3904,-1.3904,-1.3904,-1.3904,-1.3904,-1.3904,-1.3896,-1.3896,-1.3904,0.0,0.0,0.0,0.0,0.0,0.0,-0.938,-0.9231,-0.9231,-0.9231,0.0,0.0,0.0,0.0,0.0,0.0,0.0,-0.975,-1.0016,0.0,-1.023,-1.3312,-1.4968,-1.4968,-1.4968,-1.4968,-1.513,-1.7189,-1.8002,-1.8346,-2.2134,-2.3816,-2.3976,-2.5581,-2.5263,-2.3656,-2.1867,-2.1222,-2.0737,-1.7346,-1.7009,-1.83,-1.1532,-1.1587,-1.1698,-1.1653,-1.1694,-1.1742,-1.1898,-1.1959,-1.1993,-1.2141,-1.2033,-1.2081,-1.2135,-1.2657,-1.3208,0.0,-1.3854,-1.4151,0.0,-1.4383,-1.4351,-1.4351,-1.4294,-1.4213,-1.4091,-1.4091,-1.4026,-1.3904,0.0,0.0,0.0,-1.3432,-1.3949,-1.3839,-1.3839,-1.3863,-1.3904,-1.3904,-1.3904,-1.3904,-1.3904,-1.3904,-1.3904,-1.3904,-1.3904,-1.3904,-1.3904,-1.3904,-1.3904,-1.3904,-1.3985,-1.4091,-1.4091,-1.4002,-1.3904,-1.3904,-1.3904,-1.3904,-1.3904,-1.3904,-1.3904,-1.3904,-1.3904,-1.3904,-1.3904,-1.3904,-1.3904,-1.3904,-1.3904,-1.3904,-1.3904,-1.3904,-1.3904,-1.3904,-1.3904,0.0,0.0,0.0,0.0,0.0,-1.2437,-1.2437,-1.2437,-1.2539,0.0,0.0,0.0,0.0,0.0,0.0,0.0,0.0,-1.2298,0.0,-1.3465,-1.446,-1.4968,-1.4968,-1.4968,-1.5641,-1.7007,-1.8973,-2.0597,-2.1873,-2.4452,-2.5581,-2.5581,-2.6228,-2.607,-2.5422,-2.3644,-2.3003,-2.2682,-2.0413,-1.9115,-1.8463,-1.1907,-1.1791,-1.1852,-1.1884,-1.1918,-1.1952,-1.2047,-1.2108,-1.2149,-1.2149,-1.2196,-1.2264,-1.2359,-1.2595,0.0,-1.374,-1.3891,-1.4192,-1.4635,-1.457,-1.4538,-1.4538,-1.4464,-1.4383,-1.4278,0.0,0.0,-1.4099,-1.4104,-1.3998,-1.3932,-1.3932,-1.3973,-1.3904,-1.3904,-1.3904,-1.3904,-1.3904,-1.3904,-1.3904,-1.3904,-1.3904,-1.3904,-1.3904,-1.3904,-1.3912,-1.3977,-1.4002,-1.4018,-1.4083,-1.418,-1.427,-1.427,-1.4196,-1.4099,-1.4099,-1.4099,-1.4099,-1.4099,-1.4099,-1.4099,-1.4099,-1.4099,-1.4099,-1.4099,-1.4099,-1.4099,-1.4099,-1.4099,-1.4099,-1.4099,-1.4099,-1.4099,-1.4099,-1.4099,-1.4099,-1.4099,0.0,0.0,0.0,0.0,0.0,0.0,-1.2415,-1.2136,0.0,0.0,0.0,0.0,0.0,0.0,-1.1993,-1.3961,0.0,-1.4968,-1.4968,-1.4968,-1.4968,-1.4968,-1.5975,-1.7874,-1.9792,-2.1737,-2.3575,-2.5609,-2.6386,-2.6386,-2.6386,-2.6386,-2.6228,-2.4455,-2.4136,-2.4455,-2.2028,-2.0888,-2.0403,-1.2189,-1.2216,0.0,0.0,-1.2081,0.0,-1.2094,-1.221,-1.2305,-1.2305,-1.242,-1.2501,-1.2501,-1.2501,-1.2811,-1.3583,0.0,0.0,0.0,-1.4814,-1.4724,-1.4724,-1.4562,-1.4464,-1.4448,-1.4448,-1.444,-1.4432,-1.427,-1.4107,-1.3937,-1.3937,-1.3928,-1.392,-1.392,-1.3912,-1.3904,-1.3904,-1.3904,-1.3904,-1.3912,-1.392,-1.392,-1.3937,-1.3937,-1.3961,-1.4131,-1.4196,-1.4221,-1.4375,-1.444,-1.4448,-1.4448,-1.4456,-1.4464,-1.444,-1.4432,-1.4432,-1.4432,-1.4432,-1.4432,-1.4432,-1.4432,-1.4432,-1.4432,-1.4432,-1.4432,-1.4432,-1.4432,-1.4432,-1.4432,-1.4432,-1.4432,-1.4432,-1.4432,-1.4432,-1.4432,0.0,0.0,0.0,0.0,0.0,0.0,-1.0059,-1.1263,0.0,0.0,0.0,0.0,0.0,-1.139,-1.4952,-1.4968,-1.4968,-1.4968,-1.4968,-1.4968,-1.4968,-1.4976,-1.6001,-1.8048,-1.9813,-2.1771,-2.3769,-2.5622,-2.6386,-2.6386,-2.6386,-2.6386,-2.6228,-2.4614,-2.4945,-2.6056,-2.2831,-2.251,-2.3324,0.0,0.0,-1.2101,-1.2216,-1.2237,-1.2271,-1.2379,-1.2427,-1.2454,-1.2454,-1.2481,-1.2501,-1.2501,-1.2494,-1.2797,-1.3267,-1.3737,-1.4207,-1.4968,-1.4927,-1.4903,-1.4903,-1.4862,-1.4781,-1.4643,-1.4643,-1.457,-1.4432,-1.4391,-1.4351,-1.4302,-1.4302,-1.4237,-1.4115,-1.4115,-1.4034,-1.3904,-1.3904,-1.3904,-1.3912,-1.4058,-1.4115,-1.4123,-1.4253,-1.4302,-1.431,-1.4359,-1.4375,-1.4375,-1.4416,-1.4521,-1.4643,-1.4643,-1.4732,-1.4789,-1.4513,-1.4432,-1.4432,-1.4432,-1.4432,-1.4432,-1.4432,-1.4432,-1.4432,-1.4432,-1.4432,-1.4432,-1.4432,-1.4432,-1.4432,-1.4432,-1.4432,-1.4432,-1.4432,-1.4432,-1.4432,-1.4432,-1.4432,0.0,0.0,-1.3371,-1.3371,-1.3371,-1.3491,-1.2749,0.0,0.0,0.0,0.0,-1.0509,-1.1492,-1.4952,-1.4968,-1.4968,-1.4968,-1.4968,-1.4968,-1.4968,-1.5106,-1.6814,-1.998,-2.0673,-2.2653,-2.5806,-2.6201,-2.6386,-2.6386,-2.6386,-2.6386,-2.6386,-2.5911,-2.607,-2.6228,-2.5422,-2.4614,-2.3656,-1.2402,-1.2264,-1.2291,-1.2372,-1.2386,-1.2413,-1.2488,-1.2501,-1.2501,-1.2501,-1.2501,-1.2501,-1.2501,-1.2494,-1.2649,-1.2951,-1.3583,-1.4361,-1.4968,-1.4968,-1.4968,-1.4968,-1.4968,-1.4919,-1.483,-1.483,-1.4741,-1.4554,-1.4554,-1.4513,-1.4432,-1.4432,-1.4383,-1.4294,-1.4294,-1.4237,-1.414,-1.414,-1.414,-1.4148,-1.4253,-1.4294,-1.4302,-1.4391,-1.4432,-1.444,-1.4529,-1.4554,-1.457,-1.4651,-1.4741,-1.483,-1.483,-1.4887,-1.4927,-1.4732,-1.4676,-1.4676,-1.4676,-1.4676,-1.4676,-1.4676,-1.4676,-1.4676,-1.4676,-1.4676,-1.4676,-1.4676,-1.4676,-1.4676,-1.4676,-1.4676,-1.4676,-1.4676,-1.3379,-1.2892,-1.4509,-1.3379,0.0,-1.4509,-1.4676,-1.4676,-1.4676,-1.4765,-1.4158,-1.2368,-1.2284,0.0,-1.2325,-1.2325,-1.3144,-1.496,-1.4968,-1.4968,-1.4968,-1.4968,-1.4968,-1.4968,-1.5923,-1.7969,-2.0678,-2.1693,-2.3696,-2.6386,-2.6386,-2.6386,-2.6386,-2.6386,-2.6386,-2.6386,-2.6386,-2.6386,-2.6386,-2.6386,-2.574,-2.4945,-1.2481,-1.2501,-1.2501,-1.2501,-1.2501,-1.2501,-1.2501,-1.2501,-1.2501,-1.2501,-1.2501,-1.2501,-1.2501,-1.2501,-1.2494,-1.2488,-1.3583,-1.4361,-1.4814,-1.4968,-1.4968,-1.4968,-1.4968,-1.4968,-1.4968,-1.4968,-1.4895,-1.4749,-1.4749,-1.4667,-1.4513,-1.4513,-1.4497,-1.4473,-1.4473,-1.4456,-1.4432,-1.4432,-1.4432,-1.4432,-1.4464,-1.4473,-1.4473,-1.4505,-1.4513,-1.4529,-1.4692,-1.4749,-1.4773,-1.4919,-1.4968,-1.4968,-1.4968,-1.4968,-1.4968,-1.4968,-1.4968,-1.4968,-1.4968,-1.4968,-1.4968,-1.4968,-1.4968,-1.4968,-1.4968,-1.4968,-1.4968,-1.4968,-1.4968,-1.4968,-1.4968,-1.4968,-1.4798,-1.4298,-1.2325,-1.1676,-1.3961,0.0,-1.1841,-1.4629,-1.4968,-1.4968,-1.4968,-1.4968,-1.4968,-1.4968,-1.4968,-1.4968,-1.4968,-1.4968,-1.4968,-1.4968,-1.4968,-1.4968,-1.4968,-1.4968,-1.4984,-1.5009,-1.6733,-1.8641,-2.0732,-2.2391,-2.439,-2.6386,-2.6386,-2.6386,-2.6386,-2.6386,-2.6386,-2.6386,-2.6386,-2.6386,-2.6386,-2.6386,-2.6386,-2.6228,-1.2501,-1.2501,-1.2501,-1.2501,-1.2501,-1.2501,-1.2501,-1.2501,-1.2501,-1.2501,-1.2501,-1.2501,-1.2501,-1.2501,-1.2494,-1.2488,-1.2958,-1.359,-1.4515,-1.4515,-1.4669,-1.4968,-1.4968,-1.4968,-1.4968,-1.4968,-1.4952,-1.4927,-1.4927,-1.4911,-1.4879,-1.4879,-1.4806,-1.4667,-1.4667,-1.4578,-1.4432,-1.4432,-1.4432,-1.444,-1.4603,-1.4667,-1.4684,-1.483,-1.4879,-1.4887,-1.4919,-1.4927,-1.4927,-1.496,-1.4968,-1.4968,-1.4968,-1.4968,-1.4968,-1.4968,-1.4968,-1.4968,-1.4968,-1.4968,-1.4968,-1.4968,-1.4968,-1.4968,-1.4968,-1.4968,-1.4968,-1.4968,-1.4968,-1.4968,-1.4968,-1.4968,-1.413,-1.1352,-1.281,-1.3472,-1.1194,0.0,-1.446,-1.496,-1.4968,-1.4968,-1.4968,-1.4968,-1.4968,-1.4968,-1.4968,-1.4968,-1.4968,-1.4968,-1.4968,-1.4968,-1.4968,-1.4968,-1.4968,-1.4968,-1.5041,-1.5195,-1.5698,-1.7603,-2.0971,-2.137,-2.3277,-2.6386,-2.6386,-2.6386,-2.6386,-2.6386,-2.6386,-2.6386,-2.6386,-2.6386,-2.6386,-2.6386,-2.6386,-2.6386,-1.2501,-1.2501,-1.2528,-1.2454,-1.2467,-1.2494,-1.2739,-1.291,-1.291,-1.2752,-1.2588,-1.2588,-1.2745,-1.291,-1.291,-1.2903,-1.2828,-1.3255,-1.419,-1.4261,-1.4515,-1.4968,-1.4968,-1.4968,-1.4968,-1.4968,-1.4968,-1.4968,-1.4968,-1.4968,-1.4968,-1.4968,-1.4919,-1.4846,-1.4846,-1.4797,-1.4716,-1.4716,-1.4716,-1.4724,-1.4814,-1.4846,-1.4854,-1.4935,-1.4968,-1.4968,-1.4968,-1.4968,-1.4968,-1.4968,-1.4968,-1.4968,-1.4968,-1.4968,-1.4968,-1.4968,-1.4968,-1.4968,-1.4968,-1.4968,-1.4968,-1.4968,-1.4968,-1.4968,-1.4968,-1.4968,-1.4968,-1.4968,-1.4968,-1.4968,-1.4968,-1.4968,-1.4467,-1.2977,-1.2491,0.0,0.0,-1.2491,-1.2984,-1.4798,-1.4968,-1.4968,-1.4968,-1.4968,-1.4968,-1.4968,-1.4968,-1.4968,-1.4968,-1.4968,-1.4968,-1.4968,-1.4968,-1.4968,-1.4968,-1.5065,-1.5155,-1.5244,-1.6466,-1.8389,-2.1025,-2.2076,-2.3964,-2.6386,-2.6386,-2.6386,-2.6386,-2.6386,-2.6386,-2.6386,-2.6386,-2.6386,-2.6386,-2.6386,-2.6386,-2.6386,-1.2556,-1.2427,-1.2487,-1.2601,-1.2621,-1.2827,-1.3109,-1.329,-1.329,-1.3123,-1.2795,-1.2795,-1.3123,-1.329,-1.329,-1.3123,-1.3013,-1.3089,-1.384,-1.419,-1.4554,-1.4968,-1.4968,-1.4968,-1.4968,-1.4968,-1.4968,-1.4968,-1.4968,-1.4968,-1.4968,-1.4968,-1.4968,-1.4968,-1.4968,-1.4968,-1.4968,-1.4968,-1.4968,-1.4968,-1.4968,-1.4968,-1.4968,-1.4968,-1.4968,-1.4968,-1.4968,-1.4968,-1.4968,-1.4968,-1.4968,-1.4968,-1.4968,-1.4968,-1.4968,-1.4968,-1.4968,-1.4968,-1.4968,-1.4968,-1.4968,-1.4968,-1.4968,-1.4968,-1.4968,-1.4968,-1.4968,-1.4968,-1.4968,-1.4968,-1.4968,-1.4968,-1.479,-1.3969,0.0,0.0,0.0,-1.2325,-1.2166,-1.4637,-1.4968,-1.4968,-1.4968,-1.4968,-1.4968,-1.4968,-1.4968,-1.4968,-1.4968,-1.4968,-1.4968,-1.4968,-1.4968,-1.4968,-1.4968,-1.5147,-1.526,-1.5309,-1.7048,-1.8663,-2.0463,-2.2419,-2.4136,-2.5753,-2.6228,-2.6386,-2.6386,-2.6386,-2.6386,-2.6386,-2.6386,-2.6386,-2.6386,-2.6386,-2.6386,-2.6386,-1.2548,-1.2503,-1.2602,-1.2942,-1.3109,-1.3283,-1.329,-1.3457,-1.3457,-1.329,-1.3123,-1.3123,-1.329,-1.313,-1.3123,-1.3123,-1.2949,-1.304,-1.3369,-1.3826,-1.4368,-1.4976,-1.4968,-1.4968,-1.4968,-1.4968,-1.4968,-1.4968,-1.4968,-1.4968,-1.4968,-1.4968,-1.4968,-1.4968,-1.4968,-1.4968,-1.4968,-1.4968,-1.4968,-1.4968,-1.4968,-1.4968,-1.4968,-1.4968,-1.4968,-1.4968,-1.4968,-1.4968,-1.4968,-1.4968,-1.4968,-1.4968,-1.4968,-1.4968,-1.4968,-1.4968,-1.4968,-1.4968,-1.4968,-1.4968,-1.4968,-1.4968,-1.4968,-1.4968,-1.4968,-1.4968,-1.4968,-1.4968,-1.4968,-1.4968,-1.4968,-1.4968,-1.3969,-1.103,0.0,0.0,-1.0872,-1.2817,-1.479,-1.496,-1.4968,-1.4968,-1.4968,-1.4968,-1.4968,-1.4968,-1.4968,-1.4968,-1.4968,-1.4968,-1.4968,-1.4968,-1.4968,-1.4968,-1.4968,-1.5147,-1.5325,-1.5496,-1.5844,-1.6982,-1.876,-2.0565,-2.235,-2.4136,-2.574,-2.6386,-2.6386,-2.6386,-2.6386,-2.6386,-2.6386,-2.6386,-2.6386,-2.6386,-2.6386,-2.6386,-1.2708,-1.2755,-1.2822,-1.2909,-1.3253,-1.3457,-1.3391,-1.3404,-1.3404,-1.3404,-1.3234,-1.3234,-1.3404,-1.3234,-1.3234,-1.3234,-1.3146,-1.3233,-1.3653,-1.3785,-1.4228,-1.4976,-1.4968,-1.4968,-1.4968,-1.4968,-1.4968,-1.4968,-1.4968,-1.4968,-1.4968,-1.4968,-1.4968,-1.4968,-1.4968,-1.4968,-1.4968,-1.4968,-1.4968,-1.4968,-1.4968,-1.4968,-1.4968,-1.4968,-1.4968,-1.4968,-1.4968,-1.4968,-1.4968,-1.4968,-1.4968,-1.4968,-1.4968,-1.4968,-1.4968,-1.4968,-1.4968,-1.4968,-1.4968,-1.4968,-1.4968,-1.4968,-1.4968,-1.4968,-1.4968,-1.4968,-1.4968,-1.4968,-1.4968,-1.4968,-1.4968,-1.4968,-1.4629,-1.3312,0.0,-1.4621,-1.3304,-1.4137,-1.4968,-1.4968,-1.4968,-1.4968,-1.4968,-1.4968,-1.4968,-1.4968,-1.4968,-1.4968,-1.4968,-1.4968,-1.4968,-1.4968,-1.5074,-1.5139,-1.5139,-1.5317,-1.5496,-1.5675,-1.5853,-1.6777,-1.8626,-1.9277,-2.106,-2.3816,-2.4455,-2.5422,-2.6386,-2.6386,-2.6386,-2.6386,-2.6386,-2.6386,-2.6386,-2.6386,-2.6386,-2.6386,-1.2862,-1.3064,-1.3132,-1.3057,-1.3247,-1.3446,-1.3383,-1.3403,-1.3403,-1.3403,-1.3403,-1.3403,-1.3403,-1.3403,-1.3403,-1.3403,-1.3302,-1.3384,-1.3661,-1.3858,-1.4228,-1.4976,-1.4968,-1.4968,-1.4968,-1.4968,-1.4968,-1.4968,-1.4968,-1.4968,-1.4968,-1.4968,-1.4968,-1.4968,-1.4968,-1.4968,-1.4968,-1.4968,-1.4968,-1.4968,-1.4968,-1.4968,-1.4968,-1.4968,-1.4968,-1.4968,-1.4968,-1.4968,-1.4968,-1.4968,-1.4968,-1.4968,-1.4968,-1.4968,-1.4968,-1.4968,-1.4968,-1.4968,-1.4968,-1.4968,-1.4968,-1.4968,-1.4968,-1.4968,-1.4968,-1.4968,-1.4968,-1.4968,-1.4968,-1.4968,-1.4968,-1.4968,-1.4968,-1.4968,-1.4968,-1.4968,-1.4968,-1.4968,-1.4968,-1.4968,-1.4968,-1.4968,-1.4968,-1.4968,-1.4968,-1.4968,-1.4968,-1.4968,-1.4968,-1.4968,-1.4992,-1.5049,-1.5171,-1.5293,-1.5407,-1.5536,-1.5658,-1.5772,-1.5959,-1.6689,-1.7819,-1.83,-2.0241,-2.3003,-2.3484,-2.4786,-2.6386,-2.6386,-2.6386,-2.6386,-2.6386,-2.6386,-2.6386,-2.6386,-2.6386,-2.6386,-1.3003,-1.3295,-1.3403,-1.3403,-1.3403,-1.3403,-1.3403,-1.3403,-1.3403,-1.3403,-1.3403,-1.3403,-1.3403,-1.3403,-1.3403,-1.3403,-1.3403,-1.3336,-1.3186,-1.3699,-1.4235,-1.4976,-1.4968,-1.4968,-1.4968,-1.4968,-1.4968,-1.4968,-1.4968,-1.4968,-1.4968,-1.4968,-1.4968,-1.4968,-1.4968,-1.4968,-1.4968,-1.4968,-1.4968,-1.4968,-1.4968,-1.4968,-1.4968,-1.4968,-1.4968,-1.4968,-1.4968,-1.4968,-1.4968,-1.4968,-1.4968,-1.4968,-1.4968,-1.4968,-1.4968,-1.4968,-1.4968,-1.4968,-1.4968,-1.4968,-1.4968,-1.4968,-1.4968,-1.4968,-1.4968,-1.4968,-1.4968,-1.4968,-1.4968,-1.4968,-1.4968,-1.4968,-1.4968,-1.4968,-1.4968,-1.4968,-1.4968,-1.4968,-1.4968,-1.4968,-1.4968,-1.4968,-1.4968,-1.4968,-1.4968,-1.4968,-1.4968,-1.4968,-1.4968,-1.4968,-1.5049,-1.5236,-1.5244,-1.5415,-1.5772,-1.5772,-1.5772,-1.578,-1.5959,-1.6048,-1.6048,-1.7819,-1.9592,-2.1383,-2.3003,-2.4786,-2.6386,-2.6386,-2.6386,-2.6386,-2.6386,-2.6386,-2.6386,-2.6386,-2.6386,-2.6386,-1.3329,-1.337,-1.3403,-1.3403,-1.3403,-1.3403,-1.3403,-1.3403,-1.3403,-1.3403,-1.3403,-1.3403,-1.3403,-1.3403,-1.3403,-1.3403,-1.3403,-1.3501,-1.3676,-1.4062,-1.4373,-1.4243,-1.4423,-1.4669,-1.4968,-1.4661,-1.4661,-1.4968,-1.4968,-1.4968,-1.4968,-1.4968,-1.4968,-1.4968,-1.4968,-1.4968,-1.4968,-1.4968,-1.4968,-1.4968,-1.4968,-1.4968,-1.4968,-1.4968,-1.4968,-1.4968,-1.4968,-1.4968,-1.4968,-1.4968,-1.4968,-1.4968,-1.4968,-1.4968,-1.4968,-1.4968,-1.4968,-1.4968,-1.4968,-1.4968,-1.4968,-1.4968,-1.4968,-1.4968,-1.4968,-1.4968,-1.4968,-1.4968,-1.4968,-1.4968,-1.4968,-1.4968,-1.4968,-1.4968,-1.4968,-1.4968,-1.4968,-1.4968,-1.4968,-1.4968,-1.4968,-1.4968,-1.4968,-1.4968,-1.4968,-1.4968,-1.4968,-1.4968,-1.4968,-1.509,-1.5179,-1.5236,-1.548,-1.5666,-1.5772,-1.5772,-1.5837,-1.5967,-1.6024,-1.6048,-1.6048,-1.6525,-1.8472,-2.1222,-2.1706,-2.3644,-2.6386,-2.6386,-2.6386,-2.6386,-2.6386,-2.6386,-2.6386,-2.6386,-2.6386,-2.6386,-1.3403,-1.3403,-1.3403,-1.3403,-1.3403,-1.3403,-1.3403,-1.3403,-1.3403,-1.3403,-1.3403,-1.3403,-1.3403,-1.3403,-1.3403,-1.3403,-1.3403,-1.3528,-1.3596,-1.4023,-1.4069,-1.3873,-1.3968,-1.4276,-1.4822,-1.4515,-1.4669,-1.4968,-1.4968,-1.4968,-1.4968,-1.4968,-1.4968,-1.4968,-1.4968,-1.4968,-1.4968,-1.4968,-1.4968,-1.4968,-1.4968,-1.4968,-1.4968,-1.4968,-1.4968,-1.4968,-1.4968,-1.4968,-1.4968,-1.4968,-1.4968,-1.4968,-1.4968,-1.4968,-1.4968,-1.4968,-1.4968,-1.4968,-1.4968,-1.4968,-1.4968,-1.4968,-1.4968,-1.4968,-1.4968,-1.4968,-1.4968,-1.4968,-1.4968,-1.4968,-1.4968,-1.4968,-1.4968,-1.4968,-1.4968,-1.4968,-1.4968,-1.4968,-1.4968,-1.4968,-1.4968,-1.4968,-1.4968,-1.4968,-1.4968,-1.4968,-1.4968,-1.5,-1.5074,-1.5179,-1.5301,-1.5447,-1.5658,-1.5804,-1.5878,-1.5878,-1.5934,-1.6048,-1.6048,-1.6048,-1.6048,-1.6048,-1.7501,-2.0241,-2.0241,-2.1695,-2.4442,-2.5092,-2.5422,-2.5422,-2.607,-2.6386,-2.6386,-2.6386,-2.6386,-2.6386,-1.3403,-1.3403,-1.3403,-1.3403,-1.3403,-1.3403,-1.3403,-1.3403,-1.3403,-1.3403,-1.3403,-1.3403,-1.3403,-1.3403,-1.3403,-1.3403,-1.3403,-1.3403,-1.3403,-1.3596,-1.3838,-1.3824,-1.3554,-1.364,-1.4237,-1.4368,-1.4515,-1.4968,-1.4968,-1.4968,-1.4968,-1.4968,-1.4968,-1.4968,-1.4968,-1.4968,-1.4968,-1.4968,-1.4968,-1.4968,-1.4968,-1.4968,-1.4968,-1.4968,-1.4968,-1.4968,-1.4968,-1.4968,-1.4968,-1.4968,-1.4968,-1.4968,-1.4968,-1.4968,-1.4968,-1.4968,-1.4968,-1.4968,-1.4968,-1.4968,-1.4968,-1.4968,-1.4968,-1.4968,-1.4968,-1.4968,-1.4968,-1.4968,-1.4968,-1.4968,-1.4968,-1.4968,-1.4968,-1.4968,-1.4968,-1.4968,-1.4968,-1.4968,-1.4968,-1.4968,-1.4968,-1.4968,-1.4968,-1.4968,-1.4968,-1.4984,-1.4992,-1.5074,-1.526,-1.5277,-1.5439,-1.5764,-1.5788,-1.5878,-1.604,-1.6048,-1.6048,-1.6048,-1.6048,-1.6048,-1.6048,-1.6048,-1.7018,-1.8626,-1.8626,-1.9755,-2.1545,-2.3164,-2.3816,-2.4136,-2.574,-2.6386,-2.6386,-2.6386,-2.6386,-2.6386,-1.3403,-1.3403,-1.3403,-1.3403,-1.3403,-1.3403,-1.3403,-1.3403,-1.3403,-1.3403,-1.3403,-1.3403,-1.3403,-1.3403,-1.3403,-1.3403,-1.3403,-1.3403,-1.3403,-1.3865,-1.3795,-1.3343,-1.3598,-1.3596,-1.3476,-1.3811,-1.4053,-1.4515,-1.4814,-1.4968,-1.4968,-1.4968,-1.4968,-1.4968,-1.4968,-1.4968,-1.4968,-1.4968,-1.4968,-1.4968,-1.4968,-1.4968,-1.4968,-1.4968,-1.4968,-1.4968,-1.4968,-1.4968,-1.4968,-1.4968,-1.4968,-1.4968,-1.4968,-1.4968,-1.4968,-1.4968,-1.4968,-1.4968,-1.4968,-1.4968,-1.4968,-1.4968,-1.4968,-1.4968,-1.4968,-1.4968,-1.4968,-1.4968,-1.4968,-1.4968,-1.4968,-1.4968,-1.4968,-1.4968,-1.4968,-1.4968,-1.4968,-1.4968,-1.4968,-1.4968,-1.4968,-1.4968,-1.4968,-1.4968,-1.5025,-1.5007,-1.5015,-1.5096,-1.5281,-1.5417,-1.5691,-1.5772,-1.591,-1.6008,-1.6048,-1.6048,-1.6048,-1.6048,-1.6048,-1.6048,-1.6048,-1.6048,-1.7018,-1.8626,-1.8626,-2.0403,-2.3324,-2.3656,-2.4614,-2.5898,-2.6228,-2.6386,-2.6386,-2.6386,-2.6386,-2.6386,-1.3403,-1.3403,-1.3403,-1.3403,-1.3403,-1.3403,-1.3403,-1.3403,-1.3403,-1.3403,-1.3403,-1.3403,-1.3403,-1.3403,-1.3403,-1.3403,-1.3403,-1.3403,-1.3403,-1.3569,-1.37,-1.3288,-1.3377,-1.3394,-1.3165,-1.3632,-1.3981,-1.4368,-1.4814,-1.4968,-1.4968,-1.4968,-1.4968,-1.4968,-1.4968,-1.4968,-1.4968,-1.4968,-1.4968,-1.4968,-1.4968,-1.4968,-1.4968,-1.4968,-1.4968,-1.4968,-1.4968,-1.4968,-1.4968,-1.4968,-1.4968,-1.4968,-1.4968,-1.4968,-1.4968,-1.4968,-1.4968,-1.4968,-1.4968,-1.4968,-1.4968,-1.4968,-1.4968,-1.4968,-1.4968,-1.4968,-1.4968,-1.4968,-1.4968,-1.4968,-1.4968,-1.4968,-1.4968,-1.4968,-1.4968,-1.4968,-1.4968,-1.4968,-1.4968,-1.4968,-1.4968,-1.5,-1.4927,-1.5335,-1.5268,-1.5034,-1.5366,-1.5455,-1.5626,-1.5723,-1.5813,-1.5902,-1.5999,-1.6048,-1.6048,-1.6048,-1.6048,-1.6048,-1.6048,-1.6048,-1.6048,-1.6048,-1.6534,-1.7337,-1.7337,-1.8472,-2.0251,-2.1867,-2.3164,-2.4123,-2.574,-2.6386,-2.6386,-2.6386,-2.6386,-2.6386,-1.3403,-1.3403,-1.3403,-1.3403,-1.3403,-1.3403,-1.3403,-1.3403,-1.3403,-1.3403,-1.3403,-1.3403,-1.3403,-1.3403,-1.3403,-1.3403,-1.3403,-1.3403,-1.3403,-1.3403,-1.3403,-1.3403,-1.3281,-1.3146,-1.3003,-1.3641,-1.4094,-1.4207,-1.4814,-1.4968,-1.4968,-1.4968,-1.4968,-1.4968,-1.4968,-1.4968,-1.4968,-1.4968,-1.4968,-1.4968,-1.4968,-1.4968,-1.4968,-1.4968,-1.4968,-1.4968,-1.4968,-1.4968,-1.4968,-1.4968,-1.4968,-1.4968,-1.4968,-1.4968,-1.4968,-1.4968,-1.4968,-1.4968,-1.4968,-1.4968,-1.4968,-1.4968,-1.4968,-1.4968,-1.4968,-1.4968,-1.4968,-1.4968,-1.4968,-1.4968,-1.4968,-1.4968,-1.4968,-1.4968,-1.4968,-1.4968,-1.4968,-1.4992,-1.5009,-1.5009,-1.5041,-1.5114,-1.5112,-1.5597,-1.5696,-1.5225,-1.5561,-1.5971,-1.5983,-1.5991,-1.6057,-1.604,-1.6048,-1.6048,-1.6048,-1.6048,-1.6048,-1.6048,-1.6048,-1.6048,-1.6048,-1.6048,-1.6048,-1.6048,-1.6048,-1.6205,-1.6689,-1.9927,-2.1383,-2.2028,-2.5092,-2.6386,-2.6386,-2.6386,-2.6386,-2.6386,-1.3403,-1.3403,-1.3403,-1.3403,-1.3403,-1.3403,-1.3403,-1.3403,-1.3403,-1.3403,-1.3403,-1.3403,-1.3403,-1.3403,-1.3403,-1.3403,-1.3403,-1.3403,-1.3403,-1.3403,-1.3403,-1.3403,-1.3383,-1.3302,-1.3146,-1.38,-1.405,-1.3744,-1.4661,-1.4968,-1.4968,-1.4968,-1.4968,-1.4968,-1.4968,-1.4968,-1.4968,-1.4968,-1.4968,-1.4968,-1.4968,-1.4968,-1.4968,-1.4968,-1.4968,-1.4968,-1.4968,-1.4968,-1.4968,-1.4968,-1.4968,-1.4968,-1.4968,-1.4968,-1.4968,-1.4968,-1.4968,-1.4968,-1.4968,-1.4968,-1.4968,-1.4968,-1.4968,-1.4968,-1.4968,-1.4968,-1.4968,-1.4968,-1.4968,-1.4968,-1.4968,-1.4968,-1.4968,-1.4968,-1.4968,-1.4968,-1.4968,-1.5106,-1.5204,-1.5204,-1.5019,-1.5281,-1.5806,-1.5998,-1.5913,-1.5893,-1.5731,-1.565,-1.5999,-1.6008,-1.6024,-1.6048,-1.6048,-1.6048,-1.6048,-1.6048,-1.6048,-1.6048,-1.6048,-1.6048,-1.6048,-1.6048,-1.6048,-1.6048,-1.6048,-1.6854,-1.8463,-2.0403,-2.2028,-2.3656,-2.5581,-2.6386,-2.6386,-2.6386,-2.6386,-2.6386,-1.3403,-1.3403,-1.3403,-1.3403,-1.3403,-1.3403,-1.3403,-1.3403,-1.3403,-1.3403,-1.3403,-1.3403,-1.3403,-1.3403,-1.3403,-1.3403,-1.3403,-1.3403,-1.3403,-1.3403,-1.3403,-1.3403,-1.3403,-1.3329,-1.3173,-1.3668,-1.3793,-1.3886,-1.4554,-1.4968,-1.4968,-1.4968,-1.4968,-1.4968,-1.4968,-1.4968,-1.4968,-1.4968,-1.4968,-1.4968,-1.4968,-1.4968,-1.4968,-1.4968,-1.4968,-1.4968,-1.4968,-1.4968,-1.4968,-1.4968,-1.4968,-1.4968,-1.4968,-1.4968,-1.4968,-1.4968,-1.4968,-1.4968,-1.4968,-1.4968,-1.4968,-1.4968,-1.4968,-1.4968,-1.4968,-1.4968,-1.4968,-1.4968,-1.4968,-1.4968,-1.4968,-1.4968,-1.5,-1.5106,-1.5122,-1.5155,-1.526,-1.5342,-1.539,-1.539,-1.5385,-1.549,-1.5996,-1.5926,-1.6016,-1.5926,-1.5926,-1.5795,-1.604,-1.6048,-1.6048,-1.6048,-1.6048,-1.6048,-1.6048,-1.6048,-1.6048,-1.6048,-1.6048,-1.6048,-1.6048,-1.6048,-1.6048,-1.6048,-1.6048,-1.6369,-1.7337,-2.0089,-2.1706,-2.2671,-2.5422,-2.6386,-2.6386,-2.6386,-2.6386,-2.6386]}]]